<?xml version="1.0" encoding="UTF-8" standalone="no" ?>
<gpx xmlns="http://www.topografix.com/GPX/1/1" xmlns:xsi="http://www.w3.org/2001/XMLSchema-instance" xsi:schemaLocation="http://www.topografix.com/GPX/1/1 http://www.topografix.com/GPX/1/1/gpx.xsd" version="1.1" creator="VisuGPX - https://www.visugpx.com">
  <metadata>
    <name>69-064-0360-ORLIENAS=Barrage-de-Couzon</name>
    <desc><![CDATA[Circuit en Aller Retour
Départ ORLIENAS Parking des Randonneurs

Orliénas Les 7 Chemins
Givors
Rive de Gier
Châteauneuf
CHÂTEAUNEUF Barrage de Couzon
Châteauneuf
Rive de Gier
Givors
Vourles Les 7 Chemins
Brignais
ORLIENAS]]></desc>
  </metadata>
  <trk>
    <name><![CDATA[13-MAI-25 17:54:02]]></name>
    <trkseg>
      <trkpt lat="45.66416" lon="4.73713">
        <ele>285.65</ele>
        <time>2025-05-13T11:21:11Z</time>
      </trkpt>
      <trkpt lat="45.66415" lon="4.73724">
        <ele>285.65</ele>
        <time>2025-05-13T11:21:12Z</time>
      </trkpt>
      <trkpt lat="45.66413" lon="4.73733">
        <ele>286.13</ele>
        <time>2025-05-13T11:21:13Z</time>
      </trkpt>
      <trkpt lat="45.66411" lon="4.73743">
        <ele>286.13</ele>
        <time>2025-05-13T11:21:14Z</time>
      </trkpt>
      <trkpt lat="45.66409" lon="4.73752">
        <ele>286.13</ele>
        <time>2025-05-13T11:21:15Z</time>
      </trkpt>
      <trkpt lat="45.66406" lon="4.7376">
        <ele>286.61</ele>
        <time>2025-05-13T11:21:16Z</time>
      </trkpt>
      <trkpt lat="45.66389" lon="4.73807">
        <ele>287.57</ele>
        <time>2025-05-13T11:21:22Z</time>
      </trkpt>
      <trkpt lat="45.66352" lon="4.73853">
        <ele>290.94</ele>
        <time>2025-05-13T11:21:32Z</time>
      </trkpt>
      <trkpt lat="45.66348" lon="4.73856">
        <ele>290.94</ele>
        <time>2025-05-13T11:21:33Z</time>
      </trkpt>
      <trkpt lat="45.66344" lon="4.73858">
        <ele>291.9</ele>
        <time>2025-05-13T11:21:34Z</time>
      </trkpt>
      <trkpt lat="45.66274" lon="4.73896">
        <ele>290.46</ele>
        <time>2025-05-13T11:21:49Z</time>
      </trkpt>
      <trkpt lat="45.66185" lon="4.73943">
        <ele>289.49</ele>
        <time>2025-05-13T11:22:07Z</time>
      </trkpt>
      <trkpt lat="45.66143" lon="4.73973">
        <ele>286.13</ele>
        <time>2025-05-13T11:22:14Z</time>
      </trkpt>
      <trkpt lat="45.66108" lon="4.74007">
        <ele>283.25</ele>
        <time>2025-05-13T11:22:20Z</time>
      </trkpt>
      <trkpt lat="45.66072" lon="4.74045">
        <ele>280.84</ele>
        <time>2025-05-13T11:22:26Z</time>
      </trkpt>
      <trkpt lat="45.66047" lon="4.74064">
        <ele>277.96</ele>
        <time>2025-05-13T11:22:30Z</time>
      </trkpt>
      <trkpt lat="45.66023" lon="4.74085">
        <ele>274.11</ele>
        <time>2025-05-13T11:22:34Z</time>
      </trkpt>
      <trkpt lat="45.66007" lon="4.74106">
        <ele>271.71</ele>
        <time>2025-05-13T11:22:37Z</time>
      </trkpt>
      <trkpt lat="45.66003" lon="4.74113">
        <ele>270.75</ele>
        <time>2025-05-13T11:22:38Z</time>
      </trkpt>
      <trkpt lat="45.66" lon="4.74122">
        <ele>270.75</ele>
        <time>2025-05-13T11:22:39Z</time>
      </trkpt>
      <trkpt lat="45.65997" lon="4.7413">
        <ele>269.79</ele>
        <time>2025-05-13T11:22:40Z</time>
      </trkpt>
      <trkpt lat="45.65994" lon="4.74139">
        <ele>269.79</ele>
        <time>2025-05-13T11:22:41Z</time>
      </trkpt>
      <trkpt lat="45.65968" lon="4.74222">
        <ele>266.9</ele>
        <time>2025-05-13T11:22:49Z</time>
      </trkpt>
      <trkpt lat="45.65949" lon="4.74266">
        <ele>264.02</ele>
        <time>2025-05-13T11:22:53Z</time>
      </trkpt>
      <trkpt lat="45.65944" lon="4.74276">
        <ele>263.06</ele>
        <time>2025-05-13T11:22:54Z</time>
      </trkpt>
      <trkpt lat="45.65906" lon="4.7433">
        <ele>262.58</ele>
        <time>2025-05-13T11:23:00Z</time>
      </trkpt>
      <trkpt lat="45.65901" lon="4.7434">
        <ele>262.1</ele>
        <time>2025-05-13T11:23:01Z</time>
      </trkpt>
      <trkpt lat="45.65897" lon="4.74351">
        <ele>262.1</ele>
        <time>2025-05-13T11:23:02Z</time>
      </trkpt>
      <trkpt lat="45.65889" lon="4.74373">
        <ele>261.14</ele>
        <time>2025-05-13T11:23:04Z</time>
      </trkpt>
      <trkpt lat="45.65869" lon="4.74428">
        <ele>260.65</ele>
        <time>2025-05-13T11:23:09Z</time>
      </trkpt>
      <trkpt lat="45.65863" lon="4.74437">
        <ele>260.65</ele>
        <time>2025-05-13T11:23:10Z</time>
      </trkpt>
      <trkpt lat="45.65857" lon="4.74445">
        <ele>260.65</ele>
        <time>2025-05-13T11:23:11Z</time>
      </trkpt>
      <trkpt lat="45.65851" lon="4.74452">
        <ele>260.65</ele>
        <time>2025-05-13T11:23:12Z</time>
      </trkpt>
      <trkpt lat="45.65845" lon="4.74459">
        <ele>260.65</ele>
        <time>2025-05-13T11:23:13Z</time>
      </trkpt>
      <trkpt lat="45.65822" lon="4.7448">
        <ele>259.69</ele>
        <time>2025-05-13T11:23:17Z</time>
      </trkpt>
      <trkpt lat="45.65816" lon="4.74483">
        <ele>259.69</ele>
        <time>2025-05-13T11:23:18Z</time>
      </trkpt>
      <trkpt lat="45.65809" lon="4.74485">
        <ele>259.69</ele>
        <time>2025-05-13T11:23:19Z</time>
      </trkpt>
      <trkpt lat="45.65768" lon="4.74491">
        <ele>257.77</ele>
        <time>2025-05-13T11:23:25Z</time>
      </trkpt>
      <trkpt lat="45.65737" lon="4.74512">
        <ele>254.41</ele>
        <time>2025-05-13T11:23:30Z</time>
      </trkpt>
      <trkpt lat="45.65731" lon="4.74518">
        <ele>253.93</ele>
        <time>2025-05-13T11:23:31Z</time>
      </trkpt>
      <trkpt lat="45.65726" lon="4.74525">
        <ele>253.44</ele>
        <time>2025-05-13T11:23:32Z</time>
      </trkpt>
      <trkpt lat="45.65716" lon="4.7454">
        <ele>252.48</ele>
        <time>2025-05-13T11:23:34Z</time>
      </trkpt>
      <trkpt lat="45.65697" lon="4.74572">
        <ele>249.6</ele>
        <time>2025-05-13T11:23:38Z</time>
      </trkpt>
      <trkpt lat="45.6568" lon="4.74601">
        <ele>247.2</ele>
        <time>2025-05-13T11:23:42Z</time>
      </trkpt>
      <trkpt lat="45.65671" lon="4.74616">
        <ele>246.23</ele>
        <time>2025-05-13T11:23:44Z</time>
      </trkpt>
      <trkpt lat="45.65662" lon="4.74631">
        <ele>244.79</ele>
        <time>2025-05-13T11:23:46Z</time>
      </trkpt>
      <trkpt lat="45.65644" lon="4.74661">
        <ele>240.95</ele>
        <time>2025-05-13T11:23:50Z</time>
      </trkpt>
      <trkpt lat="45.65631" lon="4.74684">
        <ele>237.58</ele>
        <time>2025-05-13T11:23:53Z</time>
      </trkpt>
      <trkpt lat="45.65612" lon="4.74715">
        <ele>234.7</ele>
        <time>2025-05-13T11:23:57Z</time>
      </trkpt>
      <trkpt lat="45.65607" lon="4.74721">
        <ele>233.26</ele>
        <time>2025-05-13T11:23:58Z</time>
      </trkpt>
      <trkpt lat="45.65602" lon="4.74728">
        <ele>232.3</ele>
        <time>2025-05-13T11:23:59Z</time>
      </trkpt>
      <trkpt lat="45.65596" lon="4.74733">
        <ele>231.81</ele>
        <time>2025-05-13T11:24:00Z</time>
      </trkpt>
      <trkpt lat="45.65574" lon="4.74747">
        <ele>227.97</ele>
        <time>2025-05-13T11:24:03Z</time>
      </trkpt>
      <trkpt lat="45.65543" lon="4.74763">
        <ele>224.61</ele>
        <time>2025-05-13T11:24:07Z</time>
      </trkpt>
      <trkpt lat="45.65506" lon="4.74775">
        <ele>220.76</ele>
        <time>2025-05-13T11:24:11Z</time>
      </trkpt>
      <trkpt lat="45.6548" lon="4.74788">
        <ele>217.88</ele>
        <time>2025-05-13T11:24:14Z</time>
      </trkpt>
      <trkpt lat="45.65457" lon="4.74802">
        <ele>215.47</ele>
        <time>2025-05-13T11:24:17Z</time>
      </trkpt>
      <trkpt lat="45.65416" lon="4.7484">
        <ele>213.55</ele>
        <time>2025-05-13T11:24:23Z</time>
      </trkpt>
      <trkpt lat="45.65384" lon="4.74878">
        <ele>210.19</ele>
        <time>2025-05-13T11:24:28Z</time>
      </trkpt>
      <trkpt lat="45.65378" lon="4.74885">
        <ele>210.19</ele>
        <time>2025-05-13T11:24:29Z</time>
      </trkpt>
      <trkpt lat="45.65353" lon="4.74918">
        <ele>208.26</ele>
        <time>2025-05-13T11:24:34Z</time>
      </trkpt>
      <trkpt lat="45.65349" lon="4.74922">
        <ele>208.26</ele>
        <time>2025-05-13T11:24:35Z</time>
      </trkpt>
      <trkpt lat="45.65345" lon="4.74924">
        <ele>208.26</ele>
        <time>2025-05-13T11:24:36Z</time>
      </trkpt>
      <trkpt lat="45.65341" lon="4.74925">
        <ele>207.3</ele>
        <time>2025-05-13T11:24:37Z</time>
      </trkpt>
      <trkpt lat="45.65337" lon="4.74925">
        <ele>207.3</ele>
        <time>2025-05-13T11:24:38Z</time>
      </trkpt>
      <trkpt lat="45.65334" lon="4.74923">
        <ele>206.82</ele>
        <time>2025-05-13T11:24:39Z</time>
      </trkpt>
      <trkpt lat="45.65332" lon="4.74922">
        <ele>207.3</ele>
        <time>2025-05-13T11:24:40Z</time>
      </trkpt>
      <trkpt lat="45.65325" lon="4.74922">
        <ele>206.34</ele>
        <time>2025-05-13T11:24:45Z</time>
      </trkpt>
      <trkpt lat="45.65325" lon="4.74924">
        <ele>206.34</ele>
        <time>2025-05-13T11:24:46Z</time>
      </trkpt>
      <trkpt lat="45.65325" lon="4.74926">
        <ele>206.34</ele>
        <time>2025-05-13T11:24:47Z</time>
      </trkpt>
      <trkpt lat="45.65325" lon="4.74929">
        <ele>205.86</ele>
        <time>2025-05-13T11:24:48Z</time>
      </trkpt>
      <trkpt lat="45.65324" lon="4.74931">
        <ele>206.34</ele>
        <time>2025-05-13T11:24:49Z</time>
      </trkpt>
      <trkpt lat="45.65324" lon="4.74934">
        <ele>206.34</ele>
        <time>2025-05-13T11:24:50Z</time>
      </trkpt>
      <trkpt lat="45.65324" lon="4.74972">
        <ele>206.82</ele>
        <time>2025-05-13T11:25:02Z</time>
      </trkpt>
      <trkpt lat="45.65329" lon="4.74981">
        <ele>205.86</ele>
        <time>2025-05-13T11:25:12Z</time>
      </trkpt>
      <trkpt lat="45.65328" lon="4.74984">
        <ele>206.34</ele>
        <time>2025-05-13T11:25:14Z</time>
      </trkpt>
      <trkpt lat="45.65319" lon="4.74986">
        <ele>206.34</ele>
        <time>2025-05-13T11:25:27Z</time>
      </trkpt>
      <trkpt lat="45.65318" lon="4.74988">
        <ele>206.34</ele>
        <time>2025-05-13T11:25:28Z</time>
      </trkpt>
      <trkpt lat="45.65317" lon="4.7499">
        <ele>206.34</ele>
        <time>2025-05-13T11:25:29Z</time>
      </trkpt>
      <trkpt lat="45.65321" lon="4.75028">
        <ele>205.38</ele>
        <time>2025-05-13T11:25:43Z</time>
      </trkpt>
      <trkpt lat="45.6532" lon="4.75029">
        <ele>205.86</ele>
        <time>2025-05-13T11:26:00Z</time>
      </trkpt>
      <trkpt lat="45.65321" lon="4.75032">
        <ele>204.9</ele>
        <time>2025-05-13T11:26:14Z</time>
      </trkpt>
      <trkpt lat="45.65324" lon="4.75036">
        <ele>204.9</ele>
        <time>2025-05-13T11:26:28Z</time>
      </trkpt>
      <trkpt lat="45.65325" lon="4.75035">
        <ele>205.38</ele>
        <time>2025-05-13T11:26:51Z</time>
      </trkpt>
      <trkpt lat="45.65325" lon="4.75035">
        <ele>205.86</ele>
        <time>2025-05-13T11:27:12Z</time>
      </trkpt>
      <trkpt lat="45.65323" lon="4.75038">
        <ele>205.86</ele>
        <time>2025-05-13T11:27:29Z</time>
      </trkpt>
      <trkpt lat="45.65325" lon="4.75038">
        <ele>205.86</ele>
        <time>2025-05-13T11:27:51Z</time>
      </trkpt>
      <trkpt lat="45.65324" lon="4.75039">
        <ele>206.34</ele>
        <time>2025-05-13T11:28:12Z</time>
      </trkpt>
      <trkpt lat="45.65324" lon="4.7504">
        <ele>206.34</ele>
        <time>2025-05-13T11:28:37Z</time>
      </trkpt>
      <trkpt lat="45.65326" lon="4.7504">
        <ele>206.34</ele>
        <time>2025-05-13T11:29:01Z</time>
      </trkpt>
      <trkpt lat="45.65326" lon="4.75037">
        <ele>206.34</ele>
        <time>2025-05-13T11:29:21Z</time>
      </trkpt>
      <trkpt lat="45.65323" lon="4.75035">
        <ele>206.34</ele>
        <time>2025-05-13T11:29:49Z</time>
      </trkpt>
      <trkpt lat="45.65324" lon="4.75036">
        <ele>206.82</ele>
        <time>2025-05-13T11:30:18Z</time>
      </trkpt>
      <trkpt lat="45.65326" lon="4.75037">
        <ele>207.3</ele>
        <time>2025-05-13T11:30:36Z</time>
      </trkpt>
      <trkpt lat="45.65326" lon="4.75026">
        <ele>207.3</ele>
        <time>2025-05-13T11:30:53Z</time>
      </trkpt>
      <trkpt lat="45.65325" lon="4.75024">
        <ele>207.78</ele>
        <time>2025-05-13T11:30:55Z</time>
      </trkpt>
      <trkpt lat="45.65324" lon="4.75012">
        <ele>207.3</ele>
        <time>2025-05-13T11:31:00Z</time>
      </trkpt>
      <trkpt lat="45.65322" lon="4.74986">
        <ele>208.26</ele>
        <time>2025-05-13T11:31:10Z</time>
      </trkpt>
      <trkpt lat="45.6532" lon="4.74984">
        <ele>208.74</ele>
        <time>2025-05-13T11:31:11Z</time>
      </trkpt>
      <trkpt lat="45.65318" lon="4.74983">
        <ele>208.74</ele>
        <time>2025-05-13T11:31:12Z</time>
      </trkpt>
      <trkpt lat="45.65316" lon="4.74982">
        <ele>208.74</ele>
        <time>2025-05-13T11:31:13Z</time>
      </trkpt>
      <trkpt lat="45.65313" lon="4.7498">
        <ele>208.74</ele>
        <time>2025-05-13T11:31:14Z</time>
      </trkpt>
      <trkpt lat="45.65261" lon="4.74946">
        <ele>208.26</ele>
        <time>2025-05-13T11:31:29Z</time>
      </trkpt>
      <trkpt lat="45.65211" lon="4.74909">
        <ele>207.78</ele>
        <time>2025-05-13T11:31:40Z</time>
      </trkpt>
      <trkpt lat="45.652" lon="4.74904">
        <ele>207.78</ele>
        <time>2025-05-13T11:31:42Z</time>
      </trkpt>
      <trkpt lat="45.65194" lon="4.74904">
        <ele>207.3</ele>
        <time>2025-05-13T11:31:43Z</time>
      </trkpt>
      <trkpt lat="45.65187" lon="4.74906">
        <ele>207.78</ele>
        <time>2025-05-13T11:31:44Z</time>
      </trkpt>
      <trkpt lat="45.65182" lon="4.7491">
        <ele>207.78</ele>
        <time>2025-05-13T11:31:45Z</time>
      </trkpt>
      <trkpt lat="45.65177" lon="4.74916">
        <ele>207.3</ele>
        <time>2025-05-13T11:31:46Z</time>
      </trkpt>
      <trkpt lat="45.65174" lon="4.74924">
        <ele>207.3</ele>
        <time>2025-05-13T11:31:47Z</time>
      </trkpt>
      <trkpt lat="45.65171" lon="4.74932">
        <ele>206.82</ele>
        <time>2025-05-13T11:31:48Z</time>
      </trkpt>
      <trkpt lat="45.65168" lon="4.74941">
        <ele>207.3</ele>
        <time>2025-05-13T11:31:49Z</time>
      </trkpt>
      <trkpt lat="45.65166" lon="4.7495">
        <ele>206.82</ele>
        <time>2025-05-13T11:31:50Z</time>
      </trkpt>
      <trkpt lat="45.65134" lon="4.75091">
        <ele>206.34</ele>
        <time>2025-05-13T11:32:05Z</time>
      </trkpt>
      <trkpt lat="45.65131" lon="4.75099">
        <ele>206.34</ele>
        <time>2025-05-13T11:32:06Z</time>
      </trkpt>
      <trkpt lat="45.65126" lon="4.75107">
        <ele>205.86</ele>
        <time>2025-05-13T11:32:07Z</time>
      </trkpt>
      <trkpt lat="45.6512" lon="4.75112">
        <ele>206.34</ele>
        <time>2025-05-13T11:32:08Z</time>
      </trkpt>
      <trkpt lat="45.65113" lon="4.75116">
        <ele>205.86</ele>
        <time>2025-05-13T11:32:09Z</time>
      </trkpt>
      <trkpt lat="45.65105" lon="4.75118">
        <ele>206.34</ele>
        <time>2025-05-13T11:32:10Z</time>
      </trkpt>
      <trkpt lat="45.65098" lon="4.75119">
        <ele>205.86</ele>
        <time>2025-05-13T11:32:11Z</time>
      </trkpt>
      <trkpt lat="45.64976" lon="4.75126">
        <ele>204.9</ele>
        <time>2025-05-13T11:32:27Z</time>
      </trkpt>
      <trkpt lat="45.64908" lon="4.75131">
        <ele>204.9</ele>
        <time>2025-05-13T11:32:40Z</time>
      </trkpt>
      <trkpt lat="45.64829" lon="4.75137">
        <ele>204.42</ele>
        <time>2025-05-13T11:32:57Z</time>
      </trkpt>
      <trkpt lat="45.64742" lon="4.75144">
        <ele>204.9</ele>
        <time>2025-05-13T11:33:15Z</time>
      </trkpt>
      <trkpt lat="45.64623" lon="4.75154">
        <ele>203.94</ele>
        <time>2025-05-13T11:33:36Z</time>
      </trkpt>
      <trkpt lat="45.64489" lon="4.75167">
        <ele>200.57</ele>
        <time>2025-05-13T11:33:55Z</time>
      </trkpt>
      <trkpt lat="45.64347" lon="4.75192">
        <ele>198.17</ele>
        <time>2025-05-13T11:34:13Z</time>
      </trkpt>
      <trkpt lat="45.64229" lon="4.75264">
        <ele>196.25</ele>
        <time>2025-05-13T11:34:28Z</time>
      </trkpt>
      <trkpt lat="45.64144" lon="4.75363">
        <ele>194.32</ele>
        <time>2025-05-13T11:34:41Z</time>
      </trkpt>
      <trkpt lat="45.64029" lon="4.75514">
        <ele>192.88</ele>
        <time>2025-05-13T11:35:00Z</time>
      </trkpt>
      <trkpt lat="45.64019" lon="4.75528">
        <ele>192.4</ele>
        <time>2025-05-13T11:35:02Z</time>
      </trkpt>
      <trkpt lat="45.64013" lon="4.75533">
        <ele>192.4</ele>
        <time>2025-05-13T11:35:03Z</time>
      </trkpt>
      <trkpt lat="45.64002" lon="4.75545">
        <ele>191.92</ele>
        <time>2025-05-13T11:35:05Z</time>
      </trkpt>
      <trkpt lat="45.63998" lon="4.75551">
        <ele>192.4</ele>
        <time>2025-05-13T11:35:06Z</time>
      </trkpt>
      <trkpt lat="45.63995" lon="4.75559">
        <ele>192.4</ele>
        <time>2025-05-13T11:35:07Z</time>
      </trkpt>
      <trkpt lat="45.63992" lon="4.75567">
        <ele>191.92</ele>
        <time>2025-05-13T11:35:08Z</time>
      </trkpt>
      <trkpt lat="45.63988" lon="4.75574">
        <ele>191.92</ele>
        <time>2025-05-13T11:35:09Z</time>
      </trkpt>
      <trkpt lat="45.63983" lon="4.7558">
        <ele>192.4</ele>
        <time>2025-05-13T11:35:10Z</time>
      </trkpt>
      <trkpt lat="45.63978" lon="4.75586">
        <ele>192.88</ele>
        <time>2025-05-13T11:35:11Z</time>
      </trkpt>
      <trkpt lat="45.63972" lon="4.75591">
        <ele>192.4</ele>
        <time>2025-05-13T11:35:12Z</time>
      </trkpt>
      <trkpt lat="45.63961" lon="4.75601">
        <ele>192.4</ele>
        <time>2025-05-13T11:35:14Z</time>
      </trkpt>
      <trkpt lat="45.63955" lon="4.75604">
        <ele>192.88</ele>
        <time>2025-05-13T11:35:15Z</time>
      </trkpt>
      <trkpt lat="45.63948" lon="4.75607">
        <ele>192.4</ele>
        <time>2025-05-13T11:35:16Z</time>
      </trkpt>
      <trkpt lat="45.63854" lon="4.7562">
        <ele>190.96</ele>
        <time>2025-05-13T11:35:28Z</time>
      </trkpt>
      <trkpt lat="45.63715" lon="4.75615">
        <ele>188.56</ele>
        <time>2025-05-13T11:35:45Z</time>
      </trkpt>
      <trkpt lat="45.63586" lon="4.75597">
        <ele>187.11</ele>
        <time>2025-05-13T11:36:02Z</time>
      </trkpt>
      <trkpt lat="45.6346" lon="4.75574">
        <ele>188.08</ele>
        <time>2025-05-13T11:36:20Z</time>
      </trkpt>
      <trkpt lat="45.63347" lon="4.75612">
        <ele>187.11</ele>
        <time>2025-05-13T11:36:36Z</time>
      </trkpt>
      <trkpt lat="45.63187" lon="4.75682">
        <ele>186.15</ele>
        <time>2025-05-13T11:36:57Z</time>
      </trkpt>
      <trkpt lat="45.63062" lon="4.7574">
        <ele>184.71</ele>
        <time>2025-05-13T11:37:13Z</time>
      </trkpt>
      <trkpt lat="45.62955" lon="4.7581">
        <ele>183.75</ele>
        <time>2025-05-13T11:37:29Z</time>
      </trkpt>
      <trkpt lat="45.62867" lon="4.75886">
        <ele>182.79</ele>
        <time>2025-05-13T11:37:43Z</time>
      </trkpt>
      <trkpt lat="45.62748" lon="4.75979">
        <ele>181.83</ele>
        <time>2025-05-13T11:38:00Z</time>
      </trkpt>
      <trkpt lat="45.62633" lon="4.7607">
        <ele>180.87</ele>
        <time>2025-05-13T11:38:16Z</time>
      </trkpt>
      <trkpt lat="45.62512" lon="4.76173">
        <ele>180.38</ele>
        <time>2025-05-13T11:38:32Z</time>
      </trkpt>
      <trkpt lat="45.62384" lon="4.76305">
        <ele>179.9</ele>
        <time>2025-05-13T11:38:51Z</time>
      </trkpt>
      <trkpt lat="45.62274" lon="4.76427">
        <ele>178.46</ele>
        <time>2025-05-13T11:39:08Z</time>
      </trkpt>
      <trkpt lat="45.6219" lon="4.7652">
        <ele>178.46</ele>
        <time>2025-05-13T11:39:22Z</time>
      </trkpt>
      <trkpt lat="45.62098" lon="4.766">
        <ele>177.5</ele>
        <time>2025-05-13T11:39:37Z</time>
      </trkpt>
      <trkpt lat="45.61992" lon="4.7666">
        <ele>176.54</ele>
        <time>2025-05-13T11:39:53Z</time>
      </trkpt>
      <trkpt lat="45.61888" lon="4.76712">
        <ele>176.06</ele>
        <time>2025-05-13T11:40:08Z</time>
      </trkpt>
      <trkpt lat="45.61793" lon="4.76763">
        <ele>175.58</ele>
        <time>2025-05-13T11:40:22Z</time>
      </trkpt>
      <trkpt lat="45.61769" lon="4.7679">
        <ele>175.58</ele>
        <time>2025-05-13T11:40:26Z</time>
      </trkpt>
      <trkpt lat="45.61751" lon="4.7682">
        <ele>174.62</ele>
        <time>2025-05-13T11:40:30Z</time>
      </trkpt>
      <trkpt lat="45.61745" lon="4.76824">
        <ele>175.1</ele>
        <time>2025-05-13T11:40:31Z</time>
      </trkpt>
      <trkpt lat="45.61739" lon="4.76826">
        <ele>174.62</ele>
        <time>2025-05-13T11:40:32Z</time>
      </trkpt>
      <trkpt lat="45.61733" lon="4.76824">
        <ele>175.1</ele>
        <time>2025-05-13T11:40:33Z</time>
      </trkpt>
      <trkpt lat="45.61728" lon="4.7682">
        <ele>174.62</ele>
        <time>2025-05-13T11:40:34Z</time>
      </trkpt>
      <trkpt lat="45.61722" lon="4.76815">
        <ele>175.1</ele>
        <time>2025-05-13T11:40:35Z</time>
      </trkpt>
      <trkpt lat="45.61717" lon="4.76812">
        <ele>175.1</ele>
        <time>2025-05-13T11:40:36Z</time>
      </trkpt>
      <trkpt lat="45.61711" lon="4.76811">
        <ele>175.1</ele>
        <time>2025-05-13T11:40:37Z</time>
      </trkpt>
      <trkpt lat="45.61705" lon="4.76811">
        <ele>175.1</ele>
        <time>2025-05-13T11:40:38Z</time>
      </trkpt>
      <trkpt lat="45.61699" lon="4.76813">
        <ele>175.58</ele>
        <time>2025-05-13T11:40:39Z</time>
      </trkpt>
      <trkpt lat="45.61693" lon="4.76817">
        <ele>176.06</ele>
        <time>2025-05-13T11:40:40Z</time>
      </trkpt>
      <trkpt lat="45.61686" lon="4.76821">
        <ele>175.1</ele>
        <time>2025-05-13T11:40:41Z</time>
      </trkpt>
      <trkpt lat="45.6168" lon="4.76825">
        <ele>174.62</ele>
        <time>2025-05-13T11:40:42Z</time>
      </trkpt>
      <trkpt lat="45.61673" lon="4.76827">
        <ele>174.62</ele>
        <time>2025-05-13T11:40:43Z</time>
      </trkpt>
      <trkpt lat="45.61652" lon="4.76832">
        <ele>174.62</ele>
        <time>2025-05-13T11:40:46Z</time>
      </trkpt>
      <trkpt lat="45.61538" lon="4.76886">
        <ele>174.14</ele>
        <time>2025-05-13T11:41:03Z</time>
      </trkpt>
      <trkpt lat="45.61426" lon="4.76943">
        <ele>172.69</ele>
        <time>2025-05-13T11:41:19Z</time>
      </trkpt>
      <trkpt lat="45.6129" lon="4.77009">
        <ele>172.21</ele>
        <time>2025-05-13T11:41:38Z</time>
      </trkpt>
      <trkpt lat="45.61178" lon="4.77064">
        <ele>171.73</ele>
        <time>2025-05-13T11:41:55Z</time>
      </trkpt>
      <trkpt lat="45.61052" lon="4.77125">
        <ele>173.17</ele>
        <time>2025-05-13T11:42:14Z</time>
      </trkpt>
      <trkpt lat="45.61045" lon="4.77129">
        <ele>172.69</ele>
        <time>2025-05-13T11:42:15Z</time>
      </trkpt>
      <trkpt lat="45.61032" lon="4.77135">
        <ele>169.81</ele>
        <time>2025-05-13T11:42:17Z</time>
      </trkpt>
      <trkpt lat="45.60956" lon="4.77172">
        <ele>169.81</ele>
        <time>2025-05-13T11:42:31Z</time>
      </trkpt>
      <trkpt lat="45.60898" lon="4.77203">
        <ele>170.77</ele>
        <time>2025-05-13T11:42:44Z</time>
      </trkpt>
      <trkpt lat="45.60817" lon="4.77241">
        <ele>170.29</ele>
        <time>2025-05-13T11:43:00Z</time>
      </trkpt>
      <trkpt lat="45.60749" lon="4.77251">
        <ele>169.81</ele>
        <time>2025-05-13T11:43:15Z</time>
      </trkpt>
      <trkpt lat="45.60745" lon="4.77251">
        <ele>169.81</ele>
        <time>2025-05-13T11:43:27Z</time>
      </trkpt>
      <trkpt lat="45.60732" lon="4.77248">
        <ele>170.29</ele>
        <time>2025-05-13T11:43:55Z</time>
      </trkpt>
      <trkpt lat="45.60671" lon="4.77229">
        <ele>170.29</ele>
        <time>2025-05-13T11:44:08Z</time>
      </trkpt>
      <trkpt lat="45.60552" lon="4.77176">
        <ele>168.85</ele>
        <time>2025-05-13T11:44:28Z</time>
      </trkpt>
      <trkpt lat="45.60436" lon="4.77128">
        <ele>169.33</ele>
        <time>2025-05-13T11:44:47Z</time>
      </trkpt>
      <trkpt lat="45.60319" lon="4.77082">
        <ele>170.77</ele>
        <time>2025-05-13T11:45:07Z</time>
      </trkpt>
      <trkpt lat="45.60219" lon="4.77033">
        <ele>169.33</ele>
        <time>2025-05-13T11:45:23Z</time>
      </trkpt>
      <trkpt lat="45.60109" lon="4.76993">
        <ele>167.89</ele>
        <time>2025-05-13T11:45:40Z</time>
      </trkpt>
      <trkpt lat="45.60063" lon="4.76977">
        <ele>167.41</ele>
        <time>2025-05-13T11:45:51Z</time>
      </trkpt>
      <trkpt lat="45.60014" lon="4.76956">
        <ele>167.89</ele>
        <time>2025-05-13T11:46:02Z</time>
      </trkpt>
      <trkpt lat="45.59957" lon="4.76932">
        <ele>167.89</ele>
        <time>2025-05-13T11:46:16Z</time>
      </trkpt>
      <trkpt lat="45.59922" lon="4.76918">
        <ele>167.41</ele>
        <time>2025-05-13T11:46:26Z</time>
      </trkpt>
      <trkpt lat="45.59888" lon="4.76903">
        <ele>167.89</ele>
        <time>2025-05-13T11:46:32Z</time>
      </trkpt>
      <trkpt lat="45.59884" lon="4.76898">
        <ele>168.37</ele>
        <time>2025-05-13T11:46:33Z</time>
      </trkpt>
      <trkpt lat="45.5988" lon="4.76891">
        <ele>167.89</ele>
        <time>2025-05-13T11:46:34Z</time>
      </trkpt>
      <trkpt lat="45.59877" lon="4.76883">
        <ele>167.89</ele>
        <time>2025-05-13T11:46:35Z</time>
      </trkpt>
      <trkpt lat="45.59875" lon="4.76874">
        <ele>167.89</ele>
        <time>2025-05-13T11:46:36Z</time>
      </trkpt>
      <trkpt lat="45.59872" lon="4.76867">
        <ele>167.89</ele>
        <time>2025-05-13T11:46:37Z</time>
      </trkpt>
      <trkpt lat="45.59869" lon="4.76859">
        <ele>168.37</ele>
        <time>2025-05-13T11:46:38Z</time>
      </trkpt>
      <trkpt lat="45.59837" lon="4.76786">
        <ele>168.37</ele>
        <time>2025-05-13T11:46:48Z</time>
      </trkpt>
      <trkpt lat="45.59833" lon="4.7678">
        <ele>168.37</ele>
        <time>2025-05-13T11:46:49Z</time>
      </trkpt>
      <trkpt lat="45.59828" lon="4.76774">
        <ele>167.89</ele>
        <time>2025-05-13T11:46:50Z</time>
      </trkpt>
      <trkpt lat="45.59804" lon="4.76746">
        <ele>168.37</ele>
        <time>2025-05-13T11:46:55Z</time>
      </trkpt>
      <trkpt lat="45.59741" lon="4.7668">
        <ele>168.85</ele>
        <time>2025-05-13T11:47:08Z</time>
      </trkpt>
      <trkpt lat="45.59736" lon="4.76677">
        <ele>168.37</ele>
        <time>2025-05-13T11:47:09Z</time>
      </trkpt>
      <trkpt lat="45.59731" lon="4.76674">
        <ele>168.37</ele>
        <time>2025-05-13T11:47:10Z</time>
      </trkpt>
      <trkpt lat="45.59725" lon="4.76672">
        <ele>168.85</ele>
        <time>2025-05-13T11:47:11Z</time>
      </trkpt>
      <trkpt lat="45.5972" lon="4.7667">
        <ele>168.85</ele>
        <time>2025-05-13T11:47:12Z</time>
      </trkpt>
      <trkpt lat="45.59714" lon="4.76669">
        <ele>168.85</ele>
        <time>2025-05-13T11:47:13Z</time>
      </trkpt>
      <trkpt lat="45.59708" lon="4.76668">
        <ele>168.85</ele>
        <time>2025-05-13T11:47:14Z</time>
      </trkpt>
      <trkpt lat="45.5961" lon="4.76638">
        <ele>166.93</ele>
        <time>2025-05-13T11:47:30Z</time>
      </trkpt>
      <trkpt lat="45.59535" lon="4.76575">
        <ele>167.89</ele>
        <time>2025-05-13T11:47:44Z</time>
      </trkpt>
      <trkpt lat="45.59515" lon="4.76554">
        <ele>167.41</ele>
        <time>2025-05-13T11:47:48Z</time>
      </trkpt>
      <trkpt lat="45.59417" lon="4.76473">
        <ele>167.41</ele>
        <time>2025-05-13T11:48:07Z</time>
      </trkpt>
      <trkpt lat="45.59327" lon="4.76402">
        <ele>168.37</ele>
        <time>2025-05-13T11:48:26Z</time>
      </trkpt>
      <trkpt lat="45.59244" lon="4.76329">
        <ele>166.93</ele>
        <time>2025-05-13T11:48:45Z</time>
      </trkpt>
      <trkpt lat="45.59167" lon="4.76285">
        <ele>168.37</ele>
        <time>2025-05-13T11:49:02Z</time>
      </trkpt>
      <trkpt lat="45.59117" lon="4.76267">
        <ele>167.89</ele>
        <time>2025-05-13T11:49:13Z</time>
      </trkpt>
      <trkpt lat="45.59088" lon="4.7626">
        <ele>167.89</ele>
        <time>2025-05-13T11:49:19Z</time>
      </trkpt>
      <trkpt lat="45.59084" lon="4.76257">
        <ele>167.89</ele>
        <time>2025-05-13T11:49:20Z</time>
      </trkpt>
      <trkpt lat="45.59026" lon="4.7621">
        <ele>168.85</ele>
        <time>2025-05-13T11:49:34Z</time>
      </trkpt>
      <trkpt lat="45.5901" lon="4.76196">
        <ele>168.85</ele>
        <time>2025-05-13T11:49:44Z</time>
      </trkpt>
      <trkpt lat="45.59005" lon="4.7619">
        <ele>169.81</ele>
        <time>2025-05-13T11:50:07Z</time>
      </trkpt>
      <trkpt lat="45.58992" lon="4.76174">
        <ele>170.29</ele>
        <time>2025-05-13T11:50:14Z</time>
      </trkpt>
      <trkpt lat="45.58981" lon="4.76118">
        <ele>171.73</ele>
        <time>2025-05-13T11:50:26Z</time>
      </trkpt>
      <trkpt lat="45.58952" lon="4.7606">
        <ele>171.73</ele>
        <time>2025-05-13T11:50:40Z</time>
      </trkpt>
      <trkpt lat="45.5892" lon="4.76009">
        <ele>172.69</ele>
        <time>2025-05-13T11:50:54Z</time>
      </trkpt>
      <trkpt lat="45.58887" lon="4.75954">
        <ele>173.66</ele>
        <time>2025-05-13T11:51:08Z</time>
      </trkpt>
      <trkpt lat="45.58871" lon="4.75931">
        <ele>174.14</ele>
        <time>2025-05-13T11:51:22Z</time>
      </trkpt>
      <trkpt lat="45.58871" lon="4.75935">
        <ele>174.14</ele>
        <time>2025-05-13T11:51:45Z</time>
      </trkpt>
      <trkpt lat="45.58865" lon="4.7593">
        <ele>174.14</ele>
        <time>2025-05-13T11:52:11Z</time>
      </trkpt>
      <trkpt lat="45.58847" lon="4.75888">
        <ele>174.14</ele>
        <time>2025-05-13T11:52:21Z</time>
      </trkpt>
      <trkpt lat="45.58844" lon="4.75882">
        <ele>174.14</ele>
        <time>2025-05-13T11:52:22Z</time>
      </trkpt>
      <trkpt lat="45.5878" lon="4.75779">
        <ele>175.1</ele>
        <time>2025-05-13T11:52:40Z</time>
      </trkpt>
      <trkpt lat="45.58747" lon="4.75682">
        <ele>174.62</ele>
        <time>2025-05-13T11:52:56Z</time>
      </trkpt>
      <trkpt lat="45.58717" lon="4.75551">
        <ele>174.62</ele>
        <time>2025-05-13T11:53:17Z</time>
      </trkpt>
      <trkpt lat="45.58683" lon="4.75433">
        <ele>175.58</ele>
        <time>2025-05-13T11:53:36Z</time>
      </trkpt>
      <trkpt lat="45.58667" lon="4.75404">
        <ele>176.54</ele>
        <time>2025-05-13T11:53:47Z</time>
      </trkpt>
      <trkpt lat="45.58654" lon="4.75365">
        <ele>176.54</ele>
        <time>2025-05-13T11:54:04Z</time>
      </trkpt>
      <trkpt lat="45.58653" lon="4.75348">
        <ele>177.02</ele>
        <time>2025-05-13T11:54:07Z</time>
      </trkpt>
      <trkpt lat="45.58652" lon="4.75341">
        <ele>177.5</ele>
        <time>2025-05-13T11:54:08Z</time>
      </trkpt>
      <trkpt lat="45.58649" lon="4.75335">
        <ele>177.02</ele>
        <time>2025-05-13T11:54:09Z</time>
      </trkpt>
      <trkpt lat="45.58646" lon="4.75329">
        <ele>177.5</ele>
        <time>2025-05-13T11:54:10Z</time>
      </trkpt>
      <trkpt lat="45.58643" lon="4.75324">
        <ele>177.98</ele>
        <time>2025-05-13T11:54:11Z</time>
      </trkpt>
      <trkpt lat="45.5864" lon="4.75319">
        <ele>177.02</ele>
        <time>2025-05-13T11:54:12Z</time>
      </trkpt>
      <trkpt lat="45.58637" lon="4.75315">
        <ele>177.5</ele>
        <time>2025-05-13T11:54:13Z</time>
      </trkpt>
      <trkpt lat="45.58634" lon="4.75309">
        <ele>177.5</ele>
        <time>2025-05-13T11:54:14Z</time>
      </trkpt>
      <trkpt lat="45.58629" lon="4.75296">
        <ele>177.5</ele>
        <time>2025-05-13T11:54:16Z</time>
      </trkpt>
      <trkpt lat="45.58627" lon="4.75288">
        <ele>177.02</ele>
        <time>2025-05-13T11:54:17Z</time>
      </trkpt>
      <trkpt lat="45.58596" lon="4.75166">
        <ele>177.98</ele>
        <time>2025-05-13T11:54:32Z</time>
      </trkpt>
      <trkpt lat="45.58558" lon="4.7507">
        <ele>179.42</ele>
        <time>2025-05-13T11:54:47Z</time>
      </trkpt>
      <trkpt lat="45.58516" lon="4.7495">
        <ele>179.9</ele>
        <time>2025-05-13T11:55:05Z</time>
      </trkpt>
      <trkpt lat="45.58497" lon="4.74837">
        <ele>180.87</ele>
        <time>2025-05-13T11:55:20Z</time>
      </trkpt>
      <trkpt lat="45.5847" lon="4.74761">
        <ele>181.35</ele>
        <time>2025-05-13T11:55:31Z</time>
      </trkpt>
      <trkpt lat="45.58423" lon="4.74658">
        <ele>182.31</ele>
        <time>2025-05-13T11:55:47Z</time>
      </trkpt>
      <trkpt lat="45.5838" lon="4.7456">
        <ele>182.31</ele>
        <time>2025-05-13T11:56:02Z</time>
      </trkpt>
      <trkpt lat="45.5837" lon="4.74534">
        <ele>182.79</ele>
        <time>2025-05-13T11:56:06Z</time>
      </trkpt>
      <trkpt lat="45.58341" lon="4.74433">
        <ele>184.23</ele>
        <time>2025-05-13T11:56:20Z</time>
      </trkpt>
      <trkpt lat="45.5832" lon="4.7431">
        <ele>183.27</ele>
        <time>2025-05-13T11:56:35Z</time>
      </trkpt>
      <trkpt lat="45.58289" lon="4.74151">
        <ele>182.79</ele>
        <time>2025-05-13T11:56:52Z</time>
      </trkpt>
      <trkpt lat="45.58257" lon="4.74005">
        <ele>182.31</ele>
        <time>2025-05-13T11:57:06Z</time>
      </trkpt>
      <trkpt lat="45.58193" lon="4.73869">
        <ele>182.79</ele>
        <time>2025-05-13T11:57:22Z</time>
      </trkpt>
      <trkpt lat="45.5813" lon="4.7374">
        <ele>182.31</ele>
        <time>2025-05-13T11:57:40Z</time>
      </trkpt>
      <trkpt lat="45.58108" lon="4.73693">
        <ele>182.79</ele>
        <time>2025-05-13T11:57:47Z</time>
      </trkpt>
      <trkpt lat="45.58104" lon="4.73686">
        <ele>182.79</ele>
        <time>2025-05-13T11:57:48Z</time>
      </trkpt>
      <trkpt lat="45.58043" lon="4.73565">
        <ele>183.75</ele>
        <time>2025-05-13T11:58:06Z</time>
      </trkpt>
      <trkpt lat="45.57981" lon="4.73439">
        <ele>183.75</ele>
        <time>2025-05-13T11:58:24Z</time>
      </trkpt>
      <trkpt lat="45.57949" lon="4.73365">
        <ele>184.23</ele>
        <time>2025-05-13T11:58:34Z</time>
      </trkpt>
      <trkpt lat="45.57947" lon="4.73357">
        <ele>184.71</ele>
        <time>2025-05-13T11:58:35Z</time>
      </trkpt>
      <trkpt lat="45.57946" lon="4.73349">
        <ele>184.71</ele>
        <time>2025-05-13T11:58:36Z</time>
      </trkpt>
      <trkpt lat="45.57945" lon="4.73339">
        <ele>185.19</ele>
        <time>2025-05-13T11:58:37Z</time>
      </trkpt>
      <trkpt lat="45.57944" lon="4.7333">
        <ele>185.19</ele>
        <time>2025-05-13T11:58:38Z</time>
      </trkpt>
      <trkpt lat="45.57945" lon="4.73321">
        <ele>185.19</ele>
        <time>2025-05-13T11:58:39Z</time>
      </trkpt>
      <trkpt lat="45.57945" lon="4.73312">
        <ele>184.71</ele>
        <time>2025-05-13T11:58:40Z</time>
      </trkpt>
      <trkpt lat="45.57946" lon="4.73302">
        <ele>184.71</ele>
        <time>2025-05-13T11:58:41Z</time>
      </trkpt>
      <trkpt lat="45.57948" lon="4.73293">
        <ele>184.71</ele>
        <time>2025-05-13T11:58:42Z</time>
      </trkpt>
      <trkpt lat="45.57968" lon="4.73167">
        <ele>186.15</ele>
        <time>2025-05-13T11:58:57Z</time>
      </trkpt>
      <trkpt lat="45.57992" lon="4.73038">
        <ele>188.56</ele>
        <time>2025-05-13T11:59:14Z</time>
      </trkpt>
      <trkpt lat="45.58031" lon="4.72905">
        <ele>188.56</ele>
        <time>2025-05-13T11:59:33Z</time>
      </trkpt>
      <trkpt lat="45.58059" lon="4.72777">
        <ele>189.52</ele>
        <time>2025-05-13T11:59:50Z</time>
      </trkpt>
      <trkpt lat="45.58055" lon="4.72738">
        <ele>189.52</ele>
        <time>2025-05-13T11:59:55Z</time>
      </trkpt>
      <trkpt lat="45.58054" lon="4.7273">
        <ele>190</ele>
        <time>2025-05-13T11:59:56Z</time>
      </trkpt>
      <trkpt lat="45.58007" lon="4.72613">
        <ele>190</ele>
        <time>2025-05-13T12:00:12Z</time>
      </trkpt>
      <trkpt lat="45.57966" lon="4.72494">
        <ele>190.48</ele>
        <time>2025-05-13T12:00:28Z</time>
      </trkpt>
      <trkpt lat="45.57918" lon="4.72385">
        <ele>190.96</ele>
        <time>2025-05-13T12:00:43Z</time>
      </trkpt>
      <trkpt lat="45.57887" lon="4.72349">
        <ele>191.44</ele>
        <time>2025-05-13T12:00:49Z</time>
      </trkpt>
      <trkpt lat="45.57797" lon="4.72294">
        <ele>191.44</ele>
        <time>2025-05-13T12:01:04Z</time>
      </trkpt>
      <trkpt lat="45.57774" lon="4.72276">
        <ele>190.96</ele>
        <time>2025-05-13T12:01:08Z</time>
      </trkpt>
      <trkpt lat="45.57768" lon="4.7227">
        <ele>190.96</ele>
        <time>2025-05-13T12:01:09Z</time>
      </trkpt>
      <trkpt lat="45.57745" lon="4.7224">
        <ele>190.96</ele>
        <time>2025-05-13T12:01:14Z</time>
      </trkpt>
      <trkpt lat="45.57742" lon="4.72231">
        <ele>190.96</ele>
        <time>2025-05-13T12:01:15Z</time>
      </trkpt>
      <trkpt lat="45.57733" lon="4.72205">
        <ele>190.96</ele>
        <time>2025-05-13T12:01:18Z</time>
      </trkpt>
      <trkpt lat="45.5773" lon="4.72196">
        <ele>190.96</ele>
        <time>2025-05-13T12:01:19Z</time>
      </trkpt>
      <trkpt lat="45.57729" lon="4.72186">
        <ele>190.96</ele>
        <time>2025-05-13T12:01:20Z</time>
      </trkpt>
      <trkpt lat="45.57706" lon="4.72072">
        <ele>191.44</ele>
        <time>2025-05-13T12:01:33Z</time>
      </trkpt>
      <trkpt lat="45.57662" lon="4.71961">
        <ele>190.96</ele>
        <time>2025-05-13T12:01:47Z</time>
      </trkpt>
      <trkpt lat="45.57604" lon="4.71846">
        <ele>191.44</ele>
        <time>2025-05-13T12:02:03Z</time>
      </trkpt>
      <trkpt lat="45.57591" lon="4.71825">
        <ele>192.4</ele>
        <time>2025-05-13T12:02:06Z</time>
      </trkpt>
      <trkpt lat="45.57586" lon="4.7182">
        <ele>191.92</ele>
        <time>2025-05-13T12:02:07Z</time>
      </trkpt>
      <trkpt lat="45.57581" lon="4.71815">
        <ele>191.44</ele>
        <time>2025-05-13T12:02:08Z</time>
      </trkpt>
      <trkpt lat="45.57574" lon="4.71812">
        <ele>191.92</ele>
        <time>2025-05-13T12:02:09Z</time>
      </trkpt>
      <trkpt lat="45.57568" lon="4.71808">
        <ele>191.44</ele>
        <time>2025-05-13T12:02:10Z</time>
      </trkpt>
      <trkpt lat="45.57522" lon="4.71778">
        <ele>191.44</ele>
        <time>2025-05-13T12:02:18Z</time>
      </trkpt>
      <trkpt lat="45.57518" lon="4.71773">
        <ele>191.44</ele>
        <time>2025-05-13T12:02:19Z</time>
      </trkpt>
      <trkpt lat="45.57501" lon="4.71738">
        <ele>191.44</ele>
        <time>2025-05-13T12:02:24Z</time>
      </trkpt>
      <trkpt lat="45.57499" lon="4.71728">
        <ele>191.92</ele>
        <time>2025-05-13T12:02:25Z</time>
      </trkpt>
      <trkpt lat="45.57498" lon="4.71718">
        <ele>191.92</ele>
        <time>2025-05-13T12:02:26Z</time>
      </trkpt>
      <trkpt lat="45.57497" lon="4.71709">
        <ele>192.4</ele>
        <time>2025-05-13T12:02:27Z</time>
      </trkpt>
      <trkpt lat="45.57497" lon="4.71699">
        <ele>191.44</ele>
        <time>2025-05-13T12:02:28Z</time>
      </trkpt>
      <trkpt lat="45.57497" lon="4.7169">
        <ele>191.92</ele>
        <time>2025-05-13T12:02:29Z</time>
      </trkpt>
      <trkpt lat="45.57498" lon="4.7168">
        <ele>191.92</ele>
        <time>2025-05-13T12:02:30Z</time>
      </trkpt>
      <trkpt lat="45.57499" lon="4.7167">
        <ele>191.92</ele>
        <time>2025-05-13T12:02:31Z</time>
      </trkpt>
      <trkpt lat="45.575" lon="4.71661">
        <ele>192.4</ele>
        <time>2025-05-13T12:02:32Z</time>
      </trkpt>
      <trkpt lat="45.57502" lon="4.71652">
        <ele>191.92</ele>
        <time>2025-05-13T12:02:33Z</time>
      </trkpt>
      <trkpt lat="45.57506" lon="4.71625">
        <ele>192.4</ele>
        <time>2025-05-13T12:02:36Z</time>
      </trkpt>
      <trkpt lat="45.57507" lon="4.71617">
        <ele>192.88</ele>
        <time>2025-05-13T12:02:37Z</time>
      </trkpt>
      <trkpt lat="45.57507" lon="4.716">
        <ele>192.88</ele>
        <time>2025-05-13T12:02:39Z</time>
      </trkpt>
      <trkpt lat="45.57506" lon="4.71592">
        <ele>193.36</ele>
        <time>2025-05-13T12:02:40Z</time>
      </trkpt>
      <trkpt lat="45.57503" lon="4.71576">
        <ele>192.88</ele>
        <time>2025-05-13T12:02:42Z</time>
      </trkpt>
      <trkpt lat="45.57502" lon="4.71568">
        <ele>193.36</ele>
        <time>2025-05-13T12:02:43Z</time>
      </trkpt>
      <trkpt lat="45.57499" lon="4.7156">
        <ele>193.36</ele>
        <time>2025-05-13T12:02:44Z</time>
      </trkpt>
      <trkpt lat="45.57454" lon="4.71453">
        <ele>193.84</ele>
        <time>2025-05-13T12:02:59Z</time>
      </trkpt>
      <trkpt lat="45.5744" lon="4.71405">
        <ele>194.32</ele>
        <time>2025-05-13T12:03:05Z</time>
      </trkpt>
      <trkpt lat="45.57437" lon="4.71397">
        <ele>194.32</ele>
        <time>2025-05-13T12:03:06Z</time>
      </trkpt>
      <trkpt lat="45.57399" lon="4.7135">
        <ele>194.8</ele>
        <time>2025-05-13T12:03:14Z</time>
      </trkpt>
      <trkpt lat="45.57393" lon="4.71348">
        <ele>195.28</ele>
        <time>2025-05-13T12:03:15Z</time>
      </trkpt>
      <trkpt lat="45.57359" lon="4.71343">
        <ele>195.28</ele>
        <time>2025-05-13T12:03:21Z</time>
      </trkpt>
      <trkpt lat="45.57354" lon="4.71344">
        <ele>195.28</ele>
        <time>2025-05-13T12:03:22Z</time>
      </trkpt>
      <trkpt lat="45.57299" lon="4.7133">
        <ele>196.25</ele>
        <time>2025-05-13T12:03:32Z</time>
      </trkpt>
      <trkpt lat="45.57294" lon="4.71327">
        <ele>195.77</ele>
        <time>2025-05-13T12:03:33Z</time>
      </trkpt>
      <trkpt lat="45.57274" lon="4.7131">
        <ele>196.73</ele>
        <time>2025-05-13T12:03:37Z</time>
      </trkpt>
      <trkpt lat="45.57193" lon="4.71215">
        <ele>197.69</ele>
        <time>2025-05-13T12:03:55Z</time>
      </trkpt>
      <trkpt lat="45.57136" lon="4.71146">
        <ele>198.65</ele>
        <time>2025-05-13T12:04:09Z</time>
      </trkpt>
      <trkpt lat="45.57065" lon="4.71069">
        <ele>199.61</ele>
        <time>2025-05-13T12:04:24Z</time>
      </trkpt>
      <trkpt lat="45.56986" lon="4.71002">
        <ele>201.05</ele>
        <time>2025-05-13T12:04:39Z</time>
      </trkpt>
      <trkpt lat="45.56916" lon="4.70918">
        <ele>202.49</ele>
        <time>2025-05-13T12:04:55Z</time>
      </trkpt>
      <trkpt lat="45.56865" lon="4.70827">
        <ele>202.98</ele>
        <time>2025-05-13T12:05:09Z</time>
      </trkpt>
      <trkpt lat="45.56817" lon="4.70712">
        <ele>202.98</ele>
        <time>2025-05-13T12:05:25Z</time>
      </trkpt>
      <trkpt lat="45.56803" lon="4.70654">
        <ele>202.49</ele>
        <time>2025-05-13T12:05:31Z</time>
      </trkpt>
      <trkpt lat="45.56803" lon="4.70643">
        <ele>202.49</ele>
        <time>2025-05-13T12:05:32Z</time>
      </trkpt>
      <trkpt lat="45.56803" lon="4.70632">
        <ele>202.49</ele>
        <time>2025-05-13T12:05:33Z</time>
      </trkpt>
      <trkpt lat="45.56808" lon="4.70578">
        <ele>202.01</ele>
        <time>2025-05-13T12:05:38Z</time>
      </trkpt>
      <trkpt lat="45.56807" lon="4.70567">
        <ele>201.53</ele>
        <time>2025-05-13T12:05:39Z</time>
      </trkpt>
      <trkpt lat="45.56806" lon="4.70557">
        <ele>202.01</ele>
        <time>2025-05-13T12:05:40Z</time>
      </trkpt>
      <trkpt lat="45.56804" lon="4.70547">
        <ele>202.01</ele>
        <time>2025-05-13T12:05:41Z</time>
      </trkpt>
      <trkpt lat="45.56802" lon="4.70538">
        <ele>202.01</ele>
        <time>2025-05-13T12:05:42Z</time>
      </trkpt>
      <trkpt lat="45.56798" lon="4.70529">
        <ele>201.53</ele>
        <time>2025-05-13T12:05:43Z</time>
      </trkpt>
      <trkpt lat="45.56795" lon="4.7052">
        <ele>201.53</ele>
        <time>2025-05-13T12:05:44Z</time>
      </trkpt>
      <trkpt lat="45.5679" lon="4.70513">
        <ele>201.05</ele>
        <time>2025-05-13T12:05:45Z</time>
      </trkpt>
      <trkpt lat="45.56786" lon="4.70506">
        <ele>201.53</ele>
        <time>2025-05-13T12:05:46Z</time>
      </trkpt>
      <trkpt lat="45.56781" lon="4.70499">
        <ele>201.53</ele>
        <time>2025-05-13T12:05:47Z</time>
      </trkpt>
      <trkpt lat="45.56702" lon="4.70404">
        <ele>200.09</ele>
        <time>2025-05-13T12:06:02Z</time>
      </trkpt>
      <trkpt lat="45.56624" lon="4.7032">
        <ele>201.53</ele>
        <time>2025-05-13T12:06:18Z</time>
      </trkpt>
      <trkpt lat="45.56557" lon="4.70278">
        <ele>203.46</ele>
        <time>2025-05-13T12:06:31Z</time>
      </trkpt>
      <trkpt lat="45.56502" lon="4.70272">
        <ele>203.94</ele>
        <time>2025-05-13T12:06:41Z</time>
      </trkpt>
      <trkpt lat="45.56491" lon="4.70269">
        <ele>204.42</ele>
        <time>2025-05-13T12:06:43Z</time>
      </trkpt>
      <trkpt lat="45.56487" lon="4.70265">
        <ele>204.42</ele>
        <time>2025-05-13T12:06:44Z</time>
      </trkpt>
      <trkpt lat="45.56483" lon="4.70261">
        <ele>204.9</ele>
        <time>2025-05-13T12:06:45Z</time>
      </trkpt>
      <trkpt lat="45.56429" lon="4.70172">
        <ele>206.34</ele>
        <time>2025-05-13T12:07:01Z</time>
      </trkpt>
      <trkpt lat="45.5641" lon="4.70129">
        <ele>206.82</ele>
        <time>2025-05-13T12:07:08Z</time>
      </trkpt>
      <trkpt lat="45.56382" lon="4.7006">
        <ele>207.78</ele>
        <time>2025-05-13T12:07:19Z</time>
      </trkpt>
      <trkpt lat="45.5638" lon="4.70044">
        <ele>208.74</ele>
        <time>2025-05-13T12:07:21Z</time>
      </trkpt>
      <trkpt lat="45.5638" lon="4.70036">
        <ele>209.22</ele>
        <time>2025-05-13T12:07:22Z</time>
      </trkpt>
      <trkpt lat="45.56381" lon="4.70029">
        <ele>208.74</ele>
        <time>2025-05-13T12:07:23Z</time>
      </trkpt>
      <trkpt lat="45.56383" lon="4.70022">
        <ele>209.22</ele>
        <time>2025-05-13T12:07:24Z</time>
      </trkpt>
      <trkpt lat="45.56385" lon="4.70017">
        <ele>208.26</ele>
        <time>2025-05-13T12:07:25Z</time>
      </trkpt>
      <trkpt lat="45.56388" lon="4.70011">
        <ele>209.22</ele>
        <time>2025-05-13T12:07:26Z</time>
      </trkpt>
      <trkpt lat="45.56391" lon="4.70006">
        <ele>208.74</ele>
        <time>2025-05-13T12:07:27Z</time>
      </trkpt>
      <trkpt lat="45.56395" lon="4.70001">
        <ele>209.22</ele>
        <time>2025-05-13T12:07:28Z</time>
      </trkpt>
      <trkpt lat="45.56413" lon="4.69971">
        <ele>210.19</ele>
        <time>2025-05-13T12:07:34Z</time>
      </trkpt>
      <trkpt lat="45.56432" lon="4.69899">
        <ele>210.67</ele>
        <time>2025-05-13T12:07:45Z</time>
      </trkpt>
      <trkpt lat="45.56433" lon="4.69892">
        <ele>210.67</ele>
        <time>2025-05-13T12:07:46Z</time>
      </trkpt>
      <trkpt lat="45.5643" lon="4.69796">
        <ele>212.11</ele>
        <time>2025-05-13T12:08:01Z</time>
      </trkpt>
      <trkpt lat="45.5642" lon="4.69736">
        <ele>212.11</ele>
        <time>2025-05-13T12:08:11Z</time>
      </trkpt>
      <trkpt lat="45.5642" lon="4.6973">
        <ele>212.59</ele>
        <time>2025-05-13T12:08:12Z</time>
      </trkpt>
      <trkpt lat="45.56409" lon="4.69662">
        <ele>213.07</ele>
        <time>2025-05-13T12:08:23Z</time>
      </trkpt>
      <trkpt lat="45.56407" lon="4.69657">
        <ele>213.07</ele>
        <time>2025-05-13T12:08:24Z</time>
      </trkpt>
      <trkpt lat="45.56388" lon="4.69609">
        <ele>212.59</ele>
        <time>2025-05-13T12:08:32Z</time>
      </trkpt>
      <trkpt lat="45.56359" lon="4.69562">
        <ele>212.59</ele>
        <time>2025-05-13T12:08:41Z</time>
      </trkpt>
      <trkpt lat="45.56355" lon="4.69558">
        <ele>213.07</ele>
        <time>2025-05-13T12:08:42Z</time>
      </trkpt>
      <trkpt lat="45.56352" lon="4.69554">
        <ele>213.55</ele>
        <time>2025-05-13T12:08:43Z</time>
      </trkpt>
      <trkpt lat="45.56336" lon="4.69538">
        <ele>213.55</ele>
        <time>2025-05-13T12:08:47Z</time>
      </trkpt>
      <trkpt lat="45.56274" lon="4.69492">
        <ele>214.99</ele>
        <time>2025-05-13T12:09:03Z</time>
      </trkpt>
      <trkpt lat="45.56205" lon="4.69464">
        <ele>215.47</ele>
        <time>2025-05-13T12:09:19Z</time>
      </trkpt>
      <trkpt lat="45.56201" lon="4.69462">
        <ele>215.47</ele>
        <time>2025-05-13T12:09:20Z</time>
      </trkpt>
      <trkpt lat="45.56138" lon="4.69419">
        <ele>214.99</ele>
        <time>2025-05-13T12:09:35Z</time>
      </trkpt>
      <trkpt lat="45.56123" lon="4.69403">
        <ele>215.47</ele>
        <time>2025-05-13T12:09:39Z</time>
      </trkpt>
      <trkpt lat="45.56119" lon="4.69399">
        <ele>215.47</ele>
        <time>2025-05-13T12:09:40Z</time>
      </trkpt>
      <trkpt lat="45.56098" lon="4.69367">
        <ele>215.95</ele>
        <time>2025-05-13T12:09:47Z</time>
      </trkpt>
      <trkpt lat="45.56094" lon="4.69363">
        <ele>215.95</ele>
        <time>2025-05-13T12:09:48Z</time>
      </trkpt>
      <trkpt lat="45.56038" lon="4.69288">
        <ele>216.91</ele>
        <time>2025-05-13T12:10:04Z</time>
      </trkpt>
      <trkpt lat="45.55986" lon="4.69201">
        <ele>217.4</ele>
        <time>2025-05-13T12:10:22Z</time>
      </trkpt>
      <trkpt lat="45.55969" lon="4.69175">
        <ele>217.88</ele>
        <time>2025-05-13T12:10:28Z</time>
      </trkpt>
      <trkpt lat="45.55936" lon="4.69086">
        <ele>218.84</ele>
        <time>2025-05-13T12:10:44Z</time>
      </trkpt>
      <trkpt lat="45.55935" lon="4.6908">
        <ele>218.36</ele>
        <time>2025-05-13T12:10:45Z</time>
      </trkpt>
      <trkpt lat="45.55918" lon="4.68961">
        <ele>217.88</ele>
        <time>2025-05-13T12:11:02Z</time>
      </trkpt>
      <trkpt lat="45.5588" lon="4.68848">
        <ele>216.43</ele>
        <time>2025-05-13T12:11:17Z</time>
      </trkpt>
      <trkpt lat="45.5585" lon="4.68693">
        <ele>216.43</ele>
        <time>2025-05-13T12:11:34Z</time>
      </trkpt>
      <trkpt lat="45.55844" lon="4.68657">
        <ele>215.95</ele>
        <time>2025-05-13T12:11:38Z</time>
      </trkpt>
      <trkpt lat="45.55841" lon="4.68649">
        <ele>215.95</ele>
        <time>2025-05-13T12:11:39Z</time>
      </trkpt>
      <trkpt lat="45.55837" lon="4.68641">
        <ele>216.43</ele>
        <time>2025-05-13T12:11:40Z</time>
      </trkpt>
      <trkpt lat="45.55779" lon="4.68539">
        <ele>216.43</ele>
        <time>2025-05-13T12:11:54Z</time>
      </trkpt>
      <trkpt lat="45.55722" lon="4.68412">
        <ele>216.43</ele>
        <time>2025-05-13T12:12:11Z</time>
      </trkpt>
      <trkpt lat="45.55659" lon="4.68302">
        <ele>215.95</ele>
        <time>2025-05-13T12:12:28Z</time>
      </trkpt>
      <trkpt lat="45.55604" lon="4.68209">
        <ele>215.95</ele>
        <time>2025-05-13T12:12:43Z</time>
      </trkpt>
      <trkpt lat="45.55563" lon="4.68152">
        <ele>215.95</ele>
        <time>2025-05-13T12:12:53Z</time>
      </trkpt>
      <trkpt lat="45.55541" lon="4.68141">
        <ele>215.95</ele>
        <time>2025-05-13T12:12:57Z</time>
      </trkpt>
      <trkpt lat="45.55455" lon="4.6814">
        <ele>215.95</ele>
        <time>2025-05-13T12:13:12Z</time>
      </trkpt>
      <trkpt lat="45.55434" lon="4.68141">
        <ele>216.43</ele>
        <time>2025-05-13T12:13:16Z</time>
      </trkpt>
      <trkpt lat="45.5537" lon="4.6814">
        <ele>217.4</ele>
        <time>2025-05-13T12:13:28Z</time>
      </trkpt>
      <trkpt lat="45.55345" lon="4.68134">
        <ele>217.88</ele>
        <time>2025-05-13T12:13:33Z</time>
      </trkpt>
      <trkpt lat="45.55293" lon="4.68111">
        <ele>218.36</ele>
        <time>2025-05-13T12:13:44Z</time>
      </trkpt>
      <trkpt lat="45.55289" lon="4.68108">
        <ele>218.36</ele>
        <time>2025-05-13T12:13:45Z</time>
      </trkpt>
      <trkpt lat="45.55213" lon="4.68071">
        <ele>219.32</ele>
        <time>2025-05-13T12:14:02Z</time>
      </trkpt>
      <trkpt lat="45.55147" lon="4.68034">
        <ele>220.76</ele>
        <time>2025-05-13T12:14:18Z</time>
      </trkpt>
      <trkpt lat="45.5514" lon="4.68026">
        <ele>220.28</ele>
        <time>2025-05-13T12:14:20Z</time>
      </trkpt>
      <trkpt lat="45.55137" lon="4.68022">
        <ele>220.28</ele>
        <time>2025-05-13T12:14:21Z</time>
      </trkpt>
      <trkpt lat="45.55134" lon="4.68017">
        <ele>220.76</ele>
        <time>2025-05-13T12:14:22Z</time>
      </trkpt>
      <trkpt lat="45.55132" lon="4.68011">
        <ele>220.76</ele>
        <time>2025-05-13T12:14:23Z</time>
      </trkpt>
      <trkpt lat="45.5513" lon="4.68005">
        <ele>220.76</ele>
        <time>2025-05-13T12:14:24Z</time>
      </trkpt>
      <trkpt lat="45.55128" lon="4.67998">
        <ele>220.76</ele>
        <time>2025-05-13T12:14:25Z</time>
      </trkpt>
      <trkpt lat="45.55127" lon="4.67991">
        <ele>220.76</ele>
        <time>2025-05-13T12:14:26Z</time>
      </trkpt>
      <trkpt lat="45.55127" lon="4.67984">
        <ele>220.76</ele>
        <time>2025-05-13T12:14:27Z</time>
      </trkpt>
      <trkpt lat="45.55127" lon="4.67971">
        <ele>221.24</ele>
        <time>2025-05-13T12:14:29Z</time>
      </trkpt>
      <trkpt lat="45.55127" lon="4.67964">
        <ele>221.24</ele>
        <time>2025-05-13T12:14:30Z</time>
      </trkpt>
      <trkpt lat="45.55129" lon="4.67957">
        <ele>221.24</ele>
        <time>2025-05-13T12:14:31Z</time>
      </trkpt>
      <trkpt lat="45.5513" lon="4.67951">
        <ele>221.72</ele>
        <time>2025-05-13T12:14:32Z</time>
      </trkpt>
      <trkpt lat="45.55132" lon="4.67945">
        <ele>221.72</ele>
        <time>2025-05-13T12:14:33Z</time>
      </trkpt>
      <trkpt lat="45.55135" lon="4.6794">
        <ele>221.24</ele>
        <time>2025-05-13T12:14:34Z</time>
      </trkpt>
      <trkpt lat="45.55138" lon="4.67935">
        <ele>221.72</ele>
        <time>2025-05-13T12:14:35Z</time>
      </trkpt>
      <trkpt lat="45.55141" lon="4.67931">
        <ele>221.72</ele>
        <time>2025-05-13T12:14:36Z</time>
      </trkpt>
      <trkpt lat="45.55186" lon="4.67879">
        <ele>222.2</ele>
        <time>2025-05-13T12:14:49Z</time>
      </trkpt>
      <trkpt lat="45.55209" lon="4.67852">
        <ele>223.16</ele>
        <time>2025-05-13T12:14:56Z</time>
      </trkpt>
      <trkpt lat="45.55249" lon="4.67769">
        <ele>224.61</ele>
        <time>2025-05-13T12:15:13Z</time>
      </trkpt>
      <trkpt lat="45.55272" lon="4.6767">
        <ele>226.05</ele>
        <time>2025-05-13T12:15:31Z</time>
      </trkpt>
      <trkpt lat="45.55273" lon="4.67664">
        <ele>226.05</ele>
        <time>2025-05-13T12:15:32Z</time>
      </trkpt>
      <trkpt lat="45.55274" lon="4.67635">
        <ele>226.05</ele>
        <time>2025-05-13T12:15:37Z</time>
      </trkpt>
      <trkpt lat="45.55274" lon="4.67629">
        <ele>226.53</ele>
        <time>2025-05-13T12:15:38Z</time>
      </trkpt>
      <trkpt lat="45.5527" lon="4.67606">
        <ele>226.53</ele>
        <time>2025-05-13T12:15:42Z</time>
      </trkpt>
      <trkpt lat="45.55253" lon="4.67564">
        <ele>226.53</ele>
        <time>2025-05-13T12:15:50Z</time>
      </trkpt>
      <trkpt lat="45.55207" lon="4.67492">
        <ele>227.01</ele>
        <time>2025-05-13T12:16:05Z</time>
      </trkpt>
      <trkpt lat="45.55165" lon="4.67421">
        <ele>228.93</ele>
        <time>2025-05-13T12:16:21Z</time>
      </trkpt>
      <trkpt lat="45.55154" lon="4.67404">
        <ele>228.45</ele>
        <time>2025-05-13T12:16:25Z</time>
      </trkpt>
      <trkpt lat="45.55093" lon="4.67347">
        <ele>229.41</ele>
        <time>2025-05-13T12:16:41Z</time>
      </trkpt>
      <trkpt lat="45.55084" lon="4.67342">
        <ele>228.93</ele>
        <time>2025-05-13T12:16:43Z</time>
      </trkpt>
      <trkpt lat="45.55044" lon="4.67324">
        <ele>229.41</ele>
        <time>2025-05-13T12:16:52Z</time>
      </trkpt>
      <trkpt lat="45.55034" lon="4.67323">
        <ele>229.41</ele>
        <time>2025-05-13T12:16:54Z</time>
      </trkpt>
      <trkpt lat="45.55025" lon="4.67323">
        <ele>229.41</ele>
        <time>2025-05-13T12:16:56Z</time>
      </trkpt>
      <trkpt lat="45.55016" lon="4.67324">
        <ele>228.93</ele>
        <time>2025-05-13T12:16:58Z</time>
      </trkpt>
      <trkpt lat="45.55011" lon="4.67326">
        <ele>229.89</ele>
        <time>2025-05-13T12:16:59Z</time>
      </trkpt>
      <trkpt lat="45.55006" lon="4.67329">
        <ele>229.89</ele>
        <time>2025-05-13T12:17:00Z</time>
      </trkpt>
      <trkpt lat="45.54951" lon="4.6734">
        <ele>229.41</ele>
        <time>2025-05-13T12:17:10Z</time>
      </trkpt>
      <trkpt lat="45.54946" lon="4.67339">
        <ele>228.93</ele>
        <time>2025-05-13T12:17:11Z</time>
      </trkpt>
      <trkpt lat="45.54941" lon="4.67338">
        <ele>229.41</ele>
        <time>2025-05-13T12:17:12Z</time>
      </trkpt>
      <trkpt lat="45.54927" lon="4.67331">
        <ele>229.41</ele>
        <time>2025-05-13T12:17:15Z</time>
      </trkpt>
      <trkpt lat="45.54914" lon="4.6732">
        <ele>229.41</ele>
        <time>2025-05-13T12:17:18Z</time>
      </trkpt>
      <trkpt lat="45.5491" lon="4.67316">
        <ele>229.89</ele>
        <time>2025-05-13T12:17:19Z</time>
      </trkpt>
      <trkpt lat="45.54907" lon="4.67311">
        <ele>229.89</ele>
        <time>2025-05-13T12:17:20Z</time>
      </trkpt>
      <trkpt lat="45.54904" lon="4.67306">
        <ele>229.89</ele>
        <time>2025-05-13T12:17:21Z</time>
      </trkpt>
      <trkpt lat="45.54901" lon="4.673">
        <ele>229.89</ele>
        <time>2025-05-13T12:17:22Z</time>
      </trkpt>
      <trkpt lat="45.5489" lon="4.67278">
        <ele>230.85</ele>
        <time>2025-05-13T12:17:26Z</time>
      </trkpt>
      <trkpt lat="45.54888" lon="4.67273">
        <ele>230.85</ele>
        <time>2025-05-13T12:17:27Z</time>
      </trkpt>
      <trkpt lat="45.5485" lon="4.67164">
        <ele>231.81</ele>
        <time>2025-05-13T12:17:45Z</time>
      </trkpt>
      <trkpt lat="45.54844" lon="4.67154">
        <ele>231.81</ele>
        <time>2025-05-13T12:17:47Z</time>
      </trkpt>
      <trkpt lat="45.5484" lon="4.67149">
        <ele>232.3</ele>
        <time>2025-05-13T12:17:48Z</time>
      </trkpt>
      <trkpt lat="45.54835" lon="4.67144">
        <ele>231.81</ele>
        <time>2025-05-13T12:17:49Z</time>
      </trkpt>
      <trkpt lat="45.54818" lon="4.67128">
        <ele>232.3</ele>
        <time>2025-05-13T12:17:53Z</time>
      </trkpt>
      <trkpt lat="45.54736" lon="4.67063">
        <ele>232.3</ele>
        <time>2025-05-13T12:18:11Z</time>
      </trkpt>
      <trkpt lat="45.54695" lon="4.67001">
        <ele>232.78</ele>
        <time>2025-05-13T12:18:23Z</time>
      </trkpt>
      <trkpt lat="45.54693" lon="4.66994">
        <ele>232.3</ele>
        <time>2025-05-13T12:18:24Z</time>
      </trkpt>
      <trkpt lat="45.54692" lon="4.66987">
        <ele>232.3</ele>
        <time>2025-05-13T12:18:25Z</time>
      </trkpt>
      <trkpt lat="45.5469" lon="4.66964">
        <ele>233.26</ele>
        <time>2025-05-13T12:18:28Z</time>
      </trkpt>
      <trkpt lat="45.5469" lon="4.66941">
        <ele>232.78</ele>
        <time>2025-05-13T12:18:31Z</time>
      </trkpt>
      <trkpt lat="45.54692" lon="4.66934">
        <ele>233.26</ele>
        <time>2025-05-13T12:18:32Z</time>
      </trkpt>
      <trkpt lat="45.54693" lon="4.66927">
        <ele>233.26</ele>
        <time>2025-05-13T12:18:33Z</time>
      </trkpt>
      <trkpt lat="45.54701" lon="4.66894">
        <ele>233.74</ele>
        <time>2025-05-13T12:18:38Z</time>
      </trkpt>
      <trkpt lat="45.54703" lon="4.66873">
        <ele>233.74</ele>
        <time>2025-05-13T12:18:41Z</time>
      </trkpt>
      <trkpt lat="45.54699" lon="4.66822">
        <ele>234.22</ele>
        <time>2025-05-13T12:18:48Z</time>
      </trkpt>
      <trkpt lat="45.54697" lon="4.66815">
        <ele>233.74</ele>
        <time>2025-05-13T12:18:49Z</time>
      </trkpt>
      <trkpt lat="45.54694" lon="4.66808">
        <ele>233.74</ele>
        <time>2025-05-13T12:18:50Z</time>
      </trkpt>
      <trkpt lat="45.54655" lon="4.66718">
        <ele>233.74</ele>
        <time>2025-05-13T12:19:04Z</time>
      </trkpt>
      <trkpt lat="45.54623" lon="4.66666">
        <ele>234.7</ele>
        <time>2025-05-13T12:19:14Z</time>
      </trkpt>
      <trkpt lat="45.54609" lon="4.66651">
        <ele>235.18</ele>
        <time>2025-05-13T12:19:18Z</time>
      </trkpt>
      <trkpt lat="45.54565" lon="4.66612">
        <ele>235.18</ele>
        <time>2025-05-13T12:19:29Z</time>
      </trkpt>
      <trkpt lat="45.5456" lon="4.66609">
        <ele>235.18</ele>
        <time>2025-05-13T12:19:30Z</time>
      </trkpt>
      <trkpt lat="45.54546" lon="4.66603">
        <ele>235.66</ele>
        <time>2025-05-13T12:19:33Z</time>
      </trkpt>
      <trkpt lat="45.54473" lon="4.66597">
        <ele>234.7</ele>
        <time>2025-05-13T12:19:48Z</time>
      </trkpt>
      <trkpt lat="45.54444" lon="4.66591">
        <ele>235.18</ele>
        <time>2025-05-13T12:19:54Z</time>
      </trkpt>
      <trkpt lat="45.5444" lon="4.66589">
        <ele>234.7</ele>
        <time>2025-05-13T12:19:55Z</time>
      </trkpt>
      <trkpt lat="45.54436" lon="4.66586">
        <ele>235.18</ele>
        <time>2025-05-13T12:19:56Z</time>
      </trkpt>
      <trkpt lat="45.54427" lon="4.66579">
        <ele>234.7</ele>
        <time>2025-05-13T12:19:58Z</time>
      </trkpt>
      <trkpt lat="45.54423" lon="4.66575">
        <ele>234.22</ele>
        <time>2025-05-13T12:19:59Z</time>
      </trkpt>
      <trkpt lat="45.5442" lon="4.6657">
        <ele>234.22</ele>
        <time>2025-05-13T12:20:00Z</time>
      </trkpt>
      <trkpt lat="45.54417" lon="4.66564">
        <ele>234.7</ele>
        <time>2025-05-13T12:20:01Z</time>
      </trkpt>
      <trkpt lat="45.54416" lon="4.66555">
        <ele>234.7</ele>
        <time>2025-05-13T12:20:02Z</time>
      </trkpt>
      <trkpt lat="45.54414" lon="4.66547">
        <ele>234.7</ele>
        <time>2025-05-13T12:20:03Z</time>
      </trkpt>
      <trkpt lat="45.54414" lon="4.66538">
        <ele>234.7</ele>
        <time>2025-05-13T12:20:04Z</time>
      </trkpt>
      <trkpt lat="45.54413" lon="4.6653">
        <ele>234.7</ele>
        <time>2025-05-13T12:20:05Z</time>
      </trkpt>
      <trkpt lat="45.54413" lon="4.66521">
        <ele>235.18</ele>
        <time>2025-05-13T12:20:06Z</time>
      </trkpt>
      <trkpt lat="45.54406" lon="4.6637">
        <ele>235.18</ele>
        <time>2025-05-13T12:20:25Z</time>
      </trkpt>
      <trkpt lat="45.54404" lon="4.6634">
        <ele>235.18</ele>
        <time>2025-05-13T12:20:29Z</time>
      </trkpt>
      <trkpt lat="45.54408" lon="4.66185">
        <ele>234.7</ele>
        <time>2025-05-13T12:20:49Z</time>
      </trkpt>
      <trkpt lat="45.5441" lon="4.66178">
        <ele>235.18</ele>
        <time>2025-05-13T12:20:50Z</time>
      </trkpt>
      <trkpt lat="45.54412" lon="4.66171">
        <ele>235.18</ele>
        <time>2025-05-13T12:20:51Z</time>
      </trkpt>
      <trkpt lat="45.54437" lon="4.66088">
        <ele>235.66</ele>
        <time>2025-05-13T12:21:03Z</time>
      </trkpt>
      <trkpt lat="45.54438" lon="4.66081">
        <ele>235.66</ele>
        <time>2025-05-13T12:21:04Z</time>
      </trkpt>
      <trkpt lat="45.54438" lon="4.66073">
        <ele>235.66</ele>
        <time>2025-05-13T12:21:05Z</time>
      </trkpt>
      <trkpt lat="45.54439" lon="4.66065">
        <ele>236.14</ele>
        <time>2025-05-13T12:21:06Z</time>
      </trkpt>
      <trkpt lat="45.54438" lon="4.66058">
        <ele>235.66</ele>
        <time>2025-05-13T12:21:07Z</time>
      </trkpt>
      <trkpt lat="45.54432" lon="4.65966">
        <ele>235.66</ele>
        <time>2025-05-13T12:21:19Z</time>
      </trkpt>
      <trkpt lat="45.54431" lon="4.65958">
        <ele>235.66</ele>
        <time>2025-05-13T12:21:20Z</time>
      </trkpt>
      <trkpt lat="45.54431" lon="4.65951">
        <ele>235.66</ele>
        <time>2025-05-13T12:21:21Z</time>
      </trkpt>
      <trkpt lat="45.54413" lon="4.65828">
        <ele>236.14</ele>
        <time>2025-05-13T12:21:38Z</time>
      </trkpt>
      <trkpt lat="45.54398" lon="4.65718">
        <ele>237.58</ele>
        <time>2025-05-13T12:21:56Z</time>
      </trkpt>
      <trkpt lat="45.54363" lon="4.65624">
        <ele>238.54</ele>
        <time>2025-05-13T12:22:13Z</time>
      </trkpt>
      <trkpt lat="45.54316" lon="4.65532">
        <ele>239.99</ele>
        <time>2025-05-13T12:22:31Z</time>
      </trkpt>
      <trkpt lat="45.54281" lon="4.65436">
        <ele>239.99</ele>
        <time>2025-05-13T12:22:48Z</time>
      </trkpt>
      <trkpt lat="45.54281" lon="4.65429">
        <ele>240.95</ele>
        <time>2025-05-13T12:22:49Z</time>
      </trkpt>
      <trkpt lat="45.54282" lon="4.65422">
        <ele>240.95</ele>
        <time>2025-05-13T12:22:50Z</time>
      </trkpt>
      <trkpt lat="45.54283" lon="4.65415">
        <ele>240.47</ele>
        <time>2025-05-13T12:22:51Z</time>
      </trkpt>
      <trkpt lat="45.54284" lon="4.65408">
        <ele>241.43</ele>
        <time>2025-05-13T12:22:52Z</time>
      </trkpt>
      <trkpt lat="45.54285" lon="4.65401">
        <ele>240.95</ele>
        <time>2025-05-13T12:22:53Z</time>
      </trkpt>
      <trkpt lat="45.54309" lon="4.65322">
        <ele>241.43</ele>
        <time>2025-05-13T12:23:05Z</time>
      </trkpt>
      <trkpt lat="45.54312" lon="4.65316">
        <ele>240.95</ele>
        <time>2025-05-13T12:23:06Z</time>
      </trkpt>
      <trkpt lat="45.5435" lon="4.65201">
        <ele>241.91</ele>
        <time>2025-05-13T12:23:23Z</time>
      </trkpt>
      <trkpt lat="45.54353" lon="4.65075">
        <ele>242.39</ele>
        <time>2025-05-13T12:23:40Z</time>
      </trkpt>
      <trkpt lat="45.54342" lon="4.64931">
        <ele>241.91</ele>
        <time>2025-05-13T12:23:58Z</time>
      </trkpt>
      <trkpt lat="45.5434" lon="4.64916">
        <ele>240.47</ele>
        <time>2025-05-13T12:24:00Z</time>
      </trkpt>
      <trkpt lat="45.54325" lon="4.64857">
        <ele>240.95</ele>
        <time>2025-05-13T12:24:08Z</time>
      </trkpt>
      <trkpt lat="45.54291" lon="4.64735">
        <ele>240.47</ele>
        <time>2025-05-13T12:24:24Z</time>
      </trkpt>
      <trkpt lat="45.54265" lon="4.64618">
        <ele>238.54</ele>
        <time>2025-05-13T12:24:37Z</time>
      </trkpt>
      <trkpt lat="45.54264" lon="4.64607">
        <ele>239.02</ele>
        <time>2025-05-13T12:24:38Z</time>
      </trkpt>
      <trkpt lat="45.54264" lon="4.64595">
        <ele>238.06</ele>
        <time>2025-05-13T12:24:39Z</time>
      </trkpt>
      <trkpt lat="45.54265" lon="4.64544">
        <ele>238.06</ele>
        <time>2025-05-13T12:24:44Z</time>
      </trkpt>
      <trkpt lat="45.54266" lon="4.64534">
        <ele>238.06</ele>
        <time>2025-05-13T12:24:45Z</time>
      </trkpt>
      <trkpt lat="45.54286" lon="4.64412">
        <ele>239.99</ele>
        <time>2025-05-13T12:25:01Z</time>
      </trkpt>
      <trkpt lat="45.54289" lon="4.64387">
        <ele>240.95</ele>
        <time>2025-05-13T12:25:05Z</time>
      </trkpt>
      <trkpt lat="45.54289" lon="4.64381">
        <ele>240.95</ele>
        <time>2025-05-13T12:25:06Z</time>
      </trkpt>
      <trkpt lat="45.54289" lon="4.64375">
        <ele>240.95</ele>
        <time>2025-05-13T12:25:07Z</time>
      </trkpt>
      <trkpt lat="45.54287" lon="4.64369">
        <ele>240.95</ele>
        <time>2025-05-13T12:25:08Z</time>
      </trkpt>
      <trkpt lat="45.54284" lon="4.64364">
        <ele>240.95</ele>
        <time>2025-05-13T12:25:09Z</time>
      </trkpt>
      <trkpt lat="45.54282" lon="4.64359">
        <ele>240.95</ele>
        <time>2025-05-13T12:25:10Z</time>
      </trkpt>
      <trkpt lat="45.54281" lon="4.64353">
        <ele>240.95</ele>
        <time>2025-05-13T12:25:11Z</time>
      </trkpt>
      <trkpt lat="45.54279" lon="4.64347">
        <ele>240.95</ele>
        <time>2025-05-13T12:25:12Z</time>
      </trkpt>
      <trkpt lat="45.54278" lon="4.64342">
        <ele>240.95</ele>
        <time>2025-05-13T12:25:13Z</time>
      </trkpt>
      <trkpt lat="45.54278" lon="4.64336">
        <ele>240.47</ele>
        <time>2025-05-13T12:25:14Z</time>
      </trkpt>
      <trkpt lat="45.54275" lon="4.64307">
        <ele>240.95</ele>
        <time>2025-05-13T12:25:21Z</time>
      </trkpt>
      <trkpt lat="45.54272" lon="4.64302">
        <ele>241.43</ele>
        <time>2025-05-13T12:25:36Z</time>
      </trkpt>
      <trkpt lat="45.54274" lon="4.64302">
        <ele>240.95</ele>
        <time>2025-05-13T12:26:09Z</time>
      </trkpt>
      <trkpt lat="45.54275" lon="4.64302">
        <ele>240.95</ele>
        <time>2025-05-13T12:26:41Z</time>
      </trkpt>
      <trkpt lat="45.54275" lon="4.64301">
        <ele>240.95</ele>
        <time>2025-05-13T12:27:15Z</time>
      </trkpt>
      <trkpt lat="45.54275" lon="4.64304">
        <ele>241.43</ele>
        <time>2025-05-13T12:27:43Z</time>
      </trkpt>
      <trkpt lat="45.54274" lon="4.64303">
        <ele>240.95</ele>
        <time>2025-05-13T12:28:12Z</time>
      </trkpt>
      <trkpt lat="45.54273" lon="4.64303">
        <ele>241.43</ele>
        <time>2025-05-13T12:28:37Z</time>
      </trkpt>
      <trkpt lat="45.54274" lon="4.64304">
        <ele>240.47</ele>
        <time>2025-05-13T12:29:00Z</time>
      </trkpt>
      <trkpt lat="45.54274" lon="4.64302">
        <ele>240.95</ele>
        <time>2025-05-13T12:29:26Z</time>
      </trkpt>
      <trkpt lat="45.54272" lon="4.64303">
        <ele>240.95</ele>
        <time>2025-05-13T12:29:55Z</time>
      </trkpt>
      <trkpt lat="45.54272" lon="4.64302">
        <ele>240.95</ele>
        <time>2025-05-13T12:30:20Z</time>
      </trkpt>
      <trkpt lat="45.54266" lon="4.64291">
        <ele>241.43</ele>
        <time>2025-05-13T12:30:42Z</time>
      </trkpt>
      <trkpt lat="45.54244" lon="4.6425">
        <ele>240.95</ele>
        <time>2025-05-13T12:30:56Z</time>
      </trkpt>
      <trkpt lat="45.54202" lon="4.64185">
        <ele>240.95</ele>
        <time>2025-05-13T12:31:12Z</time>
      </trkpt>
      <trkpt lat="45.54144" lon="4.64107">
        <ele>239.99</ele>
        <time>2025-05-13T12:31:29Z</time>
      </trkpt>
      <trkpt lat="45.54142" lon="4.64101">
        <ele>239.51</ele>
        <time>2025-05-13T12:31:30Z</time>
      </trkpt>
      <trkpt lat="45.54139" lon="4.64088">
        <ele>239.99</ele>
        <time>2025-05-13T12:31:32Z</time>
      </trkpt>
      <trkpt lat="45.54136" lon="4.64083">
        <ele>240.47</ele>
        <time>2025-05-13T12:31:33Z</time>
      </trkpt>
      <trkpt lat="45.54132" lon="4.64079">
        <ele>240.47</ele>
        <time>2025-05-13T12:31:34Z</time>
      </trkpt>
      <trkpt lat="45.54127" lon="4.64075">
        <ele>239.99</ele>
        <time>2025-05-13T12:31:35Z</time>
      </trkpt>
      <trkpt lat="45.54122" lon="4.64071">
        <ele>239.51</ele>
        <time>2025-05-13T12:31:36Z</time>
      </trkpt>
      <trkpt lat="45.54118" lon="4.64066">
        <ele>239.51</ele>
        <time>2025-05-13T12:31:37Z</time>
      </trkpt>
      <trkpt lat="45.54114" lon="4.64062">
        <ele>239.51</ele>
        <time>2025-05-13T12:31:38Z</time>
      </trkpt>
      <trkpt lat="45.54037" lon="4.63965">
        <ele>239.51</ele>
        <time>2025-05-13T12:31:58Z</time>
      </trkpt>
      <trkpt lat="45.54024" lon="4.63954">
        <ele>239.51</ele>
        <time>2025-05-13T12:32:01Z</time>
      </trkpt>
      <trkpt lat="45.54021" lon="4.63949">
        <ele>239.51</ele>
        <time>2025-05-13T12:32:02Z</time>
      </trkpt>
      <trkpt lat="45.53959" lon="4.63864">
        <ele>240.95</ele>
        <time>2025-05-13T12:32:20Z</time>
      </trkpt>
      <trkpt lat="45.53953" lon="4.63854">
        <ele>239.99</ele>
        <time>2025-05-13T12:32:22Z</time>
      </trkpt>
      <trkpt lat="45.53951" lon="4.63848">
        <ele>239.99</ele>
        <time>2025-05-13T12:32:23Z</time>
      </trkpt>
      <trkpt lat="45.53949" lon="4.63842">
        <ele>239.99</ele>
        <time>2025-05-13T12:32:24Z</time>
      </trkpt>
      <trkpt lat="45.53946" lon="4.63837">
        <ele>239.99</ele>
        <time>2025-05-13T12:32:25Z</time>
      </trkpt>
      <trkpt lat="45.53943" lon="4.63832">
        <ele>239.51</ele>
        <time>2025-05-13T12:32:26Z</time>
      </trkpt>
      <trkpt lat="45.53939" lon="4.63827">
        <ele>239.51</ele>
        <time>2025-05-13T12:32:27Z</time>
      </trkpt>
      <trkpt lat="45.53886" lon="4.63751">
        <ele>239.99</ele>
        <time>2025-05-13T12:32:42Z</time>
      </trkpt>
      <trkpt lat="45.53846" lon="4.63703">
        <ele>240.47</ele>
        <time>2025-05-13T12:32:55Z</time>
      </trkpt>
      <trkpt lat="45.53808" lon="4.63654">
        <ele>240.95</ele>
        <time>2025-05-13T12:33:11Z</time>
      </trkpt>
      <trkpt lat="45.53775" lon="4.63606">
        <ele>241.43</ele>
        <time>2025-05-13T12:33:24Z</time>
      </trkpt>
      <trkpt lat="45.53738" lon="4.63553">
        <ele>241.43</ele>
        <time>2025-05-13T12:33:38Z</time>
      </trkpt>
      <trkpt lat="45.53709" lon="4.63517">
        <ele>241.91</ele>
        <time>2025-05-13T12:33:55Z</time>
      </trkpt>
      <trkpt lat="45.53685" lon="4.6349">
        <ele>241.91</ele>
        <time>2025-05-13T12:34:06Z</time>
      </trkpt>
      <trkpt lat="45.53671" lon="4.63471">
        <ele>241.91</ele>
        <time>2025-05-13T12:34:18Z</time>
      </trkpt>
      <trkpt lat="45.53658" lon="4.63451">
        <ele>241.91</ele>
        <time>2025-05-13T12:34:30Z</time>
      </trkpt>
      <trkpt lat="45.53645" lon="4.63435">
        <ele>241.91</ele>
        <time>2025-05-13T12:34:41Z</time>
      </trkpt>
      <trkpt lat="45.53632" lon="4.63416">
        <ele>241.91</ele>
        <time>2025-05-13T12:34:56Z</time>
      </trkpt>
      <trkpt lat="45.53586" lon="4.63356">
        <ele>242.39</ele>
        <time>2025-05-13T12:35:10Z</time>
      </trkpt>
      <trkpt lat="45.53519" lon="4.63268">
        <ele>243.35</ele>
        <time>2025-05-13T12:35:27Z</time>
      </trkpt>
      <trkpt lat="45.53445" lon="4.63192">
        <ele>241.43</ele>
        <time>2025-05-13T12:35:41Z</time>
      </trkpt>
      <trkpt lat="45.53402" lon="4.63127">
        <ele>238.06</ele>
        <time>2025-05-13T12:35:49Z</time>
      </trkpt>
      <trkpt lat="45.53322" lon="4.63012">
        <ele>238.54</ele>
        <time>2025-05-13T12:36:04Z</time>
      </trkpt>
      <trkpt lat="45.53276" lon="4.62904">
        <ele>239.51</ele>
        <time>2025-05-13T12:36:19Z</time>
      </trkpt>
      <trkpt lat="45.53249" lon="4.6281">
        <ele>241.91</ele>
        <time>2025-05-13T12:36:33Z</time>
      </trkpt>
      <trkpt lat="45.53221" lon="4.62706">
        <ele>242.87</ele>
        <time>2025-05-13T12:36:48Z</time>
      </trkpt>
      <trkpt lat="45.53183" lon="4.62579">
        <ele>241.91</ele>
        <time>2025-05-13T12:37:05Z</time>
      </trkpt>
      <trkpt lat="45.53158" lon="4.62499">
        <ele>242.39</ele>
        <time>2025-05-13T12:37:17Z</time>
      </trkpt>
      <trkpt lat="45.53122" lon="4.62382">
        <ele>241.43</ele>
        <time>2025-05-13T12:37:33Z</time>
      </trkpt>
      <trkpt lat="45.53108" lon="4.62339">
        <ele>241.91</ele>
        <time>2025-05-13T12:37:39Z</time>
      </trkpt>
      <trkpt lat="45.53087" lon="4.6229">
        <ele>242.87</ele>
        <time>2025-05-13T12:37:47Z</time>
      </trkpt>
      <trkpt lat="45.53084" lon="4.62276">
        <ele>243.83</ele>
        <time>2025-05-13T12:37:49Z</time>
      </trkpt>
      <trkpt lat="45.53081" lon="4.62272">
        <ele>243.83</ele>
        <time>2025-05-13T12:37:50Z</time>
      </trkpt>
      <trkpt lat="45.53077" lon="4.62269">
        <ele>243.83</ele>
        <time>2025-05-13T12:37:51Z</time>
      </trkpt>
      <trkpt lat="45.53072" lon="4.62269">
        <ele>243.83</ele>
        <time>2025-05-13T12:37:52Z</time>
      </trkpt>
      <trkpt lat="45.53067" lon="4.62272">
        <ele>243.83</ele>
        <time>2025-05-13T12:37:53Z</time>
      </trkpt>
      <trkpt lat="45.53063" lon="4.62277">
        <ele>243.83</ele>
        <time>2025-05-13T12:37:54Z</time>
      </trkpt>
      <trkpt lat="45.53061" lon="4.62283">
        <ele>243.83</ele>
        <time>2025-05-13T12:37:55Z</time>
      </trkpt>
      <trkpt lat="45.53059" lon="4.62289">
        <ele>243.83</ele>
        <time>2025-05-13T12:37:56Z</time>
      </trkpt>
      <trkpt lat="45.53057" lon="4.62295">
        <ele>242.87</ele>
        <time>2025-05-13T12:37:57Z</time>
      </trkpt>
      <trkpt lat="45.53054" lon="4.62301">
        <ele>243.83</ele>
        <time>2025-05-13T12:37:58Z</time>
      </trkpt>
      <trkpt lat="45.53048" lon="4.62312">
        <ele>243.83</ele>
        <time>2025-05-13T12:38:00Z</time>
      </trkpt>
      <trkpt lat="45.53045" lon="4.62316">
        <ele>242.87</ele>
        <time>2025-05-13T12:38:01Z</time>
      </trkpt>
      <trkpt lat="45.53042" lon="4.62321">
        <ele>242.87</ele>
        <time>2025-05-13T12:38:02Z</time>
      </trkpt>
      <trkpt lat="45.53038" lon="4.62325">
        <ele>242.87</ele>
        <time>2025-05-13T12:38:03Z</time>
      </trkpt>
      <trkpt lat="45.53033" lon="4.62328">
        <ele>242.87</ele>
        <time>2025-05-13T12:38:04Z</time>
      </trkpt>
      <trkpt lat="45.53029" lon="4.62331">
        <ele>242.87</ele>
        <time>2025-05-13T12:38:05Z</time>
      </trkpt>
      <trkpt lat="45.53016" lon="4.62339">
        <ele>243.35</ele>
        <time>2025-05-13T12:38:08Z</time>
      </trkpt>
      <trkpt lat="45.53012" lon="4.62342">
        <ele>243.35</ele>
        <time>2025-05-13T12:38:09Z</time>
      </trkpt>
      <trkpt lat="45.53009" lon="4.62346">
        <ele>243.35</ele>
        <time>2025-05-13T12:38:10Z</time>
      </trkpt>
      <trkpt lat="45.53006" lon="4.6235">
        <ele>243.35</ele>
        <time>2025-05-13T12:38:11Z</time>
      </trkpt>
      <trkpt lat="45.53004" lon="4.62354">
        <ele>243.35</ele>
        <time>2025-05-13T12:38:12Z</time>
      </trkpt>
      <trkpt lat="45.53002" lon="4.62359">
        <ele>243.35</ele>
        <time>2025-05-13T12:38:13Z</time>
      </trkpt>
      <trkpt lat="45.53001" lon="4.62365">
        <ele>243.83</ele>
        <time>2025-05-13T12:38:14Z</time>
      </trkpt>
      <trkpt lat="45.53" lon="4.62371">
        <ele>243.35</ele>
        <time>2025-05-13T12:38:15Z</time>
      </trkpt>
      <trkpt lat="45.52996" lon="4.62396">
        <ele>242.87</ele>
        <time>2025-05-13T12:38:19Z</time>
      </trkpt>
      <trkpt lat="45.52994" lon="4.62402">
        <ele>242.87</ele>
        <time>2025-05-13T12:38:20Z</time>
      </trkpt>
      <trkpt lat="45.52991" lon="4.62407">
        <ele>242.87</ele>
        <time>2025-05-13T12:38:21Z</time>
      </trkpt>
      <trkpt lat="45.52988" lon="4.62411">
        <ele>242.87</ele>
        <time>2025-05-13T12:38:22Z</time>
      </trkpt>
      <trkpt lat="45.52984" lon="4.62414">
        <ele>242.87</ele>
        <time>2025-05-13T12:38:23Z</time>
      </trkpt>
      <trkpt lat="45.5298" lon="4.62416">
        <ele>242.39</ele>
        <time>2025-05-13T12:38:24Z</time>
      </trkpt>
      <trkpt lat="45.52975" lon="4.62417">
        <ele>242.39</ele>
        <time>2025-05-13T12:38:25Z</time>
      </trkpt>
      <trkpt lat="45.5297" lon="4.62417">
        <ele>242.39</ele>
        <time>2025-05-13T12:38:26Z</time>
      </trkpt>
      <trkpt lat="45.52964" lon="4.62416">
        <ele>241.43</ele>
        <time>2025-05-13T12:38:27Z</time>
      </trkpt>
      <trkpt lat="45.52959" lon="4.62415">
        <ele>241.43</ele>
        <time>2025-05-13T12:38:28Z</time>
      </trkpt>
      <trkpt lat="45.52906" lon="4.62406">
        <ele>244.79</ele>
        <time>2025-05-13T12:38:39Z</time>
      </trkpt>
      <trkpt lat="45.5287" lon="4.624">
        <ele>248.16</ele>
        <time>2025-05-13T12:38:50Z</time>
      </trkpt>
      <trkpt lat="45.52839" lon="4.62409">
        <ele>248.64</ele>
        <time>2025-05-13T12:39:00Z</time>
      </trkpt>
      <trkpt lat="45.52778" lon="4.62438">
        <ele>248.16</ele>
        <time>2025-05-13T12:39:13Z</time>
      </trkpt>
      <trkpt lat="45.52774" lon="4.62438">
        <ele>248.16</ele>
        <time>2025-05-13T12:39:14Z</time>
      </trkpt>
      <trkpt lat="45.52738" lon="4.62438">
        <ele>249.12</ele>
        <time>2025-05-13T12:39:23Z</time>
      </trkpt>
      <trkpt lat="45.52716" lon="4.62444">
        <ele>248.16</ele>
        <time>2025-05-13T12:39:28Z</time>
      </trkpt>
      <trkpt lat="45.52711" lon="4.62446">
        <ele>248.16</ele>
        <time>2025-05-13T12:39:29Z</time>
      </trkpt>
      <trkpt lat="45.52627" lon="4.62478">
        <ele>250.08</ele>
        <time>2025-05-13T12:39:48Z</time>
      </trkpt>
      <trkpt lat="45.52619" lon="4.62483">
        <ele>250.56</ele>
        <time>2025-05-13T12:39:50Z</time>
      </trkpt>
      <trkpt lat="45.52615" lon="4.62486">
        <ele>250.08</ele>
        <time>2025-05-13T12:39:51Z</time>
      </trkpt>
      <trkpt lat="45.52612" lon="4.6249">
        <ele>251.04</ele>
        <time>2025-05-13T12:39:52Z</time>
      </trkpt>
      <trkpt lat="45.52608" lon="4.62493">
        <ele>251.04</ele>
        <time>2025-05-13T12:39:53Z</time>
      </trkpt>
      <trkpt lat="45.52604" lon="4.62497">
        <ele>251.04</ele>
        <time>2025-05-13T12:39:54Z</time>
      </trkpt>
      <trkpt lat="45.52601" lon="4.62502">
        <ele>250.56</ele>
        <time>2025-05-13T12:39:55Z</time>
      </trkpt>
      <trkpt lat="45.52558" lon="4.62538">
        <ele>252.48</ele>
        <time>2025-05-13T12:40:08Z</time>
      </trkpt>
      <trkpt lat="45.52515" lon="4.62537">
        <ele>253.44</ele>
        <time>2025-05-13T12:40:20Z</time>
      </trkpt>
      <trkpt lat="45.52458" lon="4.62499">
        <ele>255.85</ele>
        <time>2025-05-13T12:40:37Z</time>
      </trkpt>
      <trkpt lat="45.52405" lon="4.62447">
        <ele>257.77</ele>
        <time>2025-05-13T12:40:55Z</time>
      </trkpt>
      <trkpt lat="45.52388" lon="4.62437">
        <ele>258.25</ele>
        <time>2025-05-13T12:41:06Z</time>
      </trkpt>
      <trkpt lat="45.5236" lon="4.62439">
        <ele>259.69</ele>
        <time>2025-05-13T12:41:20Z</time>
      </trkpt>
      <trkpt lat="45.52309" lon="4.62445">
        <ele>261.62</ele>
        <time>2025-05-13T12:41:37Z</time>
      </trkpt>
      <trkpt lat="45.5227" lon="4.62453">
        <ele>263.54</ele>
        <time>2025-05-13T12:41:50Z</time>
      </trkpt>
      <trkpt lat="45.52225" lon="4.62493">
        <ele>264.5</ele>
        <time>2025-05-13T12:42:07Z</time>
      </trkpt>
      <trkpt lat="45.52186" lon="4.62534">
        <ele>265.94</ele>
        <time>2025-05-13T12:42:23Z</time>
      </trkpt>
      <trkpt lat="45.52159" lon="4.62579">
        <ele>267.86</ele>
        <time>2025-05-13T12:42:38Z</time>
      </trkpt>
      <trkpt lat="45.52129" lon="4.62619">
        <ele>268.35</ele>
        <time>2025-05-13T12:42:52Z</time>
      </trkpt>
      <trkpt lat="45.52077" lon="4.62629">
        <ele>270.75</ele>
        <time>2025-05-13T12:43:08Z</time>
      </trkpt>
      <trkpt lat="45.52025" lon="4.62629">
        <ele>272.19</ele>
        <time>2025-05-13T12:43:25Z</time>
      </trkpt>
      <trkpt lat="45.51971" lon="4.62618">
        <ele>273.15</ele>
        <time>2025-05-13T12:43:42Z</time>
      </trkpt>
      <trkpt lat="45.51937" lon="4.62643">
        <ele>274.59</ele>
        <time>2025-05-13T12:43:55Z</time>
      </trkpt>
      <trkpt lat="45.51899" lon="4.6269">
        <ele>275.56</ele>
        <time>2025-05-13T12:44:10Z</time>
      </trkpt>
      <trkpt lat="45.51883" lon="4.62699">
        <ele>276.52</ele>
        <time>2025-05-13T12:44:15Z</time>
      </trkpt>
      <trkpt lat="45.51852" lon="4.62744">
        <ele>276.52</ele>
        <time>2025-05-13T12:44:28Z</time>
      </trkpt>
      <trkpt lat="45.51807" lon="4.62757">
        <ele>277.48</ele>
        <time>2025-05-13T12:44:42Z</time>
      </trkpt>
      <trkpt lat="45.51755" lon="4.62777">
        <ele>278.92</ele>
        <time>2025-05-13T12:44:58Z</time>
      </trkpt>
      <trkpt lat="45.5172" lon="4.62784">
        <ele>279.88</ele>
        <time>2025-05-13T12:45:10Z</time>
      </trkpt>
      <trkpt lat="45.51679" lon="4.62818">
        <ele>280.84</ele>
        <time>2025-05-13T12:45:24Z</time>
      </trkpt>
      <trkpt lat="45.51644" lon="4.62868">
        <ele>282.28</ele>
        <time>2025-05-13T12:45:39Z</time>
      </trkpt>
      <trkpt lat="45.51601" lon="4.62888">
        <ele>283.73</ele>
        <time>2025-05-13T12:45:52Z</time>
      </trkpt>
      <trkpt lat="45.51547" lon="4.62889">
        <ele>284.21</ele>
        <time>2025-05-13T12:46:08Z</time>
      </trkpt>
      <trkpt lat="45.51504" lon="4.62875">
        <ele>285.65</ele>
        <time>2025-05-13T12:46:21Z</time>
      </trkpt>
      <trkpt lat="45.5146" lon="4.62861">
        <ele>287.09</ele>
        <time>2025-05-13T12:46:35Z</time>
      </trkpt>
      <trkpt lat="45.51442" lon="4.629">
        <ele>287.57</ele>
        <time>2025-05-13T12:46:45Z</time>
      </trkpt>
      <trkpt lat="45.51423" lon="4.6296">
        <ele>289.01</ele>
        <time>2025-05-13T12:46:59Z</time>
      </trkpt>
      <trkpt lat="45.51396" lon="4.63014">
        <ele>289.97</ele>
        <time>2025-05-13T12:47:14Z</time>
      </trkpt>
      <trkpt lat="45.51372" lon="4.63012">
        <ele>290.94</ele>
        <time>2025-05-13T12:47:21Z</time>
      </trkpt>
      <trkpt lat="45.51369" lon="4.63009">
        <ele>291.42</ele>
        <time>2025-05-13T12:47:22Z</time>
      </trkpt>
      <trkpt lat="45.51366" lon="4.63006">
        <ele>291.42</ele>
        <time>2025-05-13T12:47:23Z</time>
      </trkpt>
      <trkpt lat="45.51332" lon="4.62954">
        <ele>292.86</ele>
        <time>2025-05-13T12:47:39Z</time>
      </trkpt>
      <trkpt lat="45.513" lon="4.62913">
        <ele>293.82</ele>
        <time>2025-05-13T12:47:54Z</time>
      </trkpt>
      <trkpt lat="45.51266" lon="4.62903">
        <ele>295.26</ele>
        <time>2025-05-13T12:48:05Z</time>
      </trkpt>
      <trkpt lat="45.51228" lon="4.62922">
        <ele>296.7</ele>
        <time>2025-05-13T12:48:20Z</time>
      </trkpt>
      <trkpt lat="45.51198" lon="4.62933">
        <ele>297.18</ele>
        <time>2025-05-13T12:48:32Z</time>
      </trkpt>
      <trkpt lat="45.51163" lon="4.6293">
        <ele>298.15</ele>
        <time>2025-05-13T12:48:46Z</time>
      </trkpt>
      <trkpt lat="45.51122" lon="4.62938">
        <ele>300.07</ele>
        <time>2025-05-13T12:49:00Z</time>
      </trkpt>
      <trkpt lat="45.51096" lon="4.62939">
        <ele>301.03</ele>
        <time>2025-05-13T12:49:10Z</time>
      </trkpt>
      <trkpt lat="45.5106" lon="4.62938">
        <ele>302.47</ele>
        <time>2025-05-13T12:49:23Z</time>
      </trkpt>
      <trkpt lat="45.51025" lon="4.62941">
        <ele>303.43</ele>
        <time>2025-05-13T12:49:36Z</time>
      </trkpt>
      <trkpt lat="45.51" lon="4.62919">
        <ele>304.88</ele>
        <time>2025-05-13T12:49:49Z</time>
      </trkpt>
      <trkpt lat="45.50975" lon="4.62874">
        <ele>305.84</ele>
        <time>2025-05-13T12:50:05Z</time>
      </trkpt>
      <trkpt lat="45.50944" lon="4.62841">
        <ele>306.8</ele>
        <time>2025-05-13T12:50:20Z</time>
      </trkpt>
      <trkpt lat="45.50911" lon="4.62833">
        <ele>308.24</ele>
        <time>2025-05-13T12:50:33Z</time>
      </trkpt>
      <trkpt lat="45.50881" lon="4.62834">
        <ele>309.2</ele>
        <time>2025-05-13T12:50:46Z</time>
      </trkpt>
      <trkpt lat="45.50854" lon="4.62803">
        <ele>310.64</ele>
        <time>2025-05-13T12:51:00Z</time>
      </trkpt>
      <trkpt lat="45.50842" lon="4.62759">
        <ele>311.6</ele>
        <time>2025-05-13T12:51:13Z</time>
      </trkpt>
      <trkpt lat="45.50814" lon="4.62729">
        <ele>313.05</ele>
        <time>2025-05-13T12:51:27Z</time>
      </trkpt>
      <trkpt lat="45.50786" lon="4.62765">
        <ele>314.01</ele>
        <time>2025-05-13T12:51:41Z</time>
      </trkpt>
      <trkpt lat="45.50774" lon="4.6282">
        <ele>315.93</ele>
        <time>2025-05-13T12:51:57Z</time>
      </trkpt>
      <trkpt lat="45.50767" lon="4.62866">
        <ele>316.89</ele>
        <time>2025-05-13T12:52:10Z</time>
      </trkpt>
      <trkpt lat="45.50756" lon="4.62922">
        <ele>318.33</ele>
        <time>2025-05-13T12:52:26Z</time>
      </trkpt>
      <trkpt lat="45.5074" lon="4.62961">
        <ele>319.78</ele>
        <time>2025-05-13T12:52:40Z</time>
      </trkpt>
      <trkpt lat="45.50704" lon="4.6297">
        <ele>321.22</ele>
        <time>2025-05-13T12:52:55Z</time>
      </trkpt>
      <trkpt lat="45.50667" lon="4.62956">
        <ele>322.18</ele>
        <time>2025-05-13T12:53:09Z</time>
      </trkpt>
      <trkpt lat="45.50639" lon="4.62993">
        <ele>323.62</ele>
        <time>2025-05-13T12:53:23Z</time>
      </trkpt>
      <trkpt lat="45.50605" lon="4.63043">
        <ele>324.58</ele>
        <time>2025-05-13T12:53:41Z</time>
      </trkpt>
      <trkpt lat="45.50573" lon="4.63073">
        <ele>326.5</ele>
        <time>2025-05-13T12:53:56Z</time>
      </trkpt>
      <trkpt lat="45.50543" lon="4.63091">
        <ele>327.47</ele>
        <time>2025-05-13T12:54:09Z</time>
      </trkpt>
      <trkpt lat="45.50511" lon="4.63121">
        <ele>328.91</ele>
        <time>2025-05-13T12:54:24Z</time>
      </trkpt>
      <trkpt lat="45.50483" lon="4.63157">
        <ele>329.87</ele>
        <time>2025-05-13T12:54:39Z</time>
      </trkpt>
      <trkpt lat="45.50469" lon="4.63201">
        <ele>330.83</ele>
        <time>2025-05-13T12:54:53Z</time>
      </trkpt>
      <trkpt lat="45.50475" lon="4.6326">
        <ele>332.75</ele>
        <time>2025-05-13T12:55:10Z</time>
      </trkpt>
      <trkpt lat="45.5047" lon="4.63306">
        <ele>333.71</ele>
        <time>2025-05-13T12:55:24Z</time>
      </trkpt>
      <trkpt lat="45.5045" lon="4.63302">
        <ele>334.2</ele>
        <time>2025-05-13T12:55:34Z</time>
      </trkpt>
      <trkpt lat="45.50433" lon="4.63255">
        <ele>336.12</ele>
        <time>2025-05-13T12:55:49Z</time>
      </trkpt>
      <trkpt lat="45.50406" lon="4.63223">
        <ele>337.08</ele>
        <time>2025-05-13T12:56:03Z</time>
      </trkpt>
      <trkpt lat="45.50371" lon="4.63239">
        <ele>338.04</ele>
        <time>2025-05-13T12:56:17Z</time>
      </trkpt>
      <trkpt lat="45.50334" lon="4.63265">
        <ele>339.48</ele>
        <time>2025-05-13T12:56:34Z</time>
      </trkpt>
      <trkpt lat="45.503" lon="4.63276">
        <ele>340.92</ele>
        <time>2025-05-13T12:56:49Z</time>
      </trkpt>
      <trkpt lat="45.50272" lon="4.63264">
        <ele>342.37</ele>
        <time>2025-05-13T12:57:02Z</time>
      </trkpt>
      <trkpt lat="45.50248" lon="4.63236">
        <ele>343.81</ele>
        <time>2025-05-13T12:57:15Z</time>
      </trkpt>
      <trkpt lat="45.50229" lon="4.63192">
        <ele>344.77</ele>
        <time>2025-05-13T12:57:29Z</time>
      </trkpt>
      <trkpt lat="45.50193" lon="4.63183">
        <ele>345.73</ele>
        <time>2025-05-13T12:57:43Z</time>
      </trkpt>
      <trkpt lat="45.50155" lon="4.63195">
        <ele>347.17</ele>
        <time>2025-05-13T12:57:58Z</time>
      </trkpt>
      <trkpt lat="45.50122" lon="4.63211">
        <ele>347.65</ele>
        <time>2025-05-13T12:58:12Z</time>
      </trkpt>
      <trkpt lat="45.50086" lon="4.63213">
        <ele>349.1</ele>
        <time>2025-05-13T12:58:26Z</time>
      </trkpt>
      <trkpt lat="45.50063" lon="4.63195">
        <ele>350.06</ele>
        <time>2025-05-13T12:58:37Z</time>
      </trkpt>
      <trkpt lat="45.50036" lon="4.63155">
        <ele>351.98</ele>
        <time>2025-05-13T12:58:53Z</time>
      </trkpt>
      <trkpt lat="45.50009" lon="4.63123">
        <ele>352.46</ele>
        <time>2025-05-13T12:59:06Z</time>
      </trkpt>
      <trkpt lat="45.50002" lon="4.63062">
        <ele>353.9</ele>
        <time>2025-05-13T12:59:21Z</time>
      </trkpt>
      <trkpt lat="45.49973" lon="4.63044">
        <ele>354.86</ele>
        <time>2025-05-13T12:59:32Z</time>
      </trkpt>
      <trkpt lat="45.49942" lon="4.63033">
        <ele>355.83</ele>
        <time>2025-05-13T12:59:44Z</time>
      </trkpt>
      <trkpt lat="45.4991" lon="4.62999">
        <ele>356.79</ele>
        <time>2025-05-13T12:59:58Z</time>
      </trkpt>
      <trkpt lat="45.49871" lon="4.62971">
        <ele>358.23</ele>
        <time>2025-05-13T13:00:14Z</time>
      </trkpt>
      <trkpt lat="45.4983" lon="4.62967">
        <ele>359.67</ele>
        <time>2025-05-13T13:00:28Z</time>
      </trkpt>
      <trkpt lat="45.49796" lon="4.62958">
        <ele>360.63</ele>
        <time>2025-05-13T13:00:44Z</time>
      </trkpt>
      <trkpt lat="45.49807" lon="4.62913">
        <ele>360.15</ele>
        <time>2025-05-13T13:00:57Z</time>
      </trkpt>
      <trkpt lat="45.49832" lon="4.62851">
        <ele>360.63</ele>
        <time>2025-05-13T13:01:13Z</time>
      </trkpt>
      <trkpt lat="45.49858" lon="4.62788">
        <ele>359.19</ele>
        <time>2025-05-13T13:01:30Z</time>
      </trkpt>
      <trkpt lat="45.49873" lon="4.62749">
        <ele>360.15</ele>
        <time>2025-05-13T13:01:42Z</time>
      </trkpt>
      <trkpt lat="45.49871" lon="4.62739">
        <ele>360.63</ele>
        <time>2025-05-13T13:01:46Z</time>
      </trkpt>
      <trkpt lat="45.4987" lon="4.6274">
        <ele>361.11</ele>
        <time>2025-05-13T13:01:47Z</time>
      </trkpt>
      <trkpt lat="45.4987" lon="4.62742">
        <ele>361.11</ele>
        <time>2025-05-13T13:01:48Z</time>
      </trkpt>
      <trkpt lat="45.4987" lon="4.62745">
        <ele>359.67</ele>
        <time>2025-05-13T13:01:49Z</time>
      </trkpt>
      <trkpt lat="45.4987" lon="4.62748">
        <ele>360.15</ele>
        <time>2025-05-13T13:01:50Z</time>
      </trkpt>
      <trkpt lat="45.49871" lon="4.62751">
        <ele>360.63</ele>
        <time>2025-05-13T13:01:51Z</time>
      </trkpt>
      <trkpt lat="45.49871" lon="4.62754">
        <ele>359.67</ele>
        <time>2025-05-13T13:01:52Z</time>
      </trkpt>
      <trkpt lat="45.49871" lon="4.62757">
        <ele>359.67</ele>
        <time>2025-05-13T13:01:53Z</time>
      </trkpt>
      <trkpt lat="45.49871" lon="4.6276">
        <ele>359.67</ele>
        <time>2025-05-13T13:01:54Z</time>
      </trkpt>
      <trkpt lat="45.4987" lon="4.62763">
        <ele>360.15</ele>
        <time>2025-05-13T13:01:55Z</time>
      </trkpt>
      <trkpt lat="45.49868" lon="4.62765">
        <ele>360.15</ele>
        <time>2025-05-13T13:01:56Z</time>
      </trkpt>
      <trkpt lat="45.49867" lon="4.62767">
        <ele>360.63</ele>
        <time>2025-05-13T13:01:57Z</time>
      </trkpt>
      <trkpt lat="45.49866" lon="4.6277">
        <ele>360.63</ele>
        <time>2025-05-13T13:01:58Z</time>
      </trkpt>
      <trkpt lat="45.49864" lon="4.62772">
        <ele>360.63</ele>
        <time>2025-05-13T13:01:59Z</time>
      </trkpt>
      <trkpt lat="45.49862" lon="4.62774">
        <ele>360.63</ele>
        <time>2025-05-13T13:02:00Z</time>
      </trkpt>
      <trkpt lat="45.49838" lon="4.62832">
        <ele>360.63</ele>
        <time>2025-05-13T13:02:15Z</time>
      </trkpt>
      <trkpt lat="45.49808" lon="4.62905">
        <ele>359.67</ele>
        <time>2025-05-13T13:02:33Z</time>
      </trkpt>
      <trkpt lat="45.49791" lon="4.62971">
        <ele>359.67</ele>
        <time>2025-05-13T13:02:50Z</time>
      </trkpt>
      <trkpt lat="45.49795" lon="4.62977">
        <ele>359.67</ele>
        <time>2025-05-13T13:02:52Z</time>
      </trkpt>
      <trkpt lat="45.49799" lon="4.62978">
        <ele>359.67</ele>
        <time>2025-05-13T13:02:53Z</time>
      </trkpt>
      <trkpt lat="45.49803" lon="4.62977">
        <ele>359.19</ele>
        <time>2025-05-13T13:02:54Z</time>
      </trkpt>
      <trkpt lat="45.49806" lon="4.62976">
        <ele>359.19</ele>
        <time>2025-05-13T13:02:55Z</time>
      </trkpt>
      <trkpt lat="45.4981" lon="4.62974">
        <ele>359.67</ele>
        <time>2025-05-13T13:02:56Z</time>
      </trkpt>
      <trkpt lat="45.49814" lon="4.62973">
        <ele>360.15</ele>
        <time>2025-05-13T13:02:57Z</time>
      </trkpt>
      <trkpt lat="45.49869" lon="4.62974">
        <ele>359.19</ele>
        <time>2025-05-13T13:03:09Z</time>
      </trkpt>
      <trkpt lat="45.49873" lon="4.62976">
        <ele>359.19</ele>
        <time>2025-05-13T13:03:10Z</time>
      </trkpt>
      <trkpt lat="45.49878" lon="4.62979">
        <ele>359.19</ele>
        <time>2025-05-13T13:03:11Z</time>
      </trkpt>
      <trkpt lat="45.49939" lon="4.6304">
        <ele>356.79</ele>
        <time>2025-05-13T13:03:24Z</time>
      </trkpt>
      <trkpt lat="45.49944" lon="4.63044">
        <ele>356.31</ele>
        <time>2025-05-13T13:03:25Z</time>
      </trkpt>
      <trkpt lat="45.4995" lon="4.63047">
        <ele>356.31</ele>
        <time>2025-05-13T13:03:26Z</time>
      </trkpt>
      <trkpt lat="45.49956" lon="4.63049">
        <ele>355.83</ele>
        <time>2025-05-13T13:03:27Z</time>
      </trkpt>
      <trkpt lat="45.49962" lon="4.6305">
        <ele>356.31</ele>
        <time>2025-05-13T13:03:28Z</time>
      </trkpt>
      <trkpt lat="45.49969" lon="4.6305">
        <ele>355.83</ele>
        <time>2025-05-13T13:03:29Z</time>
      </trkpt>
      <trkpt lat="45.49983" lon="4.63054">
        <ele>355.34</ele>
        <time>2025-05-13T13:03:31Z</time>
      </trkpt>
      <trkpt lat="45.49989" lon="4.63058">
        <ele>354.86</ele>
        <time>2025-05-13T13:03:32Z</time>
      </trkpt>
      <trkpt lat="45.49994" lon="4.63065">
        <ele>354.38</ele>
        <time>2025-05-13T13:03:33Z</time>
      </trkpt>
      <trkpt lat="45.49998" lon="4.63072">
        <ele>354.38</ele>
        <time>2025-05-13T13:03:34Z</time>
      </trkpt>
      <trkpt lat="45.50001" lon="4.63081">
        <ele>353.9</ele>
        <time>2025-05-13T13:03:35Z</time>
      </trkpt>
      <trkpt lat="45.50002" lon="4.63091">
        <ele>354.38</ele>
        <time>2025-05-13T13:03:36Z</time>
      </trkpt>
      <trkpt lat="45.50003" lon="4.63101">
        <ele>354.38</ele>
        <time>2025-05-13T13:03:37Z</time>
      </trkpt>
      <trkpt lat="45.50011" lon="4.6314">
        <ele>353.9</ele>
        <time>2025-05-13T13:03:41Z</time>
      </trkpt>
      <trkpt lat="45.50015" lon="4.63147">
        <ele>353.42</ele>
        <time>2025-05-13T13:03:42Z</time>
      </trkpt>
      <trkpt lat="45.5002" lon="4.63153">
        <ele>353.42</ele>
        <time>2025-05-13T13:03:43Z</time>
      </trkpt>
      <trkpt lat="45.50026" lon="4.63158">
        <ele>353.42</ele>
        <time>2025-05-13T13:03:44Z</time>
      </trkpt>
      <trkpt lat="45.50032" lon="4.63162">
        <ele>352.94</ele>
        <time>2025-05-13T13:03:45Z</time>
      </trkpt>
      <trkpt lat="45.50039" lon="4.63167">
        <ele>352.46</ele>
        <time>2025-05-13T13:03:46Z</time>
      </trkpt>
      <trkpt lat="45.50044" lon="4.63174">
        <ele>351.98</ele>
        <time>2025-05-13T13:03:47Z</time>
      </trkpt>
      <trkpt lat="45.50049" lon="4.63182">
        <ele>351.98</ele>
        <time>2025-05-13T13:03:48Z</time>
      </trkpt>
      <trkpt lat="45.50054" lon="4.63191">
        <ele>351.5</ele>
        <time>2025-05-13T13:03:49Z</time>
      </trkpt>
      <trkpt lat="45.50092" lon="4.63256">
        <ele>349.58</ele>
        <time>2025-05-13T13:03:58Z</time>
      </trkpt>
      <trkpt lat="45.50119" lon="4.63246">
        <ele>348.62</ele>
        <time>2025-05-13T13:04:02Z</time>
      </trkpt>
      <trkpt lat="45.50131" lon="4.63236">
        <ele>348.62</ele>
        <time>2025-05-13T13:04:03Z</time>
      </trkpt>
      <trkpt lat="45.50182" lon="4.63198">
        <ele>346.69</ele>
        <time>2025-05-13T13:04:08Z</time>
      </trkpt>
      <trkpt lat="45.50191" lon="4.63194">
        <ele>346.21</ele>
        <time>2025-05-13T13:04:09Z</time>
      </trkpt>
      <trkpt lat="45.502" lon="4.63192">
        <ele>345.73</ele>
        <time>2025-05-13T13:04:10Z</time>
      </trkpt>
      <trkpt lat="45.50207" lon="4.63194">
        <ele>344.77</ele>
        <time>2025-05-13T13:04:11Z</time>
      </trkpt>
      <trkpt lat="45.50213" lon="4.63198">
        <ele>344.77</ele>
        <time>2025-05-13T13:04:12Z</time>
      </trkpt>
      <trkpt lat="45.5022" lon="4.63206">
        <ele>344.77</ele>
        <time>2025-05-13T13:04:13Z</time>
      </trkpt>
      <trkpt lat="45.50239" lon="4.63231">
        <ele>344.29</ele>
        <time>2025-05-13T13:04:16Z</time>
      </trkpt>
      <trkpt lat="45.50244" lon="4.6324">
        <ele>344.29</ele>
        <time>2025-05-13T13:04:17Z</time>
      </trkpt>
      <trkpt lat="45.50252" lon="4.63258">
        <ele>343.33</ele>
        <time>2025-05-13T13:04:19Z</time>
      </trkpt>
      <trkpt lat="45.50256" lon="4.63265">
        <ele>342.85</ele>
        <time>2025-05-13T13:04:20Z</time>
      </trkpt>
      <trkpt lat="45.50262" lon="4.63271">
        <ele>342.85</ele>
        <time>2025-05-13T13:04:21Z</time>
      </trkpt>
      <trkpt lat="45.50268" lon="4.63275">
        <ele>343.33</ele>
        <time>2025-05-13T13:04:22Z</time>
      </trkpt>
      <trkpt lat="45.50276" lon="4.63278">
        <ele>342.37</ele>
        <time>2025-05-13T13:04:23Z</time>
      </trkpt>
      <trkpt lat="45.50284" lon="4.63282">
        <ele>341.89</ele>
        <time>2025-05-13T13:04:24Z</time>
      </trkpt>
      <trkpt lat="45.50292" lon="4.63284">
        <ele>342.37</ele>
        <time>2025-05-13T13:04:25Z</time>
      </trkpt>
      <trkpt lat="45.50301" lon="4.63285">
        <ele>341.41</ele>
        <time>2025-05-13T13:04:26Z</time>
      </trkpt>
      <trkpt lat="45.50309" lon="4.63284">
        <ele>341.41</ele>
        <time>2025-05-13T13:04:27Z</time>
      </trkpt>
      <trkpt lat="45.50317" lon="4.6328">
        <ele>340.44</ele>
        <time>2025-05-13T13:04:28Z</time>
      </trkpt>
      <trkpt lat="45.50326" lon="4.63275">
        <ele>340.92</ele>
        <time>2025-05-13T13:04:29Z</time>
      </trkpt>
      <trkpt lat="45.50334" lon="4.6327">
        <ele>340.92</ele>
        <time>2025-05-13T13:04:30Z</time>
      </trkpt>
      <trkpt lat="45.50358" lon="4.63253">
        <ele>339.48</ele>
        <time>2025-05-13T13:04:33Z</time>
      </trkpt>
      <trkpt lat="45.50403" lon="4.63222">
        <ele>336.6</ele>
        <time>2025-05-13T13:04:39Z</time>
      </trkpt>
      <trkpt lat="45.50409" lon="4.63222">
        <ele>336.6</ele>
        <time>2025-05-13T13:04:40Z</time>
      </trkpt>
      <trkpt lat="45.50415" lon="4.63226">
        <ele>336.12</ele>
        <time>2025-05-13T13:04:41Z</time>
      </trkpt>
      <trkpt lat="45.5042" lon="4.63233">
        <ele>336.12</ele>
        <time>2025-05-13T13:04:42Z</time>
      </trkpt>
      <trkpt lat="45.50425" lon="4.63242">
        <ele>335.64</ele>
        <time>2025-05-13T13:04:43Z</time>
      </trkpt>
      <trkpt lat="45.50429" lon="4.63252">
        <ele>336.12</ele>
        <time>2025-05-13T13:04:44Z</time>
      </trkpt>
      <trkpt lat="45.50445" lon="4.63309">
        <ele>334.68</ele>
        <time>2025-05-13T13:04:50Z</time>
      </trkpt>
      <trkpt lat="45.50449" lon="4.63315">
        <ele>334.2</ele>
        <time>2025-05-13T13:04:51Z</time>
      </trkpt>
      <trkpt lat="45.50452" lon="4.63319">
        <ele>333.71</ele>
        <time>2025-05-13T13:04:52Z</time>
      </trkpt>
      <trkpt lat="45.50456" lon="4.63319">
        <ele>333.71</ele>
        <time>2025-05-13T13:04:53Z</time>
      </trkpt>
      <trkpt lat="45.50461" lon="4.63315">
        <ele>333.23</ele>
        <time>2025-05-13T13:04:54Z</time>
      </trkpt>
      <trkpt lat="45.50466" lon="4.63308">
        <ele>333.71</ele>
        <time>2025-05-13T13:04:55Z</time>
      </trkpt>
      <trkpt lat="45.5047" lon="4.63298">
        <ele>333.71</ele>
        <time>2025-05-13T13:04:56Z</time>
      </trkpt>
      <trkpt lat="45.50471" lon="4.63288">
        <ele>333.23</ele>
        <time>2025-05-13T13:04:57Z</time>
      </trkpt>
      <trkpt lat="45.50471" lon="4.63278">
        <ele>332.75</ele>
        <time>2025-05-13T13:04:58Z</time>
      </trkpt>
      <trkpt lat="45.50472" lon="4.63267">
        <ele>332.27</ele>
        <time>2025-05-13T13:04:59Z</time>
      </trkpt>
      <trkpt lat="45.50473" lon="4.63256">
        <ele>332.27</ele>
        <time>2025-05-13T13:05:00Z</time>
      </trkpt>
      <trkpt lat="45.50473" lon="4.63245">
        <ele>331.31</ele>
        <time>2025-05-13T13:05:01Z</time>
      </trkpt>
      <trkpt lat="45.50473" lon="4.63186">
        <ele>330.35</ele>
        <time>2025-05-13T13:05:06Z</time>
      </trkpt>
      <trkpt lat="45.50476" lon="4.63175">
        <ele>329.87</ele>
        <time>2025-05-13T13:05:07Z</time>
      </trkpt>
      <trkpt lat="45.5048" lon="4.63164">
        <ele>329.87</ele>
        <time>2025-05-13T13:05:08Z</time>
      </trkpt>
      <trkpt lat="45.50485" lon="4.63155">
        <ele>329.39</ele>
        <time>2025-05-13T13:05:09Z</time>
      </trkpt>
      <trkpt lat="45.50491" lon="4.63146">
        <ele>328.43</ele>
        <time>2025-05-13T13:05:10Z</time>
      </trkpt>
      <trkpt lat="45.50498" lon="4.63138">
        <ele>328.43</ele>
        <time>2025-05-13T13:05:11Z</time>
      </trkpt>
      <trkpt lat="45.50504" lon="4.6313">
        <ele>328.43</ele>
        <time>2025-05-13T13:05:12Z</time>
      </trkpt>
      <trkpt lat="45.50512" lon="4.63123">
        <ele>327.95</ele>
        <time>2025-05-13T13:05:13Z</time>
      </trkpt>
      <trkpt lat="45.5055" lon="4.63091">
        <ele>327.47</ele>
        <time>2025-05-13T13:05:18Z</time>
      </trkpt>
      <trkpt lat="45.50628" lon="4.63022">
        <ele>324.1</ele>
        <time>2025-05-13T13:05:28Z</time>
      </trkpt>
      <trkpt lat="45.50635" lon="4.63013">
        <ele>324.1</ele>
        <time>2025-05-13T13:05:29Z</time>
      </trkpt>
      <trkpt lat="45.50673" lon="4.62957">
        <ele>321.7</ele>
        <time>2025-05-13T13:05:36Z</time>
      </trkpt>
      <trkpt lat="45.50679" lon="4.62953">
        <ele>321.7</ele>
        <time>2025-05-13T13:05:37Z</time>
      </trkpt>
      <trkpt lat="45.50685" lon="4.62951">
        <ele>321.7</ele>
        <time>2025-05-13T13:05:38Z</time>
      </trkpt>
      <trkpt lat="45.50691" lon="4.62953">
        <ele>320.74</ele>
        <time>2025-05-13T13:05:39Z</time>
      </trkpt>
      <trkpt lat="45.50698" lon="4.62955">
        <ele>320.74</ele>
        <time>2025-05-13T13:05:40Z</time>
      </trkpt>
      <trkpt lat="45.50706" lon="4.6296">
        <ele>320.26</ele>
        <time>2025-05-13T13:05:41Z</time>
      </trkpt>
      <trkpt lat="45.50714" lon="4.62963">
        <ele>320.26</ele>
        <time>2025-05-13T13:05:42Z</time>
      </trkpt>
      <trkpt lat="45.50723" lon="4.62963">
        <ele>320.74</ele>
        <time>2025-05-13T13:05:43Z</time>
      </trkpt>
      <trkpt lat="45.50731" lon="4.62961">
        <ele>319.78</ele>
        <time>2025-05-13T13:05:44Z</time>
      </trkpt>
      <trkpt lat="45.50738" lon="4.62958">
        <ele>320.26</ele>
        <time>2025-05-13T13:05:45Z</time>
      </trkpt>
      <trkpt lat="45.50745" lon="4.62952">
        <ele>319.3</ele>
        <time>2025-05-13T13:05:46Z</time>
      </trkpt>
      <trkpt lat="45.50752" lon="4.62946">
        <ele>319.78</ele>
        <time>2025-05-13T13:05:47Z</time>
      </trkpt>
      <trkpt lat="45.50757" lon="4.62937">
        <ele>318.81</ele>
        <time>2025-05-13T13:05:48Z</time>
      </trkpt>
      <trkpt lat="45.50762" lon="4.62927">
        <ele>319.3</ele>
        <time>2025-05-13T13:05:49Z</time>
      </trkpt>
      <trkpt lat="45.50765" lon="4.62916">
        <ele>318.81</ele>
        <time>2025-05-13T13:05:50Z</time>
      </trkpt>
      <trkpt lat="45.50766" lon="4.62905">
        <ele>318.81</ele>
        <time>2025-05-13T13:05:51Z</time>
      </trkpt>
      <trkpt lat="45.50768" lon="4.62894">
        <ele>318.33</ele>
        <time>2025-05-13T13:05:52Z</time>
      </trkpt>
      <trkpt lat="45.50782" lon="4.62789">
        <ele>315.45</ele>
        <time>2025-05-13T13:06:01Z</time>
      </trkpt>
      <trkpt lat="45.50786" lon="4.62765">
        <ele>314.97</ele>
        <time>2025-05-13T13:06:03Z</time>
      </trkpt>
      <trkpt lat="45.5079" lon="4.62754">
        <ele>314.01</ele>
        <time>2025-05-13T13:06:04Z</time>
      </trkpt>
      <trkpt lat="45.50794" lon="4.62745">
        <ele>314.01</ele>
        <time>2025-05-13T13:06:05Z</time>
      </trkpt>
      <trkpt lat="45.508" lon="4.62737">
        <ele>314.01</ele>
        <time>2025-05-13T13:06:06Z</time>
      </trkpt>
      <trkpt lat="45.50806" lon="4.62731">
        <ele>313.05</ele>
        <time>2025-05-13T13:06:07Z</time>
      </trkpt>
      <trkpt lat="45.50813" lon="4.62726">
        <ele>312.57</ele>
        <time>2025-05-13T13:06:08Z</time>
      </trkpt>
      <trkpt lat="45.50818" lon="4.62723">
        <ele>312.09</ele>
        <time>2025-05-13T13:06:09Z</time>
      </trkpt>
      <trkpt lat="45.50825" lon="4.62725">
        <ele>311.6</ele>
        <time>2025-05-13T13:06:10Z</time>
      </trkpt>
      <trkpt lat="45.50831" lon="4.6273">
        <ele>311.6</ele>
        <time>2025-05-13T13:06:11Z</time>
      </trkpt>
      <trkpt lat="45.5084" lon="4.62744">
        <ele>311.6</ele>
        <time>2025-05-13T13:06:12Z</time>
      </trkpt>
      <trkpt lat="45.50843" lon="4.62753">
        <ele>311.12</ele>
        <time>2025-05-13T13:06:13Z</time>
      </trkpt>
      <trkpt lat="45.50846" lon="4.62765">
        <ele>311.6</ele>
        <time>2025-05-13T13:06:14Z</time>
      </trkpt>
      <trkpt lat="45.5086" lon="4.62809">
        <ele>310.16</ele>
        <time>2025-05-13T13:06:18Z</time>
      </trkpt>
      <trkpt lat="45.50865" lon="4.62818">
        <ele>310.16</ele>
        <time>2025-05-13T13:06:19Z</time>
      </trkpt>
      <trkpt lat="45.5087" lon="4.62824">
        <ele>310.16</ele>
        <time>2025-05-13T13:06:20Z</time>
      </trkpt>
      <trkpt lat="45.50876" lon="4.6283">
        <ele>309.68</ele>
        <time>2025-05-13T13:06:21Z</time>
      </trkpt>
      <trkpt lat="45.50883" lon="4.62834">
        <ele>308.72</ele>
        <time>2025-05-13T13:06:22Z</time>
      </trkpt>
      <trkpt lat="45.5089" lon="4.62836">
        <ele>309.2</ele>
        <time>2025-05-13T13:06:23Z</time>
      </trkpt>
      <trkpt lat="45.50898" lon="4.62835">
        <ele>308.72</ele>
        <time>2025-05-13T13:06:24Z</time>
      </trkpt>
      <trkpt lat="45.50907" lon="4.62833">
        <ele>308.72</ele>
        <time>2025-05-13T13:06:25Z</time>
      </trkpt>
      <trkpt lat="45.50916" lon="4.62832">
        <ele>307.76</ele>
        <time>2025-05-13T13:06:26Z</time>
      </trkpt>
      <trkpt lat="45.50924" lon="4.62832">
        <ele>307.28</ele>
        <time>2025-05-13T13:06:27Z</time>
      </trkpt>
      <trkpt lat="45.50932" lon="4.62834">
        <ele>306.8</ele>
        <time>2025-05-13T13:06:28Z</time>
      </trkpt>
      <trkpt lat="45.50939" lon="4.62838">
        <ele>307.28</ele>
        <time>2025-05-13T13:06:29Z</time>
      </trkpt>
      <trkpt lat="45.50947" lon="4.62843">
        <ele>306.8</ele>
        <time>2025-05-13T13:06:30Z</time>
      </trkpt>
      <trkpt lat="45.50954" lon="4.62849">
        <ele>306.32</ele>
        <time>2025-05-13T13:06:31Z</time>
      </trkpt>
      <trkpt lat="45.50962" lon="4.62858">
        <ele>305.84</ele>
        <time>2025-05-13T13:06:32Z</time>
      </trkpt>
      <trkpt lat="45.50969" lon="4.62867">
        <ele>305.36</ele>
        <time>2025-05-13T13:06:33Z</time>
      </trkpt>
      <trkpt lat="45.50974" lon="4.62878">
        <ele>305.36</ele>
        <time>2025-05-13T13:06:34Z</time>
      </trkpt>
      <trkpt lat="45.5098" lon="4.62889">
        <ele>304.88</ele>
        <time>2025-05-13T13:06:35Z</time>
      </trkpt>
      <trkpt lat="45.51009" lon="4.62937">
        <ele>304.39</ele>
        <time>2025-05-13T13:06:40Z</time>
      </trkpt>
      <trkpt lat="45.51015" lon="4.62943">
        <ele>303.43</ele>
        <time>2025-05-13T13:06:41Z</time>
      </trkpt>
      <trkpt lat="45.51022" lon="4.62946">
        <ele>302.47</ele>
        <time>2025-05-13T13:06:42Z</time>
      </trkpt>
      <trkpt lat="45.5103" lon="4.62947">
        <ele>302.47</ele>
        <time>2025-05-13T13:06:43Z</time>
      </trkpt>
      <trkpt lat="45.51039" lon="4.62946">
        <ele>301.99</ele>
        <time>2025-05-13T13:06:44Z</time>
      </trkpt>
      <trkpt lat="45.51049" lon="4.62944">
        <ele>301.99</ele>
        <time>2025-05-13T13:06:45Z</time>
      </trkpt>
      <trkpt lat="45.51058" lon="4.62944">
        <ele>301.99</ele>
        <time>2025-05-13T13:06:46Z</time>
      </trkpt>
      <trkpt lat="45.51123" lon="4.62938">
        <ele>299.59</ele>
        <time>2025-05-13T13:06:53Z</time>
      </trkpt>
      <trkpt lat="45.51203" lon="4.62934">
        <ele>297.67</ele>
        <time>2025-05-13T13:07:02Z</time>
      </trkpt>
      <trkpt lat="45.51212" lon="4.62932">
        <ele>296.7</ele>
        <time>2025-05-13T13:07:03Z</time>
      </trkpt>
      <trkpt lat="45.5122" lon="4.62927">
        <ele>296.7</ele>
        <time>2025-05-13T13:07:04Z</time>
      </trkpt>
      <trkpt lat="45.51228" lon="4.62922">
        <ele>296.7</ele>
        <time>2025-05-13T13:07:05Z</time>
      </trkpt>
      <trkpt lat="45.51236" lon="4.62917">
        <ele>296.7</ele>
        <time>2025-05-13T13:07:06Z</time>
      </trkpt>
      <trkpt lat="45.51261" lon="4.62904">
        <ele>295.26</ele>
        <time>2025-05-13T13:07:09Z</time>
      </trkpt>
      <trkpt lat="45.51269" lon="4.62902">
        <ele>294.78</ele>
        <time>2025-05-13T13:07:10Z</time>
      </trkpt>
      <trkpt lat="45.51278" lon="4.62902">
        <ele>293.82</ele>
        <time>2025-05-13T13:07:11Z</time>
      </trkpt>
      <trkpt lat="45.51286" lon="4.62904">
        <ele>293.82</ele>
        <time>2025-05-13T13:07:12Z</time>
      </trkpt>
      <trkpt lat="45.51294" lon="4.62907">
        <ele>293.34</ele>
        <time>2025-05-13T13:07:13Z</time>
      </trkpt>
      <trkpt lat="45.51302" lon="4.62912">
        <ele>293.34</ele>
        <time>2025-05-13T13:07:14Z</time>
      </trkpt>
      <trkpt lat="45.5131" lon="4.62919">
        <ele>293.34</ele>
        <time>2025-05-13T13:07:15Z</time>
      </trkpt>
      <trkpt lat="45.51317" lon="4.62927">
        <ele>292.38</ele>
        <time>2025-05-13T13:07:16Z</time>
      </trkpt>
      <trkpt lat="45.51323" lon="4.62934">
        <ele>292.38</ele>
        <time>2025-05-13T13:07:17Z</time>
      </trkpt>
      <trkpt lat="45.51329" lon="4.62942">
        <ele>291.9</ele>
        <time>2025-05-13T13:07:18Z</time>
      </trkpt>
      <trkpt lat="45.51341" lon="4.62959">
        <ele>290.94</ele>
        <time>2025-05-13T13:07:20Z</time>
      </trkpt>
      <trkpt lat="45.5138" lon="4.63014">
        <ele>289.49</ele>
        <time>2025-05-13T13:07:27Z</time>
      </trkpt>
      <trkpt lat="45.51387" lon="4.63017">
        <ele>289.49</ele>
        <time>2025-05-13T13:07:28Z</time>
      </trkpt>
      <trkpt lat="45.51393" lon="4.63016">
        <ele>289.49</ele>
        <time>2025-05-13T13:07:29Z</time>
      </trkpt>
      <trkpt lat="45.514" lon="4.63012">
        <ele>289.97</ele>
        <time>2025-05-13T13:07:30Z</time>
      </trkpt>
      <trkpt lat="45.51406" lon="4.63004">
        <ele>289.01</ele>
        <time>2025-05-13T13:07:31Z</time>
      </trkpt>
      <trkpt lat="45.51411" lon="4.62994">
        <ele>289.01</ele>
        <time>2025-05-13T13:07:32Z</time>
      </trkpt>
      <trkpt lat="45.51421" lon="4.62974">
        <ele>289.01</ele>
        <time>2025-05-13T13:07:34Z</time>
      </trkpt>
      <trkpt lat="45.51437" lon="4.62934">
        <ele>288.05</ele>
        <time>2025-05-13T13:07:38Z</time>
      </trkpt>
      <trkpt lat="45.51455" lon="4.62872">
        <ele>286.13</ele>
        <time>2025-05-13T13:07:44Z</time>
      </trkpt>
      <trkpt lat="45.5146" lon="4.62863">
        <ele>286.13</ele>
        <time>2025-05-13T13:07:45Z</time>
      </trkpt>
      <trkpt lat="45.51465" lon="4.62856">
        <ele>285.17</ele>
        <time>2025-05-13T13:07:46Z</time>
      </trkpt>
      <trkpt lat="45.51473" lon="4.62845">
        <ele>284.21</ele>
        <time>2025-05-13T13:07:48Z</time>
      </trkpt>
      <trkpt lat="45.51476" lon="4.62844">
        <ele>284.69</ele>
        <time>2025-05-13T13:07:49Z</time>
      </trkpt>
      <trkpt lat="45.51481" lon="4.62844">
        <ele>284.69</ele>
        <time>2025-05-13T13:07:50Z</time>
      </trkpt>
      <trkpt lat="45.51488" lon="4.62848">
        <ele>284.21</ele>
        <time>2025-05-13T13:07:51Z</time>
      </trkpt>
      <trkpt lat="45.51497" lon="4.62855">
        <ele>284.21</ele>
        <time>2025-05-13T13:07:52Z</time>
      </trkpt>
      <trkpt lat="45.51505" lon="4.6286">
        <ele>283.73</ele>
        <time>2025-05-13T13:07:53Z</time>
      </trkpt>
      <trkpt lat="45.51582" lon="4.6289">
        <ele>282.77</ele>
        <time>2025-05-13T13:08:02Z</time>
      </trkpt>
      <trkpt lat="45.51639" lon="4.62871">
        <ele>281.32</ele>
        <time>2025-05-13T13:08:10Z</time>
      </trkpt>
      <trkpt lat="45.51645" lon="4.62865">
        <ele>281.8</ele>
        <time>2025-05-13T13:08:11Z</time>
      </trkpt>
      <trkpt lat="45.51651" lon="4.62859">
        <ele>281.32</ele>
        <time>2025-05-13T13:08:12Z</time>
      </trkpt>
      <trkpt lat="45.51656" lon="4.62852">
        <ele>281.32</ele>
        <time>2025-05-13T13:08:13Z</time>
      </trkpt>
      <trkpt lat="45.51662" lon="4.62845">
        <ele>280.84</ele>
        <time>2025-05-13T13:08:14Z</time>
      </trkpt>
      <trkpt lat="45.51666" lon="4.62837">
        <ele>280.84</ele>
        <time>2025-05-13T13:08:15Z</time>
      </trkpt>
      <trkpt lat="45.51687" lon="4.62804">
        <ele>279.88</ele>
        <time>2025-05-13T13:08:19Z</time>
      </trkpt>
      <trkpt lat="45.51693" lon="4.62797">
        <ele>279.88</ele>
        <time>2025-05-13T13:08:20Z</time>
      </trkpt>
      <trkpt lat="45.517" lon="4.62791">
        <ele>279.4</ele>
        <time>2025-05-13T13:08:21Z</time>
      </trkpt>
      <trkpt lat="45.51707" lon="4.62787">
        <ele>279.4</ele>
        <time>2025-05-13T13:08:22Z</time>
      </trkpt>
      <trkpt lat="45.51714" lon="4.62784">
        <ele>279.4</ele>
        <time>2025-05-13T13:08:23Z</time>
      </trkpt>
      <trkpt lat="45.51722" lon="4.62783">
        <ele>279.4</ele>
        <time>2025-05-13T13:08:24Z</time>
      </trkpt>
      <trkpt lat="45.5173" lon="4.62782">
        <ele>279.88</ele>
        <time>2025-05-13T13:08:25Z</time>
      </trkpt>
      <trkpt lat="45.51818" lon="4.62761">
        <ele>277</ele>
        <time>2025-05-13T13:08:37Z</time>
      </trkpt>
      <trkpt lat="45.51858" lon="4.62746">
        <ele>275.56</ele>
        <time>2025-05-13T13:08:43Z</time>
      </trkpt>
      <trkpt lat="45.51864" lon="4.6274">
        <ele>276.52</ele>
        <time>2025-05-13T13:08:44Z</time>
      </trkpt>
      <trkpt lat="45.51869" lon="4.62733">
        <ele>275.56</ele>
        <time>2025-05-13T13:08:45Z</time>
      </trkpt>
      <trkpt lat="45.51884" lon="4.62708">
        <ele>274.11</ele>
        <time>2025-05-13T13:08:48Z</time>
      </trkpt>
      <trkpt lat="45.51889" lon="4.62701">
        <ele>274.11</ele>
        <time>2025-05-13T13:08:49Z</time>
      </trkpt>
      <trkpt lat="45.51895" lon="4.62696">
        <ele>273.63</ele>
        <time>2025-05-13T13:08:50Z</time>
      </trkpt>
      <trkpt lat="45.51902" lon="4.62691">
        <ele>274.11</ele>
        <time>2025-05-13T13:08:51Z</time>
      </trkpt>
      <trkpt lat="45.51922" lon="4.62678">
        <ele>273.63</ele>
        <time>2025-05-13T13:08:54Z</time>
      </trkpt>
      <trkpt lat="45.51929" lon="4.62673">
        <ele>273.63</ele>
        <time>2025-05-13T13:08:55Z</time>
      </trkpt>
      <trkpt lat="45.51934" lon="4.62665">
        <ele>273.15</ele>
        <time>2025-05-13T13:08:56Z</time>
      </trkpt>
      <trkpt lat="45.51953" lon="4.6263">
        <ele>272.67</ele>
        <time>2025-05-13T13:09:00Z</time>
      </trkpt>
      <trkpt lat="45.51971" lon="4.62617">
        <ele>272.19</ele>
        <time>2025-05-13T13:09:03Z</time>
      </trkpt>
      <trkpt lat="45.52087" lon="4.62624">
        <ele>269.31</ele>
        <time>2025-05-13T13:09:18Z</time>
      </trkpt>
      <trkpt lat="45.52141" lon="4.62606">
        <ele>268.35</ele>
        <time>2025-05-13T13:09:25Z</time>
      </trkpt>
      <trkpt lat="45.52148" lon="4.62601">
        <ele>267.86</ele>
        <time>2025-05-13T13:09:26Z</time>
      </trkpt>
      <trkpt lat="45.52154" lon="4.62594">
        <ele>267.86</ele>
        <time>2025-05-13T13:09:27Z</time>
      </trkpt>
      <trkpt lat="45.52159" lon="4.62586">
        <ele>267.86</ele>
        <time>2025-05-13T13:09:28Z</time>
      </trkpt>
      <trkpt lat="45.52164" lon="4.62578">
        <ele>267.38</ele>
        <time>2025-05-13T13:09:29Z</time>
      </trkpt>
      <trkpt lat="45.52167" lon="4.62569">
        <ele>267.38</ele>
        <time>2025-05-13T13:09:30Z</time>
      </trkpt>
      <trkpt lat="45.52171" lon="4.62561">
        <ele>266.9</ele>
        <time>2025-05-13T13:09:31Z</time>
      </trkpt>
      <trkpt lat="45.52183" lon="4.62536">
        <ele>266.42</ele>
        <time>2025-05-13T13:09:34Z</time>
      </trkpt>
      <trkpt lat="45.52189" lon="4.6253">
        <ele>265.94</ele>
        <time>2025-05-13T13:09:35Z</time>
      </trkpt>
      <trkpt lat="45.52201" lon="4.62519">
        <ele>265.46</ele>
        <time>2025-05-13T13:09:37Z</time>
      </trkpt>
      <trkpt lat="45.52255" lon="4.62468">
        <ele>262.1</ele>
        <time>2025-05-13T13:09:46Z</time>
      </trkpt>
      <trkpt lat="45.52267" lon="4.62459">
        <ele>262.1</ele>
        <time>2025-05-13T13:09:48Z</time>
      </trkpt>
      <trkpt lat="45.52274" lon="4.62456">
        <ele>262.58</ele>
        <time>2025-05-13T13:09:49Z</time>
      </trkpt>
      <trkpt lat="45.52281" lon="4.62454">
        <ele>262.1</ele>
        <time>2025-05-13T13:09:50Z</time>
      </trkpt>
      <trkpt lat="45.52359" lon="4.62442">
        <ele>258.73</ele>
        <time>2025-05-13T13:10:01Z</time>
      </trkpt>
      <trkpt lat="45.52396" lon="4.62444">
        <ele>257.29</ele>
        <time>2025-05-13T13:10:06Z</time>
      </trkpt>
      <trkpt lat="45.52403" lon="4.62447">
        <ele>257.29</ele>
        <time>2025-05-13T13:10:07Z</time>
      </trkpt>
      <trkpt lat="45.52409" lon="4.62451">
        <ele>257.29</ele>
        <time>2025-05-13T13:10:08Z</time>
      </trkpt>
      <trkpt lat="45.52485" lon="4.62527">
        <ele>255.37</ele>
        <time>2025-05-13T13:10:20Z</time>
      </trkpt>
      <trkpt lat="45.52493" lon="4.6253">
        <ele>254.89</ele>
        <time>2025-05-13T13:10:21Z</time>
      </trkpt>
      <trkpt lat="45.52555" lon="4.62539">
        <ele>252.96</ele>
        <time>2025-05-13T13:10:29Z</time>
      </trkpt>
      <trkpt lat="45.52562" lon="4.62537">
        <ele>252.48</ele>
        <time>2025-05-13T13:10:30Z</time>
      </trkpt>
      <trkpt lat="45.52635" lon="4.62481">
        <ele>249.6</ele>
        <time>2025-05-13T13:10:40Z</time>
      </trkpt>
      <trkpt lat="45.52643" lon="4.62477">
        <ele>248.64</ele>
        <time>2025-05-13T13:10:41Z</time>
      </trkpt>
      <trkpt lat="45.52738" lon="4.62437">
        <ele>247.68</ele>
        <time>2025-05-13T13:10:53Z</time>
      </trkpt>
      <trkpt lat="45.52745" lon="4.62437">
        <ele>247.68</ele>
        <time>2025-05-13T13:10:54Z</time>
      </trkpt>
      <trkpt lat="45.52752" lon="4.62437">
        <ele>247.68</ele>
        <time>2025-05-13T13:10:55Z</time>
      </trkpt>
      <trkpt lat="45.5278" lon="4.62435">
        <ele>247.68</ele>
        <time>2025-05-13T13:10:59Z</time>
      </trkpt>
      <trkpt lat="45.52787" lon="4.62434">
        <ele>247.2</ele>
        <time>2025-05-13T13:11:00Z</time>
      </trkpt>
      <trkpt lat="45.52853" lon="4.62407">
        <ele>247.68</ele>
        <time>2025-05-13T13:11:11Z</time>
      </trkpt>
      <trkpt lat="45.52862" lon="4.62412">
        <ele>247.68</ele>
        <time>2025-05-13T13:11:13Z</time>
      </trkpt>
      <trkpt lat="45.52867" lon="4.62412">
        <ele>247.2</ele>
        <time>2025-05-13T13:11:14Z</time>
      </trkpt>
      <trkpt lat="45.52882" lon="4.62407">
        <ele>246.23</ele>
        <time>2025-05-13T13:11:17Z</time>
      </trkpt>
      <trkpt lat="45.52889" lon="4.62406">
        <ele>246.23</ele>
        <time>2025-05-13T13:11:18Z</time>
      </trkpt>
      <trkpt lat="45.52896" lon="4.62406">
        <ele>245.75</ele>
        <time>2025-05-13T13:11:19Z</time>
      </trkpt>
      <trkpt lat="45.52903" lon="4.62407">
        <ele>245.27</ele>
        <time>2025-05-13T13:11:20Z</time>
      </trkpt>
      <trkpt lat="45.52911" lon="4.62409">
        <ele>244.79</ele>
        <time>2025-05-13T13:11:21Z</time>
      </trkpt>
      <trkpt lat="45.52964" lon="4.62419">
        <ele>241.91</ele>
        <time>2025-05-13T13:11:27Z</time>
      </trkpt>
      <trkpt lat="45.52986" lon="4.62419">
        <ele>242.39</ele>
        <time>2025-05-13T13:11:30Z</time>
      </trkpt>
      <trkpt lat="45.52992" lon="4.62417">
        <ele>242.39</ele>
        <time>2025-05-13T13:11:31Z</time>
      </trkpt>
      <trkpt lat="45.52997" lon="4.62414">
        <ele>242.39</ele>
        <time>2025-05-13T13:11:32Z</time>
      </trkpt>
      <trkpt lat="45.53001" lon="4.62409">
        <ele>242.39</ele>
        <time>2025-05-13T13:11:33Z</time>
      </trkpt>
      <trkpt lat="45.53004" lon="4.62403">
        <ele>242.87</ele>
        <time>2025-05-13T13:11:34Z</time>
      </trkpt>
      <trkpt lat="45.53006" lon="4.62397">
        <ele>242.39</ele>
        <time>2025-05-13T13:11:35Z</time>
      </trkpt>
      <trkpt lat="45.53007" lon="4.62389">
        <ele>242.87</ele>
        <time>2025-05-13T13:11:36Z</time>
      </trkpt>
      <trkpt lat="45.53008" lon="4.62382">
        <ele>243.35</ele>
        <time>2025-05-13T13:11:37Z</time>
      </trkpt>
      <trkpt lat="45.53012" lon="4.62359">
        <ele>242.87</ele>
        <time>2025-05-13T13:11:40Z</time>
      </trkpt>
      <trkpt lat="45.53014" lon="4.62352">
        <ele>242.87</ele>
        <time>2025-05-13T13:11:41Z</time>
      </trkpt>
      <trkpt lat="45.53018" lon="4.62345">
        <ele>243.83</ele>
        <time>2025-05-13T13:11:42Z</time>
      </trkpt>
      <trkpt lat="45.53023" lon="4.6234">
        <ele>242.87</ele>
        <time>2025-05-13T13:11:43Z</time>
      </trkpt>
      <trkpt lat="45.53029" lon="4.62337">
        <ele>242.87</ele>
        <time>2025-05-13T13:11:44Z</time>
      </trkpt>
      <trkpt lat="45.53035" lon="4.62335">
        <ele>242.39</ele>
        <time>2025-05-13T13:11:45Z</time>
      </trkpt>
      <trkpt lat="45.53051" lon="4.62323">
        <ele>242.87</ele>
        <time>2025-05-13T13:11:48Z</time>
      </trkpt>
      <trkpt lat="45.53064" lon="4.62311">
        <ele>242.39</ele>
        <time>2025-05-13T13:11:51Z</time>
      </trkpt>
      <trkpt lat="45.53069" lon="4.62309">
        <ele>243.83</ele>
        <time>2025-05-13T13:11:52Z</time>
      </trkpt>
      <trkpt lat="45.53074" lon="4.62309">
        <ele>242.87</ele>
        <time>2025-05-13T13:11:53Z</time>
      </trkpt>
      <trkpt lat="45.53079" lon="4.6231">
        <ele>243.35</ele>
        <time>2025-05-13T13:11:54Z</time>
      </trkpt>
      <trkpt lat="45.53084" lon="4.62311">
        <ele>243.35</ele>
        <time>2025-05-13T13:11:55Z</time>
      </trkpt>
      <trkpt lat="45.53088" lon="4.62314">
        <ele>242.87</ele>
        <time>2025-05-13T13:11:56Z</time>
      </trkpt>
      <trkpt lat="45.53092" lon="4.62318">
        <ele>242.87</ele>
        <time>2025-05-13T13:11:57Z</time>
      </trkpt>
      <trkpt lat="45.53097" lon="4.62323">
        <ele>242.87</ele>
        <time>2025-05-13T13:11:58Z</time>
      </trkpt>
      <trkpt lat="45.53101" lon="4.62331">
        <ele>242.39</ele>
        <time>2025-05-13T13:11:59Z</time>
      </trkpt>
      <trkpt lat="45.53105" lon="4.62339">
        <ele>242.39</ele>
        <time>2025-05-13T13:12:00Z</time>
      </trkpt>
      <trkpt lat="45.53108" lon="4.62348">
        <ele>242.39</ele>
        <time>2025-05-13T13:12:01Z</time>
      </trkpt>
      <trkpt lat="45.53139" lon="4.62464">
        <ele>241.43</ele>
        <time>2025-05-13T13:12:14Z</time>
      </trkpt>
      <trkpt lat="45.5316" lon="4.62537">
        <ele>242.39</ele>
        <time>2025-05-13T13:12:24Z</time>
      </trkpt>
      <trkpt lat="45.53189" lon="4.62643">
        <ele>240.95</ele>
        <time>2025-05-13T13:12:39Z</time>
      </trkpt>
      <trkpt lat="45.53222" lon="4.62755">
        <ele>242.39</ele>
        <time>2025-05-13T13:12:56Z</time>
      </trkpt>
      <trkpt lat="45.53261" lon="4.62889">
        <ele>240.47</ele>
        <time>2025-05-13T13:13:15Z</time>
      </trkpt>
      <trkpt lat="45.53304" lon="4.63003">
        <ele>239.02</ele>
        <time>2025-05-13T13:13:31Z</time>
      </trkpt>
      <trkpt lat="45.53355" lon="4.63085">
        <ele>237.58</ele>
        <time>2025-05-13T13:13:45Z</time>
      </trkpt>
      <trkpt lat="45.53396" lon="4.63144">
        <ele>238.54</ele>
        <time>2025-05-13T13:13:56Z</time>
      </trkpt>
      <trkpt lat="45.53399" lon="4.63148">
        <ele>238.06</ele>
        <time>2025-05-13T13:13:57Z</time>
      </trkpt>
      <trkpt lat="45.53404" lon="4.63153">
        <ele>238.54</ele>
        <time>2025-05-13T13:13:58Z</time>
      </trkpt>
      <trkpt lat="45.53447" lon="4.63208">
        <ele>240.95</ele>
        <time>2025-05-13T13:14:10Z</time>
      </trkpt>
      <trkpt lat="45.53451" lon="4.63212">
        <ele>240.47</ele>
        <time>2025-05-13T13:14:11Z</time>
      </trkpt>
      <trkpt lat="45.53497" lon="4.63263">
        <ele>242.87</ele>
        <time>2025-05-13T13:14:25Z</time>
      </trkpt>
      <trkpt lat="45.53536" lon="4.63298">
        <ele>243.83</ele>
        <time>2025-05-13T13:14:35Z</time>
      </trkpt>
      <trkpt lat="45.53596" lon="4.63378">
        <ele>243.35</ele>
        <time>2025-05-13T13:14:52Z</time>
      </trkpt>
      <trkpt lat="45.53631" lon="4.63426">
        <ele>241.91</ele>
        <time>2025-05-13T13:15:06Z</time>
      </trkpt>
      <trkpt lat="45.53655" lon="4.63461">
        <ele>242.39</ele>
        <time>2025-05-13T13:15:18Z</time>
      </trkpt>
      <trkpt lat="45.53715" lon="4.63538">
        <ele>242.39</ele>
        <time>2025-05-13T13:15:34Z</time>
      </trkpt>
      <trkpt lat="45.53786" lon="4.63636">
        <ele>242.39</ele>
        <time>2025-05-13T13:15:53Z</time>
      </trkpt>
      <trkpt lat="45.53844" lon="4.63716">
        <ele>240.95</ele>
        <time>2025-05-13T13:16:08Z</time>
      </trkpt>
      <trkpt lat="45.53911" lon="4.63802">
        <ele>241.43</ele>
        <time>2025-05-13T13:16:25Z</time>
      </trkpt>
      <trkpt lat="45.53939" lon="4.63839">
        <ele>240.47</ele>
        <time>2025-05-13T13:16:32Z</time>
      </trkpt>
      <trkpt lat="45.53942" lon="4.63845">
        <ele>239.99</ele>
        <time>2025-05-13T13:16:33Z</time>
      </trkpt>
      <trkpt lat="45.5395" lon="4.63864">
        <ele>240.95</ele>
        <time>2025-05-13T13:16:36Z</time>
      </trkpt>
      <trkpt lat="45.53957" lon="4.63876">
        <ele>240.47</ele>
        <time>2025-05-13T13:16:38Z</time>
      </trkpt>
      <trkpt lat="45.53961" lon="4.63881">
        <ele>240.95</ele>
        <time>2025-05-13T13:16:39Z</time>
      </trkpt>
      <trkpt lat="45.53977" lon="4.63901">
        <ele>240.95</ele>
        <time>2025-05-13T13:16:43Z</time>
      </trkpt>
      <trkpt lat="45.54028" lon="4.63967">
        <ele>240.47</ele>
        <time>2025-05-13T13:16:56Z</time>
      </trkpt>
      <trkpt lat="45.54033" lon="4.63971">
        <ele>239.51</ele>
        <time>2025-05-13T13:16:57Z</time>
      </trkpt>
      <trkpt lat="45.54046" lon="4.63982">
        <ele>239.99</ele>
        <time>2025-05-13T13:17:00Z</time>
      </trkpt>
      <trkpt lat="45.5405" lon="4.63987">
        <ele>239.51</ele>
        <time>2025-05-13T13:17:01Z</time>
      </trkpt>
      <trkpt lat="45.54127" lon="4.64091">
        <ele>240.95</ele>
        <time>2025-05-13T13:17:22Z</time>
      </trkpt>
      <trkpt lat="45.54129" lon="4.64098">
        <ele>240.95</ele>
        <time>2025-05-13T13:17:23Z</time>
      </trkpt>
      <trkpt lat="45.54131" lon="4.64104">
        <ele>240.95</ele>
        <time>2025-05-13T13:17:24Z</time>
      </trkpt>
      <trkpt lat="45.54134" lon="4.64109">
        <ele>241.43</ele>
        <time>2025-05-13T13:17:25Z</time>
      </trkpt>
      <trkpt lat="45.54138" lon="4.64114">
        <ele>240.47</ele>
        <time>2025-05-13T13:17:26Z</time>
      </trkpt>
      <trkpt lat="45.54142" lon="4.64118">
        <ele>240.95</ele>
        <time>2025-05-13T13:17:27Z</time>
      </trkpt>
      <trkpt lat="45.54178" lon="4.64165">
        <ele>241.91</ele>
        <time>2025-05-13T13:17:37Z</time>
      </trkpt>
      <trkpt lat="45.54182" lon="4.64169">
        <ele>241.43</ele>
        <time>2025-05-13T13:17:38Z</time>
      </trkpt>
      <trkpt lat="45.54186" lon="4.64174">
        <ele>242.39</ele>
        <time>2025-05-13T13:17:39Z</time>
      </trkpt>
      <trkpt lat="45.54189" lon="4.64178">
        <ele>241.43</ele>
        <time>2025-05-13T13:17:40Z</time>
      </trkpt>
      <trkpt lat="45.54193" lon="4.64183">
        <ele>242.39</ele>
        <time>2025-05-13T13:17:41Z</time>
      </trkpt>
      <trkpt lat="45.5424" lon="4.6426">
        <ele>241.91</ele>
        <time>2025-05-13T13:17:56Z</time>
      </trkpt>
      <trkpt lat="45.54267" lon="4.64321">
        <ele>241.91</ele>
        <time>2025-05-13T13:18:06Z</time>
      </trkpt>
      <trkpt lat="45.54268" lon="4.64327">
        <ele>242.39</ele>
        <time>2025-05-13T13:18:07Z</time>
      </trkpt>
      <trkpt lat="45.54269" lon="4.64334">
        <ele>241.43</ele>
        <time>2025-05-13T13:18:08Z</time>
      </trkpt>
      <trkpt lat="45.54269" lon="4.64341">
        <ele>241.91</ele>
        <time>2025-05-13T13:18:09Z</time>
      </trkpt>
      <trkpt lat="45.54269" lon="4.64348">
        <ele>241.43</ele>
        <time>2025-05-13T13:18:10Z</time>
      </trkpt>
      <trkpt lat="45.54268" lon="4.64355">
        <ele>241.91</ele>
        <time>2025-05-13T13:18:11Z</time>
      </trkpt>
      <trkpt lat="45.54266" lon="4.64361">
        <ele>241.91</ele>
        <time>2025-05-13T13:18:12Z</time>
      </trkpt>
      <trkpt lat="45.54264" lon="4.64367">
        <ele>241.43</ele>
        <time>2025-05-13T13:18:13Z</time>
      </trkpt>
      <trkpt lat="45.54262" lon="4.64374">
        <ele>242.39</ele>
        <time>2025-05-13T13:18:14Z</time>
      </trkpt>
      <trkpt lat="45.54261" lon="4.64403">
        <ele>240.95</ele>
        <time>2025-05-13T13:18:18Z</time>
      </trkpt>
      <trkpt lat="45.54263" lon="4.6441">
        <ele>240.95</ele>
        <time>2025-05-13T13:18:19Z</time>
      </trkpt>
      <trkpt lat="45.54266" lon="4.64417">
        <ele>240.95</ele>
        <time>2025-05-13T13:18:20Z</time>
      </trkpt>
      <trkpt lat="45.54268" lon="4.64424">
        <ele>241.43</ele>
        <time>2025-05-13T13:18:21Z</time>
      </trkpt>
      <trkpt lat="45.5427" lon="4.64432">
        <ele>241.91</ele>
        <time>2025-05-13T13:18:22Z</time>
      </trkpt>
      <trkpt lat="45.5427" lon="4.64439">
        <ele>241.91</ele>
        <time>2025-05-13T13:18:23Z</time>
      </trkpt>
      <trkpt lat="45.54271" lon="4.64447">
        <ele>240.95</ele>
        <time>2025-05-13T13:18:24Z</time>
      </trkpt>
      <trkpt lat="45.54271" lon="4.64455">
        <ele>240.95</ele>
        <time>2025-05-13T13:18:25Z</time>
      </trkpt>
      <trkpt lat="45.54256" lon="4.64538">
        <ele>239.51</ele>
        <time>2025-05-13T13:18:35Z</time>
      </trkpt>
      <trkpt lat="45.54253" lon="4.64546">
        <ele>239.02</ele>
        <time>2025-05-13T13:18:36Z</time>
      </trkpt>
      <trkpt lat="45.54249" lon="4.64553">
        <ele>239.02</ele>
        <time>2025-05-13T13:18:37Z</time>
      </trkpt>
      <trkpt lat="45.54245" lon="4.64558">
        <ele>239.51</ele>
        <time>2025-05-13T13:18:38Z</time>
      </trkpt>
      <trkpt lat="45.54241" lon="4.64564">
        <ele>239.02</ele>
        <time>2025-05-13T13:18:39Z</time>
      </trkpt>
      <trkpt lat="45.54238" lon="4.64569">
        <ele>239.02</ele>
        <time>2025-05-13T13:18:40Z</time>
      </trkpt>
      <trkpt lat="45.54235" lon="4.64576">
        <ele>239.51</ele>
        <time>2025-05-13T13:18:41Z</time>
      </trkpt>
      <trkpt lat="45.54234" lon="4.64583">
        <ele>239.99</ele>
        <time>2025-05-13T13:18:42Z</time>
      </trkpt>
      <trkpt lat="45.54235" lon="4.6459">
        <ele>239.51</ele>
        <time>2025-05-13T13:18:43Z</time>
      </trkpt>
      <trkpt lat="45.54237" lon="4.64596">
        <ele>239.51</ele>
        <time>2025-05-13T13:18:44Z</time>
      </trkpt>
      <trkpt lat="45.5424" lon="4.64602">
        <ele>239.02</ele>
        <time>2025-05-13T13:18:45Z</time>
      </trkpt>
      <trkpt lat="45.54245" lon="4.64607">
        <ele>239.51</ele>
        <time>2025-05-13T13:18:46Z</time>
      </trkpt>
      <trkpt lat="45.54249" lon="4.64612">
        <ele>239.02</ele>
        <time>2025-05-13T13:18:47Z</time>
      </trkpt>
      <trkpt lat="45.54253" lon="4.64617">
        <ele>239.02</ele>
        <time>2025-05-13T13:18:48Z</time>
      </trkpt>
      <trkpt lat="45.54256" lon="4.64624">
        <ele>239.02</ele>
        <time>2025-05-13T13:18:49Z</time>
      </trkpt>
      <trkpt lat="45.54258" lon="4.64631">
        <ele>239.02</ele>
        <time>2025-05-13T13:18:50Z</time>
      </trkpt>
      <trkpt lat="45.5426" lon="4.64638">
        <ele>239.51</ele>
        <time>2025-05-13T13:18:51Z</time>
      </trkpt>
      <trkpt lat="45.54273" lon="4.64694">
        <ele>239.51</ele>
        <time>2025-05-13T13:19:00Z</time>
      </trkpt>
      <trkpt lat="45.54275" lon="4.647">
        <ele>239.02</ele>
        <time>2025-05-13T13:19:01Z</time>
      </trkpt>
      <trkpt lat="45.54276" lon="4.64706">
        <ele>239.51</ele>
        <time>2025-05-13T13:19:02Z</time>
      </trkpt>
      <trkpt lat="45.54301" lon="4.64796">
        <ele>241.43</ele>
        <time>2025-05-13T13:19:17Z</time>
      </trkpt>
      <trkpt lat="45.54315" lon="4.64848">
        <ele>241.43</ele>
        <time>2025-05-13T13:19:25Z</time>
      </trkpt>
      <trkpt lat="45.54317" lon="4.64854">
        <ele>240.95</ele>
        <time>2025-05-13T13:19:26Z</time>
      </trkpt>
      <trkpt lat="45.54319" lon="4.64861">
        <ele>241.91</ele>
        <time>2025-05-13T13:19:27Z</time>
      </trkpt>
      <trkpt lat="45.54335" lon="4.64927">
        <ele>241.43</ele>
        <time>2025-05-13T13:19:37Z</time>
      </trkpt>
      <trkpt lat="45.54347" lon="4.65045">
        <ele>241.43</ele>
        <time>2025-05-13T13:19:54Z</time>
      </trkpt>
      <trkpt lat="45.54348" lon="4.65166">
        <ele>241.43</ele>
        <time>2025-05-13T13:20:11Z</time>
      </trkpt>
      <trkpt lat="45.54343" lon="4.65209">
        <ele>240.95</ele>
        <time>2025-05-13T13:20:17Z</time>
      </trkpt>
      <trkpt lat="45.54307" lon="4.65315">
        <ele>241.43</ele>
        <time>2025-05-13T13:20:33Z</time>
      </trkpt>
      <trkpt lat="45.54276" lon="4.65428">
        <ele>240.95</ele>
        <time>2025-05-13T13:20:50Z</time>
      </trkpt>
      <trkpt lat="45.54278" lon="4.65458">
        <ele>241.43</ele>
        <time>2025-05-13T13:20:54Z</time>
      </trkpt>
      <trkpt lat="45.54279" lon="4.65466">
        <ele>241.43</ele>
        <time>2025-05-13T13:20:55Z</time>
      </trkpt>
      <trkpt lat="45.54281" lon="4.65472">
        <ele>240.95</ele>
        <time>2025-05-13T13:20:56Z</time>
      </trkpt>
      <trkpt lat="45.54285" lon="4.65486">
        <ele>241.43</ele>
        <time>2025-05-13T13:20:58Z</time>
      </trkpt>
      <trkpt lat="45.5434" lon="4.65601">
        <ele>239.51</ele>
        <time>2025-05-13T13:21:14Z</time>
      </trkpt>
      <trkpt lat="45.54396" lon="4.6575">
        <ele>237.1</ele>
        <time>2025-05-13T13:21:32Z</time>
      </trkpt>
      <trkpt lat="45.5443" lon="4.6595">
        <ele>235.18</ele>
        <time>2025-05-13T13:21:54Z</time>
      </trkpt>
      <trkpt lat="45.54433" lon="4.6609">
        <ele>235.66</ele>
        <time>2025-05-13T13:22:10Z</time>
      </trkpt>
      <trkpt lat="45.54429" lon="4.66107">
        <ele>235.66</ele>
        <time>2025-05-13T13:22:12Z</time>
      </trkpt>
      <trkpt lat="45.54419" lon="4.66137">
        <ele>235.66</ele>
        <time>2025-05-13T13:22:16Z</time>
      </trkpt>
      <trkpt lat="45.54405" lon="4.66169">
        <ele>235.66</ele>
        <time>2025-05-13T13:22:21Z</time>
      </trkpt>
      <trkpt lat="45.54403" lon="4.66175">
        <ele>235.66</ele>
        <time>2025-05-13T13:22:22Z</time>
      </trkpt>
      <trkpt lat="45.54397" lon="4.66277">
        <ele>235.18</ele>
        <time>2025-05-13T13:22:35Z</time>
      </trkpt>
      <trkpt lat="45.54404" lon="4.66414">
        <ele>235.18</ele>
        <time>2025-05-13T13:22:52Z</time>
      </trkpt>
      <trkpt lat="45.54413" lon="4.6656">
        <ele>235.66</ele>
        <time>2025-05-13T13:23:10Z</time>
      </trkpt>
      <trkpt lat="45.54418" lon="4.66574">
        <ele>235.66</ele>
        <time>2025-05-13T13:23:12Z</time>
      </trkpt>
      <trkpt lat="45.54422" lon="4.6658">
        <ele>235.66</ele>
        <time>2025-05-13T13:23:13Z</time>
      </trkpt>
      <trkpt lat="45.54425" lon="4.66586">
        <ele>235.66</ele>
        <time>2025-05-13T13:23:14Z</time>
      </trkpt>
      <trkpt lat="45.5443" lon="4.66591">
        <ele>235.66</ele>
        <time>2025-05-13T13:23:15Z</time>
      </trkpt>
      <trkpt lat="45.54435" lon="4.66595">
        <ele>235.66</ele>
        <time>2025-05-13T13:23:16Z</time>
      </trkpt>
      <trkpt lat="45.5444" lon="4.66598">
        <ele>235.18</ele>
        <time>2025-05-13T13:23:17Z</time>
      </trkpt>
      <trkpt lat="45.54445" lon="4.66601">
        <ele>235.66</ele>
        <time>2025-05-13T13:23:18Z</time>
      </trkpt>
      <trkpt lat="45.54451" lon="4.66602">
        <ele>235.66</ele>
        <time>2025-05-13T13:23:19Z</time>
      </trkpt>
      <trkpt lat="45.54457" lon="4.66603">
        <ele>235.66</ele>
        <time>2025-05-13T13:23:20Z</time>
      </trkpt>
      <trkpt lat="45.54548" lon="4.66611">
        <ele>235.18</ele>
        <time>2025-05-13T13:23:35Z</time>
      </trkpt>
      <trkpt lat="45.54559" lon="4.66614">
        <ele>234.7</ele>
        <time>2025-05-13T13:23:37Z</time>
      </trkpt>
      <trkpt lat="45.54565" lon="4.66617">
        <ele>235.18</ele>
        <time>2025-05-13T13:23:38Z</time>
      </trkpt>
      <trkpt lat="45.5457" lon="4.6662">
        <ele>234.7</ele>
        <time>2025-05-13T13:23:39Z</time>
      </trkpt>
      <trkpt lat="45.54575" lon="4.66625">
        <ele>234.7</ele>
        <time>2025-05-13T13:23:40Z</time>
      </trkpt>
      <trkpt lat="45.5458" lon="4.66629">
        <ele>234.7</ele>
        <time>2025-05-13T13:23:41Z</time>
      </trkpt>
      <trkpt lat="45.54653" lon="4.66725">
        <ele>234.7</ele>
        <time>2025-05-13T13:23:57Z</time>
      </trkpt>
      <trkpt lat="45.54697" lon="4.66828">
        <ele>234.22</ele>
        <time>2025-05-13T13:24:12Z</time>
      </trkpt>
      <trkpt lat="45.54698" lon="4.66836">
        <ele>233.74</ele>
        <time>2025-05-13T13:24:13Z</time>
      </trkpt>
      <trkpt lat="45.54699" lon="4.66843">
        <ele>234.22</ele>
        <time>2025-05-13T13:24:14Z</time>
      </trkpt>
      <trkpt lat="45.54697" lon="4.66892">
        <ele>234.7</ele>
        <time>2025-05-13T13:24:20Z</time>
      </trkpt>
      <trkpt lat="45.54685" lon="4.66947">
        <ele>234.7</ele>
        <time>2025-05-13T13:24:27Z</time>
      </trkpt>
      <trkpt lat="45.54684" lon="4.66954">
        <ele>233.74</ele>
        <time>2025-05-13T13:24:28Z</time>
      </trkpt>
      <trkpt lat="45.54683" lon="4.66962">
        <ele>234.22</ele>
        <time>2025-05-13T13:24:29Z</time>
      </trkpt>
      <trkpt lat="45.54684" lon="4.6697">
        <ele>234.22</ele>
        <time>2025-05-13T13:24:30Z</time>
      </trkpt>
      <trkpt lat="45.54685" lon="4.66978">
        <ele>234.22</ele>
        <time>2025-05-13T13:24:31Z</time>
      </trkpt>
      <trkpt lat="45.54686" lon="4.66986">
        <ele>234.22</ele>
        <time>2025-05-13T13:24:32Z</time>
      </trkpt>
      <trkpt lat="45.54687" lon="4.66993">
        <ele>233.74</ele>
        <time>2025-05-13T13:24:33Z</time>
      </trkpt>
      <trkpt lat="45.54689" lon="4.67001">
        <ele>234.22</ele>
        <time>2025-05-13T13:24:34Z</time>
      </trkpt>
      <trkpt lat="45.54691" lon="4.67008">
        <ele>233.74</ele>
        <time>2025-05-13T13:24:35Z</time>
      </trkpt>
      <trkpt lat="45.54694" lon="4.67015">
        <ele>233.74</ele>
        <time>2025-05-13T13:24:36Z</time>
      </trkpt>
      <trkpt lat="45.54697" lon="4.67022">
        <ele>233.74</ele>
        <time>2025-05-13T13:24:37Z</time>
      </trkpt>
      <trkpt lat="45.54701" lon="4.67029">
        <ele>233.74</ele>
        <time>2025-05-13T13:24:38Z</time>
      </trkpt>
      <trkpt lat="45.54704" lon="4.67035">
        <ele>234.22</ele>
        <time>2025-05-13T13:24:39Z</time>
      </trkpt>
      <trkpt lat="45.54709" lon="4.67041">
        <ele>234.22</ele>
        <time>2025-05-13T13:24:40Z</time>
      </trkpt>
      <trkpt lat="45.54713" lon="4.67047">
        <ele>233.74</ele>
        <time>2025-05-13T13:24:41Z</time>
      </trkpt>
      <trkpt lat="45.54776" lon="4.67111">
        <ele>232.78</ele>
        <time>2025-05-13T13:24:54Z</time>
      </trkpt>
      <trkpt lat="45.54846" lon="4.67169">
        <ele>231.81</ele>
        <time>2025-05-13T13:25:08Z</time>
      </trkpt>
      <trkpt lat="45.5485" lon="4.67176">
        <ele>232.3</ele>
        <time>2025-05-13T13:25:09Z</time>
      </trkpt>
      <trkpt lat="45.54853" lon="4.67182">
        <ele>232.78</ele>
        <time>2025-05-13T13:25:10Z</time>
      </trkpt>
      <trkpt lat="45.54856" lon="4.6719">
        <ele>232.78</ele>
        <time>2025-05-13T13:25:11Z</time>
      </trkpt>
      <trkpt lat="45.54858" lon="4.67197">
        <ele>233.26</ele>
        <time>2025-05-13T13:25:12Z</time>
      </trkpt>
      <trkpt lat="45.54912" lon="4.67328">
        <ele>230.85</ele>
        <time>2025-05-13T13:25:30Z</time>
      </trkpt>
      <trkpt lat="45.54922" lon="4.67338">
        <ele>230.85</ele>
        <time>2025-05-13T13:25:32Z</time>
      </trkpt>
      <trkpt lat="45.54927" lon="4.67342">
        <ele>230.85</ele>
        <time>2025-05-13T13:25:33Z</time>
      </trkpt>
      <trkpt lat="45.54933" lon="4.67344">
        <ele>230.37</ele>
        <time>2025-05-13T13:25:34Z</time>
      </trkpt>
      <trkpt lat="45.54946" lon="4.67348">
        <ele>230.37</ele>
        <time>2025-05-13T13:25:36Z</time>
      </trkpt>
      <trkpt lat="45.5496" lon="4.67349">
        <ele>230.37</ele>
        <time>2025-05-13T13:25:38Z</time>
      </trkpt>
      <trkpt lat="45.54966" lon="4.67348">
        <ele>230.37</ele>
        <time>2025-05-13T13:25:39Z</time>
      </trkpt>
      <trkpt lat="45.54973" lon="4.67346">
        <ele>230.37</ele>
        <time>2025-05-13T13:25:40Z</time>
      </trkpt>
      <trkpt lat="45.55028" lon="4.67329">
        <ele>230.37</ele>
        <time>2025-05-13T13:25:49Z</time>
      </trkpt>
      <trkpt lat="45.55034" lon="4.67329">
        <ele>229.89</ele>
        <time>2025-05-13T13:25:50Z</time>
      </trkpt>
      <trkpt lat="45.5504" lon="4.6733">
        <ele>229.89</ele>
        <time>2025-05-13T13:25:51Z</time>
      </trkpt>
      <trkpt lat="45.55052" lon="4.67333">
        <ele>229.89</ele>
        <time>2025-05-13T13:25:53Z</time>
      </trkpt>
      <trkpt lat="45.55129" lon="4.67382">
        <ele>229.89</ele>
        <time>2025-05-13T13:26:07Z</time>
      </trkpt>
      <trkpt lat="45.55201" lon="4.67485">
        <ele>228.45</ele>
        <time>2025-05-13T13:26:23Z</time>
      </trkpt>
      <trkpt lat="45.55256" lon="4.67583">
        <ele>226.53</ele>
        <time>2025-05-13T13:26:36Z</time>
      </trkpt>
      <trkpt lat="45.55259" lon="4.67591">
        <ele>226.53</ele>
        <time>2025-05-13T13:26:37Z</time>
      </trkpt>
      <trkpt lat="45.55262" lon="4.67599">
        <ele>226.53</ele>
        <time>2025-05-13T13:26:38Z</time>
      </trkpt>
      <trkpt lat="45.55265" lon="4.67608">
        <ele>226.53</ele>
        <time>2025-05-13T13:26:39Z</time>
      </trkpt>
      <trkpt lat="45.55267" lon="4.67617">
        <ele>226.53</ele>
        <time>2025-05-13T13:26:40Z</time>
      </trkpt>
      <trkpt lat="45.55269" lon="4.67626">
        <ele>226.53</ele>
        <time>2025-05-13T13:26:41Z</time>
      </trkpt>
      <trkpt lat="45.5527" lon="4.67635">
        <ele>226.53</ele>
        <time>2025-05-13T13:26:42Z</time>
      </trkpt>
      <trkpt lat="45.5527" lon="4.67645">
        <ele>226.53</ele>
        <time>2025-05-13T13:26:43Z</time>
      </trkpt>
      <trkpt lat="45.55259" lon="4.67728">
        <ele>226.05</ele>
        <time>2025-05-13T13:26:52Z</time>
      </trkpt>
      <trkpt lat="45.55199" lon="4.67855">
        <ele>224.61</ele>
        <time>2025-05-13T13:27:08Z</time>
      </trkpt>
      <trkpt lat="45.55174" lon="4.67886">
        <ele>223.64</ele>
        <time>2025-05-13T13:27:13Z</time>
      </trkpt>
      <trkpt lat="45.55126" lon="4.67952">
        <ele>222.2</ele>
        <time>2025-05-13T13:27:24Z</time>
      </trkpt>
      <trkpt lat="45.55123" lon="4.6796">
        <ele>222.68</ele>
        <time>2025-05-13T13:27:25Z</time>
      </trkpt>
      <trkpt lat="45.55121" lon="4.67969">
        <ele>221.72</ele>
        <time>2025-05-13T13:27:26Z</time>
      </trkpt>
      <trkpt lat="45.5512" lon="4.67977">
        <ele>222.68</ele>
        <time>2025-05-13T13:27:27Z</time>
      </trkpt>
      <trkpt lat="45.5512" lon="4.67986">
        <ele>222.2</ele>
        <time>2025-05-13T13:27:28Z</time>
      </trkpt>
      <trkpt lat="45.55121" lon="4.67996">
        <ele>222.2</ele>
        <time>2025-05-13T13:27:29Z</time>
      </trkpt>
      <trkpt lat="45.55123" lon="4.68004">
        <ele>222.2</ele>
        <time>2025-05-13T13:27:30Z</time>
      </trkpt>
      <trkpt lat="45.55125" lon="4.68013">
        <ele>222.2</ele>
        <time>2025-05-13T13:27:31Z</time>
      </trkpt>
      <trkpt lat="45.55128" lon="4.68021">
        <ele>222.2</ele>
        <time>2025-05-13T13:27:32Z</time>
      </trkpt>
      <trkpt lat="45.55132" lon="4.68028">
        <ele>221.72</ele>
        <time>2025-05-13T13:27:33Z</time>
      </trkpt>
      <trkpt lat="45.55137" lon="4.68034">
        <ele>222.2</ele>
        <time>2025-05-13T13:27:34Z</time>
      </trkpt>
      <trkpt lat="45.55142" lon="4.6804">
        <ele>221.72</ele>
        <time>2025-05-13T13:27:35Z</time>
      </trkpt>
      <trkpt lat="45.55147" lon="4.68045">
        <ele>221.72</ele>
        <time>2025-05-13T13:27:36Z</time>
      </trkpt>
      <trkpt lat="45.55153" lon="4.68049">
        <ele>221.24</ele>
        <time>2025-05-13T13:27:37Z</time>
      </trkpt>
      <trkpt lat="45.55158" lon="4.68053">
        <ele>221.24</ele>
        <time>2025-05-13T13:27:38Z</time>
      </trkpt>
      <trkpt lat="45.55176" lon="4.68063">
        <ele>221.24</ele>
        <time>2025-05-13T13:27:41Z</time>
      </trkpt>
      <trkpt lat="45.55221" lon="4.68084">
        <ele>220.28</ele>
        <time>2025-05-13T13:27:48Z</time>
      </trkpt>
      <trkpt lat="45.55308" lon="4.68126">
        <ele>218.36</ele>
        <time>2025-05-13T13:28:02Z</time>
      </trkpt>
      <trkpt lat="45.55403" lon="4.68146">
        <ele>216.91</ele>
        <time>2025-05-13T13:28:17Z</time>
      </trkpt>
      <trkpt lat="45.55499" lon="4.68145">
        <ele>216.43</ele>
        <time>2025-05-13T13:28:32Z</time>
      </trkpt>
      <trkpt lat="45.55543" lon="4.68148">
        <ele>216.43</ele>
        <time>2025-05-13T13:28:39Z</time>
      </trkpt>
      <trkpt lat="45.55548" lon="4.6815">
        <ele>216.43</ele>
        <time>2025-05-13T13:28:40Z</time>
      </trkpt>
      <trkpt lat="45.5558" lon="4.68174">
        <ele>216.43</ele>
        <time>2025-05-13T13:28:46Z</time>
      </trkpt>
      <trkpt lat="45.55584" lon="4.6818">
        <ele>215.95</ele>
        <time>2025-05-13T13:28:47Z</time>
      </trkpt>
      <trkpt lat="45.55643" lon="4.68283">
        <ele>216.91</ele>
        <time>2025-05-13T13:29:03Z</time>
      </trkpt>
      <trkpt lat="45.55676" lon="4.6834">
        <ele>217.4</ele>
        <time>2025-05-13T13:29:12Z</time>
      </trkpt>
      <trkpt lat="45.5568" lon="4.68346">
        <ele>216.91</ele>
        <time>2025-05-13T13:29:13Z</time>
      </trkpt>
      <trkpt lat="45.55732" lon="4.68444">
        <ele>216.91</ele>
        <time>2025-05-13T13:29:28Z</time>
      </trkpt>
      <trkpt lat="45.55784" lon="4.68557">
        <ele>216.43</ele>
        <time>2025-05-13T13:29:45Z</time>
      </trkpt>
      <trkpt lat="45.55838" lon="4.68654">
        <ele>215.47</ele>
        <time>2025-05-13T13:30:00Z</time>
      </trkpt>
      <trkpt lat="45.55849" lon="4.68692">
        <ele>215.47</ele>
        <time>2025-05-13T13:30:05Z</time>
      </trkpt>
      <trkpt lat="45.55851" lon="4.687">
        <ele>215.95</ele>
        <time>2025-05-13T13:30:06Z</time>
      </trkpt>
      <trkpt lat="45.55852" lon="4.68707">
        <ele>215.95</ele>
        <time>2025-05-13T13:30:07Z</time>
      </trkpt>
      <trkpt lat="45.5588" lon="4.68859">
        <ele>217.4</ele>
        <time>2025-05-13T13:30:28Z</time>
      </trkpt>
      <trkpt lat="45.55922" lon="4.68987">
        <ele>217.88</ele>
        <time>2025-05-13T13:30:47Z</time>
      </trkpt>
      <trkpt lat="45.55932" lon="4.69081">
        <ele>218.84</ele>
        <time>2025-05-13T13:31:00Z</time>
      </trkpt>
      <trkpt lat="45.55933" lon="4.69088">
        <ele>218.36</ele>
        <time>2025-05-13T13:31:01Z</time>
      </trkpt>
      <trkpt lat="45.55935" lon="4.69095">
        <ele>218.36</ele>
        <time>2025-05-13T13:31:02Z</time>
      </trkpt>
      <trkpt lat="45.55936" lon="4.69102">
        <ele>218.36</ele>
        <time>2025-05-13T13:31:03Z</time>
      </trkpt>
      <trkpt lat="45.55988" lon="4.69216">
        <ele>217.88</ele>
        <time>2025-05-13T13:31:20Z</time>
      </trkpt>
      <trkpt lat="45.56085" lon="4.69366">
        <ele>215.95</ele>
        <time>2025-05-13T13:31:44Z</time>
      </trkpt>
      <trkpt lat="45.56132" lon="4.69424">
        <ele>215.47</ele>
        <time>2025-05-13T13:31:54Z</time>
      </trkpt>
      <trkpt lat="45.56211" lon="4.69477">
        <ele>214.51</ele>
        <time>2025-05-13T13:32:08Z</time>
      </trkpt>
      <trkpt lat="45.56223" lon="4.69481">
        <ele>214.51</ele>
        <time>2025-05-13T13:32:10Z</time>
      </trkpt>
      <trkpt lat="45.56315" lon="4.69527">
        <ele>213.55</ele>
        <time>2025-05-13T13:32:25Z</time>
      </trkpt>
      <trkpt lat="45.56378" lon="4.69594">
        <ele>212.59</ele>
        <time>2025-05-13T13:32:37Z</time>
      </trkpt>
      <trkpt lat="45.56397" lon="4.6963">
        <ele>212.59</ele>
        <time>2025-05-13T13:32:42Z</time>
      </trkpt>
      <trkpt lat="45.56412" lon="4.69676">
        <ele>212.59</ele>
        <time>2025-05-13T13:32:48Z</time>
      </trkpt>
      <trkpt lat="45.56413" lon="4.69685">
        <ele>212.59</ele>
        <time>2025-05-13T13:32:49Z</time>
      </trkpt>
      <trkpt lat="45.56428" lon="4.69813">
        <ele>211.63</ele>
        <time>2025-05-13T13:33:04Z</time>
      </trkpt>
      <trkpt lat="45.56428" lon="4.69897">
        <ele>210.67</ele>
        <time>2025-05-13T13:33:13Z</time>
      </trkpt>
      <trkpt lat="45.56418" lon="4.69953">
        <ele>210.67</ele>
        <time>2025-05-13T13:33:19Z</time>
      </trkpt>
      <trkpt lat="45.56412" lon="4.69969">
        <ele>209.7</ele>
        <time>2025-05-13T13:33:21Z</time>
      </trkpt>
      <trkpt lat="45.56408" lon="4.69977">
        <ele>209.7</ele>
        <time>2025-05-13T13:33:22Z</time>
      </trkpt>
      <trkpt lat="45.56382" lon="4.70018">
        <ele>209.22</ele>
        <time>2025-05-13T13:33:28Z</time>
      </trkpt>
      <trkpt lat="45.56379" lon="4.70026">
        <ele>209.22</ele>
        <time>2025-05-13T13:33:29Z</time>
      </trkpt>
      <trkpt lat="45.56377" lon="4.70036">
        <ele>209.22</ele>
        <time>2025-05-13T13:33:30Z</time>
      </trkpt>
      <trkpt lat="45.56376" lon="4.70045">
        <ele>209.22</ele>
        <time>2025-05-13T13:33:31Z</time>
      </trkpt>
      <trkpt lat="45.56377" lon="4.70054">
        <ele>209.22</ele>
        <time>2025-05-13T13:33:32Z</time>
      </trkpt>
      <trkpt lat="45.56378" lon="4.70064">
        <ele>209.7</ele>
        <time>2025-05-13T13:33:33Z</time>
      </trkpt>
      <trkpt lat="45.5638" lon="4.70074">
        <ele>209.22</ele>
        <time>2025-05-13T13:33:34Z</time>
      </trkpt>
      <trkpt lat="45.56383" lon="4.70083">
        <ele>209.22</ele>
        <time>2025-05-13T13:33:35Z</time>
      </trkpt>
      <trkpt lat="45.56387" lon="4.70092">
        <ele>208.74</ele>
        <time>2025-05-13T13:33:36Z</time>
      </trkpt>
      <trkpt lat="45.56391" lon="4.701">
        <ele>209.22</ele>
        <time>2025-05-13T13:33:37Z</time>
      </trkpt>
      <trkpt lat="45.56395" lon="4.70108">
        <ele>208.26</ele>
        <time>2025-05-13T13:33:38Z</time>
      </trkpt>
      <trkpt lat="45.56458" lon="4.70234">
        <ele>206.82</ele>
        <time>2025-05-13T13:33:53Z</time>
      </trkpt>
      <trkpt lat="45.56477" lon="4.70263">
        <ele>206.34</ele>
        <time>2025-05-13T13:33:57Z</time>
      </trkpt>
      <trkpt lat="45.56488" lon="4.70274">
        <ele>205.86</ele>
        <time>2025-05-13T13:33:59Z</time>
      </trkpt>
      <trkpt lat="45.56494" lon="4.70279">
        <ele>205.38</ele>
        <time>2025-05-13T13:34:00Z</time>
      </trkpt>
      <trkpt lat="45.565" lon="4.70282">
        <ele>205.38</ele>
        <time>2025-05-13T13:34:01Z</time>
      </trkpt>
      <trkpt lat="45.56507" lon="4.70284">
        <ele>205.86</ele>
        <time>2025-05-13T13:34:02Z</time>
      </trkpt>
      <trkpt lat="45.56515" lon="4.70285">
        <ele>205.38</ele>
        <time>2025-05-13T13:34:03Z</time>
      </trkpt>
      <trkpt lat="45.56522" lon="4.70286">
        <ele>205.86</ele>
        <time>2025-05-13T13:34:04Z</time>
      </trkpt>
      <trkpt lat="45.56565" lon="4.7029">
        <ele>203.94</ele>
        <time>2025-05-13T13:34:10Z</time>
      </trkpt>
      <trkpt lat="45.56644" lon="4.7034">
        <ele>202.98</ele>
        <time>2025-05-13T13:34:22Z</time>
      </trkpt>
      <trkpt lat="45.56712" lon="4.70418">
        <ele>201.05</ele>
        <time>2025-05-13T13:34:35Z</time>
      </trkpt>
      <trkpt lat="45.56796" lon="4.70527">
        <ele>202.01</ele>
        <time>2025-05-13T13:34:53Z</time>
      </trkpt>
      <trkpt lat="45.56803" lon="4.70542">
        <ele>201.53</ele>
        <time>2025-05-13T13:34:55Z</time>
      </trkpt>
      <trkpt lat="45.56806" lon="4.7055">
        <ele>202.01</ele>
        <time>2025-05-13T13:34:56Z</time>
      </trkpt>
      <trkpt lat="45.56808" lon="4.70558">
        <ele>202.01</ele>
        <time>2025-05-13T13:34:57Z</time>
      </trkpt>
      <trkpt lat="45.56809" lon="4.70566">
        <ele>201.53</ele>
        <time>2025-05-13T13:34:58Z</time>
      </trkpt>
      <trkpt lat="45.56811" lon="4.70574">
        <ele>202.49</ele>
        <time>2025-05-13T13:34:59Z</time>
      </trkpt>
      <trkpt lat="45.56811" lon="4.70582">
        <ele>202.01</ele>
        <time>2025-05-13T13:35:00Z</time>
      </trkpt>
      <trkpt lat="45.56811" lon="4.70591">
        <ele>202.49</ele>
        <time>2025-05-13T13:35:01Z</time>
      </trkpt>
      <trkpt lat="45.56811" lon="4.70599">
        <ele>202.49</ele>
        <time>2025-05-13T13:35:02Z</time>
      </trkpt>
      <trkpt lat="45.5681" lon="4.70607">
        <ele>202.49</ele>
        <time>2025-05-13T13:35:03Z</time>
      </trkpt>
      <trkpt lat="45.56808" lon="4.70623">
        <ele>202.49</ele>
        <time>2025-05-13T13:35:05Z</time>
      </trkpt>
      <trkpt lat="45.56804" lon="4.70667">
        <ele>202.98</ele>
        <time>2025-05-13T13:35:11Z</time>
      </trkpt>
      <trkpt lat="45.56806" lon="4.70674">
        <ele>203.46</ele>
        <time>2025-05-13T13:35:12Z</time>
      </trkpt>
      <trkpt lat="45.56807" lon="4.70682">
        <ele>202.98</ele>
        <time>2025-05-13T13:35:13Z</time>
      </trkpt>
      <trkpt lat="45.56809" lon="4.70689">
        <ele>203.46</ele>
        <time>2025-05-13T13:35:14Z</time>
      </trkpt>
      <trkpt lat="45.56811" lon="4.70696">
        <ele>202.98</ele>
        <time>2025-05-13T13:35:15Z</time>
      </trkpt>
      <trkpt lat="45.56813" lon="4.70703">
        <ele>203.94</ele>
        <time>2025-05-13T13:35:16Z</time>
      </trkpt>
      <trkpt lat="45.56854" lon="4.70808">
        <ele>204.42</ele>
        <time>2025-05-13T13:35:32Z</time>
      </trkpt>
      <trkpt lat="45.56912" lon="4.7092">
        <ele>203.46</ele>
        <time>2025-05-13T13:35:49Z</time>
      </trkpt>
      <trkpt lat="45.56975" lon="4.71007">
        <ele>202.49</ele>
        <time>2025-05-13T13:36:04Z</time>
      </trkpt>
      <trkpt lat="45.57064" lon="4.71078">
        <ele>202.49</ele>
        <time>2025-05-13T13:36:20Z</time>
      </trkpt>
      <trkpt lat="45.57078" lon="4.71094">
        <ele>200.57</ele>
        <time>2025-05-13T13:36:23Z</time>
      </trkpt>
      <trkpt lat="45.57164" lon="4.71191">
        <ele>199.61</ele>
        <time>2025-05-13T13:36:41Z</time>
      </trkpt>
      <trkpt lat="45.57257" lon="4.71297">
        <ele>198.17</ele>
        <time>2025-05-13T13:37:00Z</time>
      </trkpt>
      <trkpt lat="45.5728" lon="4.71323">
        <ele>198.65</ele>
        <time>2025-05-13T13:37:05Z</time>
      </trkpt>
      <trkpt lat="45.57353" lon="4.7135">
        <ele>197.69</ele>
        <time>2025-05-13T13:37:18Z</time>
      </trkpt>
      <trkpt lat="45.57366" lon="4.7135">
        <ele>196.73</ele>
        <time>2025-05-13T13:37:20Z</time>
      </trkpt>
      <trkpt lat="45.5741" lon="4.71365">
        <ele>195.77</ele>
        <time>2025-05-13T13:37:27Z</time>
      </trkpt>
      <trkpt lat="45.57415" lon="4.71371">
        <ele>195.28</ele>
        <time>2025-05-13T13:37:28Z</time>
      </trkpt>
      <trkpt lat="45.57421" lon="4.71377">
        <ele>195.28</ele>
        <time>2025-05-13T13:37:29Z</time>
      </trkpt>
      <trkpt lat="45.57426" lon="4.71383">
        <ele>195.28</ele>
        <time>2025-05-13T13:37:30Z</time>
      </trkpt>
      <trkpt lat="45.57431" lon="4.7139">
        <ele>195.28</ele>
        <time>2025-05-13T13:37:31Z</time>
      </trkpt>
      <trkpt lat="45.57446" lon="4.71419">
        <ele>195.28</ele>
        <time>2025-05-13T13:37:35Z</time>
      </trkpt>
      <trkpt lat="45.57481" lon="4.71525">
        <ele>194.32</ele>
        <time>2025-05-13T13:37:48Z</time>
      </trkpt>
      <trkpt lat="45.57505" lon="4.71624">
        <ele>193.84</ele>
        <time>2025-05-13T13:37:59Z</time>
      </trkpt>
      <trkpt lat="45.57504" lon="4.71633">
        <ele>193.84</ele>
        <time>2025-05-13T13:38:00Z</time>
      </trkpt>
      <trkpt lat="45.57503" lon="4.71643">
        <ele>193.36</ele>
        <time>2025-05-13T13:38:01Z</time>
      </trkpt>
      <trkpt lat="45.57501" lon="4.71661">
        <ele>193.84</ele>
        <time>2025-05-13T13:38:03Z</time>
      </trkpt>
      <trkpt lat="45.57495" lon="4.71695">
        <ele>192.88</ele>
        <time>2025-05-13T13:38:07Z</time>
      </trkpt>
      <trkpt lat="45.57495" lon="4.71704">
        <ele>192.88</ele>
        <time>2025-05-13T13:38:08Z</time>
      </trkpt>
      <trkpt lat="45.57496" lon="4.71713">
        <ele>192.4</ele>
        <time>2025-05-13T13:38:09Z</time>
      </trkpt>
      <trkpt lat="45.57497" lon="4.71722">
        <ele>192.88</ele>
        <time>2025-05-13T13:38:10Z</time>
      </trkpt>
      <trkpt lat="45.57499" lon="4.71731">
        <ele>192.88</ele>
        <time>2025-05-13T13:38:11Z</time>
      </trkpt>
      <trkpt lat="45.57501" lon="4.71739">
        <ele>192.88</ele>
        <time>2025-05-13T13:38:12Z</time>
      </trkpt>
      <trkpt lat="45.57504" lon="4.71748">
        <ele>192.88</ele>
        <time>2025-05-13T13:38:13Z</time>
      </trkpt>
      <trkpt lat="45.57507" lon="4.71756">
        <ele>192.88</ele>
        <time>2025-05-13T13:38:14Z</time>
      </trkpt>
      <trkpt lat="45.57511" lon="4.71764">
        <ele>193.36</ele>
        <time>2025-05-13T13:38:15Z</time>
      </trkpt>
      <trkpt lat="45.57527" lon="4.71792">
        <ele>192.4</ele>
        <time>2025-05-13T13:38:19Z</time>
      </trkpt>
      <trkpt lat="45.57532" lon="4.71797">
        <ele>192.4</ele>
        <time>2025-05-13T13:38:20Z</time>
      </trkpt>
      <trkpt lat="45.57538" lon="4.71802">
        <ele>192.4</ele>
        <time>2025-05-13T13:38:21Z</time>
      </trkpt>
      <trkpt lat="45.57543" lon="4.71805">
        <ele>192.4</ele>
        <time>2025-05-13T13:38:22Z</time>
      </trkpt>
      <trkpt lat="45.57548" lon="4.71809">
        <ele>191.92</ele>
        <time>2025-05-13T13:38:23Z</time>
      </trkpt>
      <trkpt lat="45.57554" lon="4.71812">
        <ele>192.4</ele>
        <time>2025-05-13T13:38:24Z</time>
      </trkpt>
      <trkpt lat="45.57588" lon="4.71833">
        <ele>191.44</ele>
        <time>2025-05-13T13:38:30Z</time>
      </trkpt>
      <trkpt lat="45.57593" lon="4.71838">
        <ele>192.4</ele>
        <time>2025-05-13T13:38:31Z</time>
      </trkpt>
      <trkpt lat="45.57607" lon="4.71856">
        <ele>191.44</ele>
        <time>2025-05-13T13:38:34Z</time>
      </trkpt>
      <trkpt lat="45.5766" lon="4.71962">
        <ele>191.92</ele>
        <time>2025-05-13T13:38:49Z</time>
      </trkpt>
      <trkpt lat="45.57711" lon="4.72102">
        <ele>191.92</ele>
        <time>2025-05-13T13:39:07Z</time>
      </trkpt>
      <trkpt lat="45.57734" lon="4.7222">
        <ele>192.4</ele>
        <time>2025-05-13T13:39:22Z</time>
      </trkpt>
      <trkpt lat="45.57742" lon="4.72241">
        <ele>192.4</ele>
        <time>2025-05-13T13:39:25Z</time>
      </trkpt>
      <trkpt lat="45.57788" lon="4.72296">
        <ele>191.92</ele>
        <time>2025-05-13T13:39:36Z</time>
      </trkpt>
      <trkpt lat="45.57793" lon="4.723">
        <ele>191.92</ele>
        <time>2025-05-13T13:39:37Z</time>
      </trkpt>
      <trkpt lat="45.57808" lon="4.7231">
        <ele>192.4</ele>
        <time>2025-05-13T13:39:40Z</time>
      </trkpt>
      <trkpt lat="45.57871" lon="4.72349">
        <ele>191.44</ele>
        <time>2025-05-13T13:39:52Z</time>
      </trkpt>
      <trkpt lat="45.57932" lon="4.72429">
        <ele>190.48</ele>
        <time>2025-05-13T13:40:06Z</time>
      </trkpt>
      <trkpt lat="45.57972" lon="4.72551">
        <ele>190.96</ele>
        <time>2025-05-13T13:40:22Z</time>
      </trkpt>
      <trkpt lat="45.58037" lon="4.72698">
        <ele>190.48</ele>
        <time>2025-05-13T13:40:42Z</time>
      </trkpt>
      <trkpt lat="45.58048" lon="4.7273">
        <ele>190</ele>
        <time>2025-05-13T13:40:46Z</time>
      </trkpt>
      <trkpt lat="45.58047" lon="4.72843">
        <ele>189.52</ele>
        <time>2025-05-13T13:40:59Z</time>
      </trkpt>
      <trkpt lat="45.58012" lon="4.72952">
        <ele>189.04</ele>
        <time>2025-05-13T13:41:13Z</time>
      </trkpt>
      <trkpt lat="45.57981" lon="4.73076">
        <ele>188.08</ele>
        <time>2025-05-13T13:41:28Z</time>
      </trkpt>
      <trkpt lat="45.57958" lon="4.73204">
        <ele>186.15</ele>
        <time>2025-05-13T13:41:42Z</time>
      </trkpt>
      <trkpt lat="45.57956" lon="4.73212">
        <ele>186.15</ele>
        <time>2025-05-13T13:41:43Z</time>
      </trkpt>
      <trkpt lat="45.57954" lon="4.73221">
        <ele>185.67</ele>
        <time>2025-05-13T13:41:44Z</time>
      </trkpt>
      <trkpt lat="45.57938" lon="4.73341">
        <ele>186.15</ele>
        <time>2025-05-13T13:41:58Z</time>
      </trkpt>
      <trkpt lat="45.57939" lon="4.73349">
        <ele>186.63</ele>
        <time>2025-05-13T13:41:59Z</time>
      </trkpt>
      <trkpt lat="45.5794" lon="4.73357">
        <ele>186.63</ele>
        <time>2025-05-13T13:42:00Z</time>
      </trkpt>
      <trkpt lat="45.57952" lon="4.73392">
        <ele>185.67</ele>
        <time>2025-05-13T13:42:04Z</time>
      </trkpt>
      <trkpt lat="45.57955" lon="4.734">
        <ele>186.63</ele>
        <time>2025-05-13T13:42:05Z</time>
      </trkpt>
      <trkpt lat="45.58018" lon="4.73529">
        <ele>184.71</ele>
        <time>2025-05-13T13:42:23Z</time>
      </trkpt>
      <trkpt lat="45.58088" lon="4.73671">
        <ele>184.23</ele>
        <time>2025-05-13T13:42:43Z</time>
      </trkpt>
      <trkpt lat="45.5815" lon="4.73794">
        <ele>183.27</ele>
        <time>2025-05-13T13:43:01Z</time>
      </trkpt>
      <trkpt lat="45.58204" lon="4.73909">
        <ele>182.79</ele>
        <time>2025-05-13T13:43:19Z</time>
      </trkpt>
      <trkpt lat="45.5826" lon="4.74029">
        <ele>182.79</ele>
        <time>2025-05-13T13:43:38Z</time>
      </trkpt>
      <trkpt lat="45.5828" lon="4.74118">
        <ele>184.71</ele>
        <time>2025-05-13T13:43:51Z</time>
      </trkpt>
      <trkpt lat="45.58305" lon="4.74231">
        <ele>184.23</ele>
        <time>2025-05-13T13:44:09Z</time>
      </trkpt>
      <trkpt lat="45.58308" lon="4.74243">
        <ele>184.23</ele>
        <time>2025-05-13T13:44:11Z</time>
      </trkpt>
      <trkpt lat="45.58325" lon="4.74354">
        <ele>185.19</ele>
        <time>2025-05-13T13:44:29Z</time>
      </trkpt>
      <trkpt lat="45.5835" lon="4.74485">
        <ele>183.75</ele>
        <time>2025-05-13T13:44:49Z</time>
      </trkpt>
      <trkpt lat="45.58393" lon="4.74604">
        <ele>183.75</ele>
        <time>2025-05-13T13:45:07Z</time>
      </trkpt>
      <trkpt lat="45.58444" lon="4.74715">
        <ele>181.83</ele>
        <time>2025-05-13T13:45:24Z</time>
      </trkpt>
      <trkpt lat="45.58496" lon="4.74837">
        <ele>181.83</ele>
        <time>2025-05-13T13:45:43Z</time>
      </trkpt>
      <trkpt lat="45.58499" lon="4.74852">
        <ele>181.35</ele>
        <time>2025-05-13T13:45:45Z</time>
      </trkpt>
      <trkpt lat="45.58513" lon="4.74955">
        <ele>181.35</ele>
        <time>2025-05-13T13:45:59Z</time>
      </trkpt>
      <trkpt lat="45.58515" lon="4.74962">
        <ele>181.35</ele>
        <time>2025-05-13T13:46:00Z</time>
      </trkpt>
      <trkpt lat="45.58559" lon="4.75079">
        <ele>179.9</ele>
        <time>2025-05-13T13:46:17Z</time>
      </trkpt>
      <trkpt lat="45.58599" lon="4.75183">
        <ele>179.42</ele>
        <time>2025-05-13T13:46:32Z</time>
      </trkpt>
      <trkpt lat="45.58627" lon="4.75307">
        <ele>178.46</ele>
        <time>2025-05-13T13:46:50Z</time>
      </trkpt>
      <trkpt lat="45.58626" lon="4.75312">
        <ele>177.98</ele>
        <time>2025-05-13T13:46:51Z</time>
      </trkpt>
      <trkpt lat="45.58624" lon="4.75316">
        <ele>177.98</ele>
        <time>2025-05-13T13:46:52Z</time>
      </trkpt>
      <trkpt lat="45.58602" lon="4.75364">
        <ele>178.46</ele>
        <time>2025-05-13T13:47:01Z</time>
      </trkpt>
      <trkpt lat="45.58602" lon="4.75372">
        <ele>178.46</ele>
        <time>2025-05-13T13:47:02Z</time>
      </trkpt>
      <trkpt lat="45.58602" lon="4.75379">
        <ele>177.98</ele>
        <time>2025-05-13T13:47:03Z</time>
      </trkpt>
      <trkpt lat="45.58602" lon="4.75387">
        <ele>177.98</ele>
        <time>2025-05-13T13:47:04Z</time>
      </trkpt>
      <trkpt lat="45.58601" lon="4.75395">
        <ele>177.5</ele>
        <time>2025-05-13T13:47:05Z</time>
      </trkpt>
      <trkpt lat="45.586" lon="4.75404">
        <ele>177.5</ele>
        <time>2025-05-13T13:47:06Z</time>
      </trkpt>
      <trkpt lat="45.586" lon="4.75412">
        <ele>177.98</ele>
        <time>2025-05-13T13:47:07Z</time>
      </trkpt>
      <trkpt lat="45.58601" lon="4.7542">
        <ele>177.5</ele>
        <time>2025-05-13T13:47:08Z</time>
      </trkpt>
      <trkpt lat="45.58603" lon="4.75429">
        <ele>177.02</ele>
        <time>2025-05-13T13:47:09Z</time>
      </trkpt>
      <trkpt lat="45.58607" lon="4.75436">
        <ele>176.54</ele>
        <time>2025-05-13T13:47:10Z</time>
      </trkpt>
      <trkpt lat="45.58612" lon="4.75443">
        <ele>176.54</ele>
        <time>2025-05-13T13:47:11Z</time>
      </trkpt>
      <trkpt lat="45.58617" lon="4.75448">
        <ele>176.54</ele>
        <time>2025-05-13T13:47:12Z</time>
      </trkpt>
      <trkpt lat="45.58634" lon="4.75469">
        <ele>175.1</ele>
        <time>2025-05-13T13:47:15Z</time>
      </trkpt>
      <trkpt lat="45.58639" lon="4.75478">
        <ele>174.62</ele>
        <time>2025-05-13T13:47:16Z</time>
      </trkpt>
      <trkpt lat="45.58643" lon="4.75487">
        <ele>174.14</ele>
        <time>2025-05-13T13:47:17Z</time>
      </trkpt>
      <trkpt lat="45.58647" lon="4.75496">
        <ele>174.14</ele>
        <time>2025-05-13T13:47:18Z</time>
      </trkpt>
      <trkpt lat="45.58651" lon="4.75507">
        <ele>173.66</ele>
        <time>2025-05-13T13:47:19Z</time>
      </trkpt>
      <trkpt lat="45.58654" lon="4.75517">
        <ele>173.17</ele>
        <time>2025-05-13T13:47:20Z</time>
      </trkpt>
      <trkpt lat="45.58675" lon="4.75593">
        <ele>172.21</ele>
        <time>2025-05-13T13:47:27Z</time>
      </trkpt>
      <trkpt lat="45.58676" lon="4.75604">
        <ele>172.21</ele>
        <time>2025-05-13T13:47:28Z</time>
      </trkpt>
      <trkpt lat="45.58676" lon="4.75615">
        <ele>172.21</ele>
        <time>2025-05-13T13:47:29Z</time>
      </trkpt>
      <trkpt lat="45.58673" lon="4.75624">
        <ele>172.69</ele>
        <time>2025-05-13T13:47:30Z</time>
      </trkpt>
      <trkpt lat="45.58669" lon="4.75631">
        <ele>172.21</ele>
        <time>2025-05-13T13:47:31Z</time>
      </trkpt>
      <trkpt lat="45.58666" lon="4.75639">
        <ele>172.69</ele>
        <time>2025-05-13T13:47:32Z</time>
      </trkpt>
      <trkpt lat="45.58664" lon="4.75646">
        <ele>172.21</ele>
        <time>2025-05-13T13:47:33Z</time>
      </trkpt>
      <trkpt lat="45.58665" lon="4.75654">
        <ele>172.69</ele>
        <time>2025-05-13T13:47:34Z</time>
      </trkpt>
      <trkpt lat="45.58667" lon="4.75661">
        <ele>173.17</ele>
        <time>2025-05-13T13:47:35Z</time>
      </trkpt>
      <trkpt lat="45.5867" lon="4.75666">
        <ele>172.69</ele>
        <time>2025-05-13T13:47:36Z</time>
      </trkpt>
      <trkpt lat="45.58675" lon="4.7567">
        <ele>172.69</ele>
        <time>2025-05-13T13:47:37Z</time>
      </trkpt>
      <trkpt lat="45.58681" lon="4.75673">
        <ele>172.21</ele>
        <time>2025-05-13T13:47:38Z</time>
      </trkpt>
      <trkpt lat="45.58686" lon="4.75677">
        <ele>171.73</ele>
        <time>2025-05-13T13:47:39Z</time>
      </trkpt>
      <trkpt lat="45.58691" lon="4.75682">
        <ele>172.21</ele>
        <time>2025-05-13T13:47:40Z</time>
      </trkpt>
      <trkpt lat="45.58695" lon="4.75689">
        <ele>171.73</ele>
        <time>2025-05-13T13:47:41Z</time>
      </trkpt>
      <trkpt lat="45.58699" lon="4.75697">
        <ele>171.73</ele>
        <time>2025-05-13T13:47:42Z</time>
      </trkpt>
      <trkpt lat="45.58702" lon="4.75706">
        <ele>171.73</ele>
        <time>2025-05-13T13:47:43Z</time>
      </trkpt>
      <trkpt lat="45.58705" lon="4.75714">
        <ele>171.73</ele>
        <time>2025-05-13T13:47:44Z</time>
      </trkpt>
      <trkpt lat="45.58707" lon="4.75723">
        <ele>171.73</ele>
        <time>2025-05-13T13:47:45Z</time>
      </trkpt>
      <trkpt lat="45.58708" lon="4.75732">
        <ele>171.25</ele>
        <time>2025-05-13T13:47:46Z</time>
      </trkpt>
      <trkpt lat="45.58741" lon="4.75867">
        <ele>172.21</ele>
        <time>2025-05-13T13:48:03Z</time>
      </trkpt>
      <trkpt lat="45.58773" lon="4.75998">
        <ele>173.17</ele>
        <time>2025-05-13T13:48:22Z</time>
      </trkpt>
      <trkpt lat="45.58783" lon="4.76036">
        <ele>173.66</ele>
        <time>2025-05-13T13:48:28Z</time>
      </trkpt>
      <trkpt lat="45.58784" lon="4.76042">
        <ele>173.66</ele>
        <time>2025-05-13T13:48:29Z</time>
      </trkpt>
      <trkpt lat="45.58784" lon="4.76048">
        <ele>173.17</ele>
        <time>2025-05-13T13:48:30Z</time>
      </trkpt>
      <trkpt lat="45.58785" lon="4.76055">
        <ele>172.69</ele>
        <time>2025-05-13T13:48:31Z</time>
      </trkpt>
      <trkpt lat="45.58786" lon="4.76061">
        <ele>173.17</ele>
        <time>2025-05-13T13:48:32Z</time>
      </trkpt>
      <trkpt lat="45.5879" lon="4.76066">
        <ele>172.69</ele>
        <time>2025-05-13T13:48:33Z</time>
      </trkpt>
      <trkpt lat="45.58794" lon="4.76067">
        <ele>173.17</ele>
        <time>2025-05-13T13:48:34Z</time>
      </trkpt>
      <trkpt lat="45.58798" lon="4.76066">
        <ele>173.66</ele>
        <time>2025-05-13T13:48:35Z</time>
      </trkpt>
      <trkpt lat="45.58801" lon="4.76062">
        <ele>173.66</ele>
        <time>2025-05-13T13:48:36Z</time>
      </trkpt>
      <trkpt lat="45.58804" lon="4.76058">
        <ele>173.66</ele>
        <time>2025-05-13T13:48:37Z</time>
      </trkpt>
      <trkpt lat="45.58806" lon="4.76053">
        <ele>173.66</ele>
        <time>2025-05-13T13:48:38Z</time>
      </trkpt>
      <trkpt lat="45.58808" lon="4.76047">
        <ele>173.66</ele>
        <time>2025-05-13T13:48:39Z</time>
      </trkpt>
      <trkpt lat="45.58823" lon="4.76032">
        <ele>174.62</ele>
        <time>2025-05-13T13:48:44Z</time>
      </trkpt>
      <trkpt lat="45.58826" lon="4.76034">
        <ele>174.14</ele>
        <time>2025-05-13T13:48:45Z</time>
      </trkpt>
      <trkpt lat="45.58829" lon="4.76037">
        <ele>174.14</ele>
        <time>2025-05-13T13:48:46Z</time>
      </trkpt>
      <trkpt lat="45.58831" lon="4.76042">
        <ele>174.14</ele>
        <time>2025-05-13T13:48:47Z</time>
      </trkpt>
      <trkpt lat="45.58833" lon="4.76048">
        <ele>173.66</ele>
        <time>2025-05-13T13:48:48Z</time>
      </trkpt>
      <trkpt lat="45.58851" lon="4.76096">
        <ele>171.25</ele>
        <time>2025-05-13T13:48:54Z</time>
      </trkpt>
      <trkpt lat="45.5887" lon="4.76136">
        <ele>170.77</ele>
        <time>2025-05-13T13:48:59Z</time>
      </trkpt>
      <trkpt lat="45.58874" lon="4.7614">
        <ele>170.29</ele>
        <time>2025-05-13T13:49:00Z</time>
      </trkpt>
      <trkpt lat="45.5888" lon="4.76143">
        <ele>170.77</ele>
        <time>2025-05-13T13:49:01Z</time>
      </trkpt>
      <trkpt lat="45.58886" lon="4.76144">
        <ele>170.29</ele>
        <time>2025-05-13T13:49:02Z</time>
      </trkpt>
      <trkpt lat="45.58891" lon="4.76144">
        <ele>169.81</ele>
        <time>2025-05-13T13:49:03Z</time>
      </trkpt>
      <trkpt lat="45.58969" lon="4.76174">
        <ele>171.25</ele>
        <time>2025-05-13T13:49:18Z</time>
      </trkpt>
      <trkpt lat="45.58973" lon="4.76177">
        <ele>172.21</ele>
        <time>2025-05-13T13:49:19Z</time>
      </trkpt>
      <trkpt lat="45.59051" lon="4.76247">
        <ele>170.77</ele>
        <time>2025-05-13T13:49:35Z</time>
      </trkpt>
      <trkpt lat="45.59122" lon="4.76279">
        <ele>169.81</ele>
        <time>2025-05-13T13:49:48Z</time>
      </trkpt>
      <trkpt lat="45.59199" lon="4.76311">
        <ele>169.33</ele>
        <time>2025-05-13T13:50:02Z</time>
      </trkpt>
      <trkpt lat="45.59269" lon="4.76358">
        <ele>169.33</ele>
        <time>2025-05-13T13:50:16Z</time>
      </trkpt>
      <trkpt lat="45.5931" lon="4.76393">
        <ele>169.81</ele>
        <time>2025-05-13T13:50:28Z</time>
      </trkpt>
      <trkpt lat="45.59316" lon="4.76396">
        <ele>169.81</ele>
        <time>2025-05-13T13:50:55Z</time>
      </trkpt>
      <trkpt lat="45.59342" lon="4.7643">
        <ele>169.81</ele>
        <time>2025-05-13T13:51:06Z</time>
      </trkpt>
      <trkpt lat="45.59346" lon="4.76433">
        <ele>169.81</ele>
        <time>2025-05-13T13:51:07Z</time>
      </trkpt>
      <trkpt lat="45.5935" lon="4.76436">
        <ele>169.81</ele>
        <time>2025-05-13T13:51:08Z</time>
      </trkpt>
      <trkpt lat="45.59414" lon="4.76483">
        <ele>169.81</ele>
        <time>2025-05-13T13:51:23Z</time>
      </trkpt>
      <trkpt lat="45.5949" lon="4.76547">
        <ele>168.37</ele>
        <time>2025-05-13T13:51:40Z</time>
      </trkpt>
      <trkpt lat="45.59558" lon="4.76607">
        <ele>170.77</ele>
        <time>2025-05-13T13:51:57Z</time>
      </trkpt>
      <trkpt lat="45.5962" lon="4.76657">
        <ele>169.81</ele>
        <time>2025-05-13T13:52:13Z</time>
      </trkpt>
      <trkpt lat="45.59635" lon="4.7667">
        <ele>169.81</ele>
        <time>2025-05-13T13:52:17Z</time>
      </trkpt>
      <trkpt lat="45.59647" lon="4.76676">
        <ele>170.29</ele>
        <time>2025-05-13T13:52:20Z</time>
      </trkpt>
      <trkpt lat="45.59651" lon="4.76678">
        <ele>170.29</ele>
        <time>2025-05-13T13:52:21Z</time>
      </trkpt>
      <trkpt lat="45.59701" lon="4.76682">
        <ele>170.77</ele>
        <time>2025-05-13T13:52:33Z</time>
      </trkpt>
      <trkpt lat="45.59721" lon="4.76685">
        <ele>171.73</ele>
        <time>2025-05-13T13:52:38Z</time>
      </trkpt>
      <trkpt lat="45.59777" lon="4.76729">
        <ele>171.73</ele>
        <time>2025-05-13T13:52:52Z</time>
      </trkpt>
      <trkpt lat="45.59813" lon="4.76764">
        <ele>170.77</ele>
        <time>2025-05-13T13:53:01Z</time>
      </trkpt>
      <trkpt lat="45.59857" lon="4.76843">
        <ele>170.77</ele>
        <time>2025-05-13T13:53:17Z</time>
      </trkpt>
      <trkpt lat="45.59873" lon="4.7688">
        <ele>171.25</ele>
        <time>2025-05-13T13:53:27Z</time>
      </trkpt>
      <trkpt lat="45.59873" lon="4.76881">
        <ele>171.25</ele>
        <time>2025-05-13T13:53:28Z</time>
      </trkpt>
      <trkpt lat="45.59874" lon="4.76886">
        <ele>170.29</ele>
        <time>2025-05-13T13:53:45Z</time>
      </trkpt>
      <trkpt lat="45.59874" lon="4.76887">
        <ele>170.77</ele>
        <time>2025-05-13T13:53:46Z</time>
      </trkpt>
      <trkpt lat="45.59875" lon="4.7689">
        <ele>171.25</ele>
        <time>2025-05-13T13:53:47Z</time>
      </trkpt>
      <trkpt lat="45.59875" lon="4.76892">
        <ele>170.29</ele>
        <time>2025-05-13T13:53:48Z</time>
      </trkpt>
      <trkpt lat="45.59876" lon="4.76895">
        <ele>170.77</ele>
        <time>2025-05-13T13:53:49Z</time>
      </trkpt>
      <trkpt lat="45.59877" lon="4.76898">
        <ele>170.77</ele>
        <time>2025-05-13T13:53:50Z</time>
      </trkpt>
      <trkpt lat="45.59878" lon="4.76901">
        <ele>170.77</ele>
        <time>2025-05-13T13:53:51Z</time>
      </trkpt>
      <trkpt lat="45.59879" lon="4.76905">
        <ele>170.77</ele>
        <time>2025-05-13T13:53:52Z</time>
      </trkpt>
      <trkpt lat="45.5988" lon="4.76909">
        <ele>170.77</ele>
        <time>2025-05-13T13:53:53Z</time>
      </trkpt>
      <trkpt lat="45.59882" lon="4.76913">
        <ele>170.77</ele>
        <time>2025-05-13T13:53:54Z</time>
      </trkpt>
      <trkpt lat="45.59884" lon="4.76916">
        <ele>170.77</ele>
        <time>2025-05-13T13:53:55Z</time>
      </trkpt>
      <trkpt lat="45.59887" lon="4.76918">
        <ele>171.25</ele>
        <time>2025-05-13T13:53:56Z</time>
      </trkpt>
      <trkpt lat="45.5989" lon="4.7692">
        <ele>171.25</ele>
        <time>2025-05-13T13:53:57Z</time>
      </trkpt>
      <trkpt lat="45.59893" lon="4.76921">
        <ele>171.25</ele>
        <time>2025-05-13T13:53:58Z</time>
      </trkpt>
      <trkpt lat="45.59952" lon="4.76942">
        <ele>170.77</ele>
        <time>2025-05-13T13:54:12Z</time>
      </trkpt>
      <trkpt lat="45.60027" lon="4.76975">
        <ele>170.77</ele>
        <time>2025-05-13T13:54:28Z</time>
      </trkpt>
      <trkpt lat="45.60115" lon="4.77011">
        <ele>171.25</ele>
        <time>2025-05-13T13:54:47Z</time>
      </trkpt>
      <trkpt lat="45.60164" lon="4.77035">
        <ele>171.73</ele>
        <time>2025-05-13T13:55:02Z</time>
      </trkpt>
      <trkpt lat="45.60207" lon="4.77057">
        <ele>172.21</ele>
        <time>2025-05-13T13:55:13Z</time>
      </trkpt>
      <trkpt lat="45.60291" lon="4.77084">
        <ele>173.17</ele>
        <time>2025-05-13T13:55:32Z</time>
      </trkpt>
      <trkpt lat="45.60369" lon="4.77115">
        <ele>173.66</ele>
        <time>2025-05-13T13:55:50Z</time>
      </trkpt>
      <trkpt lat="45.60475" lon="4.77158">
        <ele>173.17</ele>
        <time>2025-05-13T13:56:12Z</time>
      </trkpt>
      <trkpt lat="45.6055" lon="4.77191">
        <ele>173.17</ele>
        <time>2025-05-13T13:56:28Z</time>
      </trkpt>
      <trkpt lat="45.60627" lon="4.77227">
        <ele>173.66</ele>
        <time>2025-05-13T13:56:47Z</time>
      </trkpt>
      <trkpt lat="45.60666" lon="4.77246">
        <ele>174.14</ele>
        <time>2025-05-13T13:56:59Z</time>
      </trkpt>
      <trkpt lat="45.60705" lon="4.77262">
        <ele>174.62</ele>
        <time>2025-05-13T13:57:14Z</time>
      </trkpt>
      <trkpt lat="45.60765" lon="4.77269">
        <ele>175.1</ele>
        <time>2025-05-13T13:57:27Z</time>
      </trkpt>
      <trkpt lat="45.60855" lon="4.77239">
        <ele>175.58</ele>
        <time>2025-05-13T13:57:45Z</time>
      </trkpt>
      <trkpt lat="45.60933" lon="4.77198">
        <ele>175.1</ele>
        <time>2025-05-13T13:58:01Z</time>
      </trkpt>
      <trkpt lat="45.61039" lon="4.77148">
        <ele>175.58</ele>
        <time>2025-05-13T13:58:23Z</time>
      </trkpt>
      <trkpt lat="45.61118" lon="4.77111">
        <ele>176.54</ele>
        <time>2025-05-13T13:58:40Z</time>
      </trkpt>
      <trkpt lat="45.61197" lon="4.77076">
        <ele>176.54</ele>
        <time>2025-05-13T13:58:58Z</time>
      </trkpt>
      <trkpt lat="45.61247" lon="4.7705">
        <ele>176.06</ele>
        <time>2025-05-13T13:59:15Z</time>
      </trkpt>
      <trkpt lat="45.6125" lon="4.77047">
        <ele>176.54</ele>
        <time>2025-05-13T13:59:30Z</time>
      </trkpt>
      <trkpt lat="45.6126" lon="4.77042">
        <ele>177.02</ele>
        <time>2025-05-13T13:59:52Z</time>
      </trkpt>
      <trkpt lat="45.61297" lon="4.77023">
        <ele>177.02</ele>
        <time>2025-05-13T14:00:04Z</time>
      </trkpt>
      <trkpt lat="45.61365" lon="4.76988">
        <ele>177.02</ele>
        <time>2025-05-13T14:00:20Z</time>
      </trkpt>
      <trkpt lat="45.61449" lon="4.76946">
        <ele>177.5</ele>
        <time>2025-05-13T14:00:40Z</time>
      </trkpt>
      <trkpt lat="45.61526" lon="4.76909">
        <ele>178.94</ele>
        <time>2025-05-13T14:00:59Z</time>
      </trkpt>
      <trkpt lat="45.61601" lon="4.76874">
        <ele>179.9</ele>
        <time>2025-05-13T14:01:17Z</time>
      </trkpt>
      <trkpt lat="45.61626" lon="4.7686">
        <ele>178.94</ele>
        <time>2025-05-13T14:01:23Z</time>
      </trkpt>
      <trkpt lat="45.6163" lon="4.76858">
        <ele>178.94</ele>
        <time>2025-05-13T14:01:24Z</time>
      </trkpt>
      <trkpt lat="45.61639" lon="4.76857">
        <ele>179.42</ele>
        <time>2025-05-13T14:01:26Z</time>
      </trkpt>
      <trkpt lat="45.61643" lon="4.76855">
        <ele>179.42</ele>
        <time>2025-05-13T14:01:27Z</time>
      </trkpt>
      <trkpt lat="45.61667" lon="4.76849">
        <ele>179.42</ele>
        <time>2025-05-13T14:01:33Z</time>
      </trkpt>
      <trkpt lat="45.61682" lon="4.76843">
        <ele>179.9</ele>
        <time>2025-05-13T14:01:37Z</time>
      </trkpt>
      <trkpt lat="45.61686" lon="4.76844">
        <ele>179.9</ele>
        <time>2025-05-13T14:01:38Z</time>
      </trkpt>
      <trkpt lat="45.6169" lon="4.76846">
        <ele>179.42</ele>
        <time>2025-05-13T14:01:39Z</time>
      </trkpt>
      <trkpt lat="45.61694" lon="4.76849">
        <ele>179.42</ele>
        <time>2025-05-13T14:01:40Z</time>
      </trkpt>
      <trkpt lat="45.61698" lon="4.76852">
        <ele>179.42</ele>
        <time>2025-05-13T14:01:41Z</time>
      </trkpt>
      <trkpt lat="45.61703" lon="4.76856">
        <ele>179.42</ele>
        <time>2025-05-13T14:01:42Z</time>
      </trkpt>
      <trkpt lat="45.61707" lon="4.76858">
        <ele>179.42</ele>
        <time>2025-05-13T14:01:43Z</time>
      </trkpt>
      <trkpt lat="45.61712" lon="4.76859">
        <ele>179.42</ele>
        <time>2025-05-13T14:01:44Z</time>
      </trkpt>
      <trkpt lat="45.61717" lon="4.76858">
        <ele>179.42</ele>
        <time>2025-05-13T14:01:45Z</time>
      </trkpt>
      <trkpt lat="45.61721" lon="4.76856">
        <ele>179.42</ele>
        <time>2025-05-13T14:01:46Z</time>
      </trkpt>
      <trkpt lat="45.61725" lon="4.76853">
        <ele>178.94</ele>
        <time>2025-05-13T14:01:47Z</time>
      </trkpt>
      <trkpt lat="45.61729" lon="4.7685">
        <ele>178.94</ele>
        <time>2025-05-13T14:01:48Z</time>
      </trkpt>
      <trkpt lat="45.61733" lon="4.76847">
        <ele>178.94</ele>
        <time>2025-05-13T14:01:49Z</time>
      </trkpt>
      <trkpt lat="45.61737" lon="4.76844">
        <ele>179.42</ele>
        <time>2025-05-13T14:01:50Z</time>
      </trkpt>
      <trkpt lat="45.61742" lon="4.76842">
        <ele>179.42</ele>
        <time>2025-05-13T14:01:51Z</time>
      </trkpt>
      <trkpt lat="45.61746" lon="4.76841">
        <ele>179.42</ele>
        <time>2025-05-13T14:01:52Z</time>
      </trkpt>
      <trkpt lat="45.61754" lon="4.76837">
        <ele>179.42</ele>
        <time>2025-05-13T14:01:54Z</time>
      </trkpt>
      <trkpt lat="45.61758" lon="4.76834">
        <ele>179.42</ele>
        <time>2025-05-13T14:01:55Z</time>
      </trkpt>
      <trkpt lat="45.61761" lon="4.76829">
        <ele>179.42</ele>
        <time>2025-05-13T14:01:56Z</time>
      </trkpt>
      <trkpt lat="45.61764" lon="4.76824">
        <ele>179.42</ele>
        <time>2025-05-13T14:01:57Z</time>
      </trkpt>
      <trkpt lat="45.61767" lon="4.76819">
        <ele>179.42</ele>
        <time>2025-05-13T14:01:58Z</time>
      </trkpt>
      <trkpt lat="45.61779" lon="4.76798">
        <ele>179.42</ele>
        <time>2025-05-13T14:02:02Z</time>
      </trkpt>
      <trkpt lat="45.61789" lon="4.76785">
        <ele>179.9</ele>
        <time>2025-05-13T14:02:05Z</time>
      </trkpt>
      <trkpt lat="45.61856" lon="4.76747">
        <ele>179.9</ele>
        <time>2025-05-13T14:02:21Z</time>
      </trkpt>
      <trkpt lat="45.61876" lon="4.76736">
        <ele>180.38</ele>
        <time>2025-05-13T14:02:26Z</time>
      </trkpt>
      <trkpt lat="45.61952" lon="4.767">
        <ele>180.87</ele>
        <time>2025-05-13T14:02:44Z</time>
      </trkpt>
      <trkpt lat="45.62009" lon="4.76673">
        <ele>181.35</ele>
        <time>2025-05-13T14:02:58Z</time>
      </trkpt>
      <trkpt lat="45.62071" lon="4.76638">
        <ele>182.31</ele>
        <time>2025-05-13T14:03:13Z</time>
      </trkpt>
      <trkpt lat="45.62116" lon="4.76605">
        <ele>183.75</ele>
        <time>2025-05-13T14:03:25Z</time>
      </trkpt>
      <trkpt lat="45.62182" lon="4.76544">
        <ele>183.75</ele>
        <time>2025-05-13T14:03:44Z</time>
      </trkpt>
      <trkpt lat="45.62255" lon="4.7647">
        <ele>183.27</ele>
        <time>2025-05-13T14:04:04Z</time>
      </trkpt>
      <trkpt lat="45.62322" lon="4.76394">
        <ele>183.75</ele>
        <time>2025-05-13T14:04:23Z</time>
      </trkpt>
      <trkpt lat="45.62395" lon="4.76316">
        <ele>184.23</ele>
        <time>2025-05-13T14:04:43Z</time>
      </trkpt>
      <trkpt lat="45.62432" lon="4.76278">
        <ele>185.19</ele>
        <time>2025-05-13T14:04:53Z</time>
      </trkpt>
      <trkpt lat="45.62493" lon="4.76217">
        <ele>185.19</ele>
        <time>2025-05-13T14:05:09Z</time>
      </trkpt>
      <trkpt lat="45.62515" lon="4.76193">
        <ele>185.67</ele>
        <time>2025-05-13T14:05:15Z</time>
      </trkpt>
      <trkpt lat="45.62589" lon="4.76128">
        <ele>185.67</ele>
        <time>2025-05-13T14:05:34Z</time>
      </trkpt>
      <trkpt lat="45.62643" lon="4.76084">
        <ele>186.63</ele>
        <time>2025-05-13T14:05:49Z</time>
      </trkpt>
      <trkpt lat="45.62654" lon="4.76075">
        <ele>186.15</ele>
        <time>2025-05-13T14:05:52Z</time>
      </trkpt>
      <trkpt lat="45.62735" lon="4.76007">
        <ele>186.63</ele>
        <time>2025-05-13T14:06:14Z</time>
      </trkpt>
      <trkpt lat="45.6281" lon="4.75948">
        <ele>187.59</ele>
        <time>2025-05-13T14:06:34Z</time>
      </trkpt>
      <trkpt lat="45.62872" lon="4.75897">
        <ele>188.56</ele>
        <time>2025-05-13T14:06:51Z</time>
      </trkpt>
      <trkpt lat="45.62883" lon="4.75889">
        <ele>188.56</ele>
        <time>2025-05-13T14:06:54Z</time>
      </trkpt>
      <trkpt lat="45.62954" lon="4.7583">
        <ele>188.56</ele>
        <time>2025-05-13T14:07:13Z</time>
      </trkpt>
      <trkpt lat="45.63035" lon="4.75776">
        <ele>190</ele>
        <time>2025-05-13T14:07:33Z</time>
      </trkpt>
      <trkpt lat="45.6313" lon="4.75729">
        <ele>190.96</ele>
        <time>2025-05-13T14:07:56Z</time>
      </trkpt>
      <trkpt lat="45.63216" lon="4.7569">
        <ele>191.92</ele>
        <time>2025-05-13T14:08:17Z</time>
      </trkpt>
      <trkpt lat="45.63307" lon="4.75646">
        <ele>192.4</ele>
        <time>2025-05-13T14:08:40Z</time>
      </trkpt>
      <trkpt lat="45.63394" lon="4.75608">
        <ele>192.4</ele>
        <time>2025-05-13T14:09:00Z</time>
      </trkpt>
      <trkpt lat="45.6348" lon="4.7559">
        <ele>193.36</ele>
        <time>2025-05-13T14:09:19Z</time>
      </trkpt>
      <trkpt lat="45.63484" lon="4.75591">
        <ele>193.36</ele>
        <time>2025-05-13T14:09:20Z</time>
      </trkpt>
      <trkpt lat="45.63564" lon="4.7561">
        <ele>193.36</ele>
        <time>2025-05-13T14:09:37Z</time>
      </trkpt>
      <trkpt lat="45.63635" lon="4.7563">
        <ele>194.32</ele>
        <time>2025-05-13T14:09:53Z</time>
      </trkpt>
      <trkpt lat="45.63644" lon="4.75632">
        <ele>194.8</ele>
        <time>2025-05-13T14:09:55Z</time>
      </trkpt>
      <trkpt lat="45.6371" lon="4.75635">
        <ele>194.32</ele>
        <time>2025-05-13T14:10:09Z</time>
      </trkpt>
      <trkpt lat="45.63783" lon="4.75637">
        <ele>195.28</ele>
        <time>2025-05-13T14:10:25Z</time>
      </trkpt>
      <trkpt lat="45.63842" lon="4.75638">
        <ele>197.21</ele>
        <time>2025-05-13T14:10:41Z</time>
      </trkpt>
      <trkpt lat="45.63913" lon="4.75638">
        <ele>198.17</ele>
        <time>2025-05-13T14:11:01Z</time>
      </trkpt>
      <trkpt lat="45.63975" lon="4.75606">
        <ele>200.09</ele>
        <time>2025-05-13T14:11:19Z</time>
      </trkpt>
      <trkpt lat="45.64026" lon="4.75578">
        <ele>200.57</ele>
        <time>2025-05-13T14:11:33Z</time>
      </trkpt>
      <trkpt lat="45.64034" lon="4.75536">
        <ele>199.61</ele>
        <time>2025-05-13T14:11:41Z</time>
      </trkpt>
      <trkpt lat="45.64039" lon="4.75524">
        <ele>199.61</ele>
        <time>2025-05-13T14:11:43Z</time>
      </trkpt>
      <trkpt lat="45.64041" lon="4.75518">
        <ele>200.09</ele>
        <time>2025-05-13T14:11:44Z</time>
      </trkpt>
      <trkpt lat="45.64092" lon="4.75452">
        <ele>200.09</ele>
        <time>2025-05-13T14:12:00Z</time>
      </trkpt>
      <trkpt lat="45.64145" lon="4.75383">
        <ele>201.05</ele>
        <time>2025-05-13T14:12:17Z</time>
      </trkpt>
      <trkpt lat="45.64202" lon="4.75311">
        <ele>202.01</ele>
        <time>2025-05-13T14:12:37Z</time>
      </trkpt>
      <trkpt lat="45.64267" lon="4.75253">
        <ele>202.49</ele>
        <time>2025-05-13T14:12:57Z</time>
      </trkpt>
      <trkpt lat="45.64326" lon="4.75217">
        <ele>203.94</ele>
        <time>2025-05-13T14:13:15Z</time>
      </trkpt>
      <trkpt lat="45.64374" lon="4.752">
        <ele>204.9</ele>
        <time>2025-05-13T14:13:31Z</time>
      </trkpt>
      <trkpt lat="45.64427" lon="4.75189">
        <ele>206.34</ele>
        <time>2025-05-13T14:13:48Z</time>
      </trkpt>
      <trkpt lat="45.64474" lon="4.75182">
        <ele>207.3</ele>
        <time>2025-05-13T14:14:03Z</time>
      </trkpt>
      <trkpt lat="45.64532" lon="4.75177">
        <ele>209.22</ele>
        <time>2025-05-13T14:14:22Z</time>
      </trkpt>
      <trkpt lat="45.64597" lon="4.75172">
        <ele>210.67</ele>
        <time>2025-05-13T14:14:44Z</time>
      </trkpt>
      <trkpt lat="45.64662" lon="4.75166">
        <ele>212.59</ele>
        <time>2025-05-13T14:15:05Z</time>
      </trkpt>
      <trkpt lat="45.6471" lon="4.75162">
        <ele>213.55</ele>
        <time>2025-05-13T14:15:19Z</time>
      </trkpt>
      <trkpt lat="45.64796" lon="4.75154">
        <ele>213.07</ele>
        <time>2025-05-13T14:15:38Z</time>
      </trkpt>
      <trkpt lat="45.64892" lon="4.75146">
        <ele>213.07</ele>
        <time>2025-05-13T14:16:00Z</time>
      </trkpt>
      <trkpt lat="45.64975" lon="4.75141">
        <ele>213.55</ele>
        <time>2025-05-13T14:16:20Z</time>
      </trkpt>
      <trkpt lat="45.65064" lon="4.75132">
        <ele>213.55</ele>
        <time>2025-05-13T14:16:41Z</time>
      </trkpt>
      <trkpt lat="45.65129" lon="4.75133">
        <ele>214.03</ele>
        <time>2025-05-13T14:16:57Z</time>
      </trkpt>
      <trkpt lat="45.65203" lon="4.75125">
        <ele>214.51</ele>
        <time>2025-05-13T14:17:17Z</time>
      </trkpt>
      <trkpt lat="45.65265" lon="4.75121">
        <ele>214.99</ele>
        <time>2025-05-13T14:17:35Z</time>
      </trkpt>
      <trkpt lat="45.65278" lon="4.75125">
        <ele>214.51</ele>
        <time>2025-05-13T14:17:42Z</time>
      </trkpt>
      <trkpt lat="45.6528" lon="4.75126">
        <ele>214.51</ele>
        <time>2025-05-13T14:17:43Z</time>
      </trkpt>
      <trkpt lat="45.65282" lon="4.75124">
        <ele>214.51</ele>
        <time>2025-05-13T14:17:44Z</time>
      </trkpt>
      <trkpt lat="45.65321" lon="4.75115">
        <ele>215.47</ele>
        <time>2025-05-13T14:17:58Z</time>
      </trkpt>
      <trkpt lat="45.65339" lon="4.75115">
        <ele>214.99</ele>
        <time>2025-05-13T14:18:09Z</time>
      </trkpt>
      <trkpt lat="45.6534" lon="4.75114">
        <ele>214.51</ele>
        <time>2025-05-13T14:18:42Z</time>
      </trkpt>
      <trkpt lat="45.65342" lon="4.75113">
        <ele>214.99</ele>
        <time>2025-05-13T14:19:24Z</time>
      </trkpt>
      <trkpt lat="45.65343" lon="4.75113">
        <ele>214.99</ele>
        <time>2025-05-13T14:19:55Z</time>
      </trkpt>
      <trkpt lat="45.65342" lon="4.75111">
        <ele>214.99</ele>
        <time>2025-05-13T14:20:30Z</time>
      </trkpt>
      <trkpt lat="45.65344" lon="4.75114">
        <ele>214.99</ele>
        <time>2025-05-13T14:21:04Z</time>
      </trkpt>
      <trkpt lat="45.65343" lon="4.75112">
        <ele>214.99</ele>
        <time>2025-05-13T14:21:40Z</time>
      </trkpt>
      <trkpt lat="45.65344" lon="4.75111">
        <ele>215.47</ele>
        <time>2025-05-13T14:22:12Z</time>
      </trkpt>
      <trkpt lat="45.65344" lon="4.75111">
        <ele>215.95</ele>
        <time>2025-05-13T14:22:42Z</time>
      </trkpt>
      <trkpt lat="45.65343" lon="4.75109">
        <ele>215.95</ele>
        <time>2025-05-13T14:23:13Z</time>
      </trkpt>
      <trkpt lat="45.6534" lon="4.75112">
        <ele>215.95</ele>
        <time>2025-05-13T14:23:26Z</time>
      </trkpt>
      <trkpt lat="45.65339" lon="4.75113">
        <ele>215.95</ele>
        <time>2025-05-13T14:23:27Z</time>
      </trkpt>
      <trkpt lat="45.65335" lon="4.75131">
        <ele>214.99</ele>
        <time>2025-05-13T14:23:38Z</time>
      </trkpt>
      <trkpt lat="45.6534" lon="4.75176">
        <ele>215.47</ele>
        <time>2025-05-13T14:23:46Z</time>
      </trkpt>
      <trkpt lat="45.65349" lon="4.75222">
        <ele>215.95</ele>
        <time>2025-05-13T14:23:53Z</time>
      </trkpt>
      <trkpt lat="45.65396" lon="4.75299">
        <ele>215.47</ele>
        <time>2025-05-13T14:24:07Z</time>
      </trkpt>
      <trkpt lat="45.65448" lon="4.75381">
        <ele>215.47</ele>
        <time>2025-05-13T14:24:22Z</time>
      </trkpt>
      <trkpt lat="45.65472" lon="4.75455">
        <ele>214.51</ele>
        <time>2025-05-13T14:24:33Z</time>
      </trkpt>
      <trkpt lat="45.65473" lon="4.75463">
        <ele>214.51</ele>
        <time>2025-05-13T14:24:34Z</time>
      </trkpt>
      <trkpt lat="45.65467" lon="4.75586">
        <ele>215.95</ele>
        <time>2025-05-13T14:24:50Z</time>
      </trkpt>
      <trkpt lat="45.65465" lon="4.75674">
        <ele>215.95</ele>
        <time>2025-05-13T14:25:02Z</time>
      </trkpt>
      <trkpt lat="45.65478" lon="4.75721">
        <ele>215.95</ele>
        <time>2025-05-13T14:25:09Z</time>
      </trkpt>
      <trkpt lat="45.65533" lon="4.75838">
        <ele>216.91</ele>
        <time>2025-05-13T14:25:30Z</time>
      </trkpt>
      <trkpt lat="45.65594" lon="4.7593">
        <ele>216.43</ele>
        <time>2025-05-13T14:25:48Z</time>
      </trkpt>
      <trkpt lat="45.65654" lon="4.76032">
        <ele>214.51</ele>
        <time>2025-05-13T14:26:07Z</time>
      </trkpt>
      <trkpt lat="45.65656" lon="4.76039">
        <ele>214.51</ele>
        <time>2025-05-13T14:26:08Z</time>
      </trkpt>
      <trkpt lat="45.65659" lon="4.76046">
        <ele>214.03</ele>
        <time>2025-05-13T14:26:09Z</time>
      </trkpt>
      <trkpt lat="45.65662" lon="4.76052">
        <ele>213.07</ele>
        <time>2025-05-13T14:26:10Z</time>
      </trkpt>
      <trkpt lat="45.65667" lon="4.76058">
        <ele>213.55</ele>
        <time>2025-05-13T14:26:11Z</time>
      </trkpt>
      <trkpt lat="45.65672" lon="4.76063">
        <ele>213.07</ele>
        <time>2025-05-13T14:26:12Z</time>
      </trkpt>
      <trkpt lat="45.65718" lon="4.76139">
        <ele>209.7</ele>
        <time>2025-05-13T14:26:22Z</time>
      </trkpt>
      <trkpt lat="45.65735" lon="4.76188">
        <ele>209.22</ele>
        <time>2025-05-13T14:26:27Z</time>
      </trkpt>
      <trkpt lat="45.65762" lon="4.76355">
        <ele>209.22</ele>
        <time>2025-05-13T14:26:46Z</time>
      </trkpt>
      <trkpt lat="45.65772" lon="4.76421">
        <ele>209.22</ele>
        <time>2025-05-13T14:26:55Z</time>
      </trkpt>
      <trkpt lat="45.65774" lon="4.76427">
        <ele>209.7</ele>
        <time>2025-05-13T14:26:56Z</time>
      </trkpt>
      <trkpt lat="45.65796" lon="4.76496">
        <ele>211.15</ele>
        <time>2025-05-13T14:27:09Z</time>
      </trkpt>
      <trkpt lat="45.65815" lon="4.76532">
        <ele>211.63</ele>
        <time>2025-05-13T14:27:18Z</time>
      </trkpt>
      <trkpt lat="45.65818" lon="4.76532">
        <ele>212.11</ele>
        <time>2025-05-13T14:27:19Z</time>
      </trkpt>
      <trkpt lat="45.65822" lon="4.7653">
        <ele>212.59</ele>
        <time>2025-05-13T14:27:20Z</time>
      </trkpt>
      <trkpt lat="45.65825" lon="4.76528">
        <ele>212.11</ele>
        <time>2025-05-13T14:27:21Z</time>
      </trkpt>
      <trkpt lat="45.6583" lon="4.76524">
        <ele>212.11</ele>
        <time>2025-05-13T14:27:22Z</time>
      </trkpt>
      <trkpt lat="45.6588" lon="4.76499">
        <ele>212.11</ele>
        <time>2025-05-13T14:27:34Z</time>
      </trkpt>
      <trkpt lat="45.65945" lon="4.76462">
        <ele>211.63</ele>
        <time>2025-05-13T14:27:50Z</time>
      </trkpt>
      <trkpt lat="45.66011" lon="4.76431">
        <ele>212.11</ele>
        <time>2025-05-13T14:28:05Z</time>
      </trkpt>
      <trkpt lat="45.66032" lon="4.76423">
        <ele>212.11</ele>
        <time>2025-05-13T14:28:10Z</time>
      </trkpt>
      <trkpt lat="45.66036" lon="4.76423">
        <ele>212.11</ele>
        <time>2025-05-13T14:28:11Z</time>
      </trkpt>
      <trkpt lat="45.6604" lon="4.76425">
        <ele>211.63</ele>
        <time>2025-05-13T14:28:12Z</time>
      </trkpt>
      <trkpt lat="45.66044" lon="4.76425">
        <ele>211.63</ele>
        <time>2025-05-13T14:28:13Z</time>
      </trkpt>
      <trkpt lat="45.66047" lon="4.76425">
        <ele>212.11</ele>
        <time>2025-05-13T14:28:14Z</time>
      </trkpt>
      <trkpt lat="45.66051" lon="4.76424">
        <ele>211.63</ele>
        <time>2025-05-13T14:28:15Z</time>
      </trkpt>
      <trkpt lat="45.66055" lon="4.76422">
        <ele>211.63</ele>
        <time>2025-05-13T14:28:16Z</time>
      </trkpt>
      <trkpt lat="45.66078" lon="4.76409">
        <ele>211.63</ele>
        <time>2025-05-13T14:28:21Z</time>
      </trkpt>
      <trkpt lat="45.66171" lon="4.76385">
        <ele>211.63</ele>
        <time>2025-05-13T14:28:41Z</time>
      </trkpt>
      <trkpt lat="45.66242" lon="4.7637">
        <ele>213.07</ele>
        <time>2025-05-13T14:28:59Z</time>
      </trkpt>
      <trkpt lat="45.66304" lon="4.76348">
        <ele>213.55</ele>
        <time>2025-05-13T14:29:14Z</time>
      </trkpt>
      <trkpt lat="45.66365" lon="4.76285">
        <ele>214.03</ele>
        <time>2025-05-13T14:29:31Z</time>
      </trkpt>
      <trkpt lat="45.66409" lon="4.76203">
        <ele>213.07</ele>
        <time>2025-05-13T14:29:46Z</time>
      </trkpt>
      <trkpt lat="45.66422" lon="4.76192">
        <ele>213.07</ele>
        <time>2025-05-13T14:29:49Z</time>
      </trkpt>
      <trkpt lat="45.66426" lon="4.76189">
        <ele>213.55</ele>
        <time>2025-05-13T14:29:50Z</time>
      </trkpt>
      <trkpt lat="45.66492" lon="4.7618">
        <ele>213.55</ele>
        <time>2025-05-13T14:30:04Z</time>
      </trkpt>
      <trkpt lat="45.66564" lon="4.76176">
        <ele>214.99</ele>
        <time>2025-05-13T14:30:22Z</time>
      </trkpt>
      <trkpt lat="45.66593" lon="4.76162">
        <ele>214.51</ele>
        <time>2025-05-13T14:30:29Z</time>
      </trkpt>
      <trkpt lat="45.66596" lon="4.76159">
        <ele>215.47</ele>
        <time>2025-05-13T14:30:30Z</time>
      </trkpt>
      <trkpt lat="45.66599" lon="4.76155">
        <ele>214.51</ele>
        <time>2025-05-13T14:30:31Z</time>
      </trkpt>
      <trkpt lat="45.66602" lon="4.76152">
        <ele>214.99</ele>
        <time>2025-05-13T14:30:32Z</time>
      </trkpt>
      <trkpt lat="45.66605" lon="4.76148">
        <ele>214.51</ele>
        <time>2025-05-13T14:30:33Z</time>
      </trkpt>
      <trkpt lat="45.66615" lon="4.76131">
        <ele>215.47</ele>
        <time>2025-05-13T14:30:37Z</time>
      </trkpt>
      <trkpt lat="45.66665" lon="4.7603">
        <ele>215.47</ele>
        <time>2025-05-13T14:30:57Z</time>
      </trkpt>
      <trkpt lat="45.66707" lon="4.75942">
        <ele>215.47</ele>
        <time>2025-05-13T14:31:14Z</time>
      </trkpt>
      <trkpt lat="45.66726" lon="4.75916">
        <ele>215.95</ele>
        <time>2025-05-13T14:31:21Z</time>
      </trkpt>
      <trkpt lat="45.66728" lon="4.75911">
        <ele>215.95</ele>
        <time>2025-05-13T14:31:22Z</time>
      </trkpt>
      <trkpt lat="45.6673" lon="4.75906">
        <ele>215.95</ele>
        <time>2025-05-13T14:31:23Z</time>
      </trkpt>
      <trkpt lat="45.66735" lon="4.75894">
        <ele>215.95</ele>
        <time>2025-05-13T14:31:25Z</time>
      </trkpt>
      <trkpt lat="45.66788" lon="4.75811">
        <ele>215.95</ele>
        <time>2025-05-13T14:31:42Z</time>
      </trkpt>
      <trkpt lat="45.66863" lon="4.75759">
        <ele>215.95</ele>
        <time>2025-05-13T14:32:00Z</time>
      </trkpt>
      <trkpt lat="45.66906" lon="4.75731">
        <ele>215.95</ele>
        <time>2025-05-13T14:32:11Z</time>
      </trkpt>
      <trkpt lat="45.66911" lon="4.7573">
        <ele>215.95</ele>
        <time>2025-05-13T14:32:12Z</time>
      </trkpt>
      <trkpt lat="45.6697" lon="4.75706">
        <ele>217.88</ele>
        <time>2025-05-13T14:32:28Z</time>
      </trkpt>
      <trkpt lat="45.67042" lon="4.75692">
        <ele>218.84</ele>
        <time>2025-05-13T14:32:48Z</time>
      </trkpt>
      <trkpt lat="45.67108" lon="4.75683">
        <ele>218.36</ele>
        <time>2025-05-13T14:33:04Z</time>
      </trkpt>
      <trkpt lat="45.67123" lon="4.75679">
        <ele>218.36</ele>
        <time>2025-05-13T14:33:08Z</time>
      </trkpt>
      <trkpt lat="45.67126" lon="4.75675">
        <ele>217.88</ele>
        <time>2025-05-13T14:33:09Z</time>
      </trkpt>
      <trkpt lat="45.67128" lon="4.75669">
        <ele>217.4</ele>
        <time>2025-05-13T14:33:10Z</time>
      </trkpt>
      <trkpt lat="45.67129" lon="4.75662">
        <ele>216.91</ele>
        <time>2025-05-13T14:33:11Z</time>
      </trkpt>
      <trkpt lat="45.67129" lon="4.75655">
        <ele>216.91</ele>
        <time>2025-05-13T14:33:12Z</time>
      </trkpt>
      <trkpt lat="45.6713" lon="4.75647">
        <ele>216.91</ele>
        <time>2025-05-13T14:33:13Z</time>
      </trkpt>
      <trkpt lat="45.67145" lon="4.75541">
        <ele>216.43</ele>
        <time>2025-05-13T14:33:29Z</time>
      </trkpt>
      <trkpt lat="45.67147" lon="4.75528">
        <ele>216.43</ele>
        <time>2025-05-13T14:33:31Z</time>
      </trkpt>
      <trkpt lat="45.67148" lon="4.75522">
        <ele>216.43</ele>
        <time>2025-05-13T14:33:32Z</time>
      </trkpt>
      <trkpt lat="45.6715" lon="4.75516">
        <ele>216.43</ele>
        <time>2025-05-13T14:33:33Z</time>
      </trkpt>
      <trkpt lat="45.67168" lon="4.75427">
        <ele>215.95</ele>
        <time>2025-05-13T14:33:47Z</time>
      </trkpt>
      <trkpt lat="45.67183" lon="4.75343">
        <ele>216.91</ele>
        <time>2025-05-13T14:34:04Z</time>
      </trkpt>
      <trkpt lat="45.67181" lon="4.75334">
        <ele>216.91</ele>
        <time>2025-05-13T14:34:17Z</time>
      </trkpt>
      <trkpt lat="45.67179" lon="4.75334">
        <ele>217.4</ele>
        <time>2025-05-13T14:34:18Z</time>
      </trkpt>
      <trkpt lat="45.67145" lon="4.75327">
        <ele>217.4</ele>
        <time>2025-05-13T14:34:30Z</time>
      </trkpt>
      <trkpt lat="45.67094" lon="4.75315">
        <ele>217.88</ele>
        <time>2025-05-13T14:34:45Z</time>
      </trkpt>
      <trkpt lat="45.67092" lon="4.7531">
        <ele>217.88</ele>
        <time>2025-05-13T14:34:46Z</time>
      </trkpt>
      <trkpt lat="45.67091" lon="4.75305">
        <ele>217.88</ele>
        <time>2025-05-13T14:34:47Z</time>
      </trkpt>
      <trkpt lat="45.6709" lon="4.753">
        <ele>217.88</ele>
        <time>2025-05-13T14:34:48Z</time>
      </trkpt>
      <trkpt lat="45.6709" lon="4.75295">
        <ele>217.88</ele>
        <time>2025-05-13T14:34:49Z</time>
      </trkpt>
      <trkpt lat="45.67089" lon="4.75289">
        <ele>218.36</ele>
        <time>2025-05-13T14:34:50Z</time>
      </trkpt>
      <trkpt lat="45.67074" lon="4.75208">
        <ele>218.36</ele>
        <time>2025-05-13T14:35:05Z</time>
      </trkpt>
      <trkpt lat="45.67042" lon="4.75116">
        <ele>218.84</ele>
        <time>2025-05-13T14:35:23Z</time>
      </trkpt>
      <trkpt lat="45.6702" lon="4.7503">
        <ele>220.76</ele>
        <time>2025-05-13T14:35:40Z</time>
      </trkpt>
      <trkpt lat="45.67002" lon="4.74978">
        <ele>221.24</ele>
        <time>2025-05-13T14:35:51Z</time>
      </trkpt>
      <trkpt lat="45.66981" lon="4.74897">
        <ele>223.16</ele>
        <time>2025-05-13T14:36:08Z</time>
      </trkpt>
      <trkpt lat="45.6698" lon="4.74812">
        <ele>226.05</ele>
        <time>2025-05-13T14:36:28Z</time>
      </trkpt>
      <trkpt lat="45.66989" lon="4.74756">
        <ele>227.49</ele>
        <time>2025-05-13T14:36:45Z</time>
      </trkpt>
      <trkpt lat="45.67011" lon="4.74703">
        <ele>229.41</ele>
        <time>2025-05-13T14:37:04Z</time>
      </trkpt>
      <trkpt lat="45.67019" lon="4.74649">
        <ele>231.33</ele>
        <time>2025-05-13T14:37:23Z</time>
      </trkpt>
      <trkpt lat="45.67016" lon="4.74598">
        <ele>232.78</ele>
        <time>2025-05-13T14:37:39Z</time>
      </trkpt>
      <trkpt lat="45.67028" lon="4.74544">
        <ele>235.66</ele>
        <time>2025-05-13T14:37:55Z</time>
      </trkpt>
      <trkpt lat="45.67051" lon="4.74513">
        <ele>238.06</ele>
        <time>2025-05-13T14:38:10Z</time>
      </trkpt>
      <trkpt lat="45.67086" lon="4.74483">
        <ele>239.51</ele>
        <time>2025-05-13T14:38:28Z</time>
      </trkpt>
      <trkpt lat="45.67123" lon="4.74448">
        <ele>240.95</ele>
        <time>2025-05-13T14:38:46Z</time>
      </trkpt>
      <trkpt lat="45.67165" lon="4.74397">
        <ele>242.87</ele>
        <time>2025-05-13T14:39:08Z</time>
      </trkpt>
      <trkpt lat="45.67198" lon="4.74351">
        <ele>243.83</ele>
        <time>2025-05-13T14:39:26Z</time>
      </trkpt>
      <trkpt lat="45.67222" lon="4.74301">
        <ele>244.79</ele>
        <time>2025-05-13T14:39:42Z</time>
      </trkpt>
      <trkpt lat="45.67246" lon="4.74244">
        <ele>244.79</ele>
        <time>2025-05-13T14:39:57Z</time>
      </trkpt>
      <trkpt lat="45.67272" lon="4.74175">
        <ele>245.75</ele>
        <time>2025-05-13T14:40:15Z</time>
      </trkpt>
      <trkpt lat="45.67276" lon="4.74108">
        <ele>246.23</ele>
        <time>2025-05-13T14:40:30Z</time>
      </trkpt>
      <trkpt lat="45.67272" lon="4.74039">
        <ele>247.68</ele>
        <time>2025-05-13T14:40:46Z</time>
      </trkpt>
      <trkpt lat="45.67257" lon="4.7397">
        <ele>250.08</ele>
        <time>2025-05-13T14:41:04Z</time>
      </trkpt>
      <trkpt lat="45.67256" lon="4.73906">
        <ele>251.04</ele>
        <time>2025-05-13T14:41:20Z</time>
      </trkpt>
      <trkpt lat="45.67268" lon="4.73849">
        <ele>252.48</ele>
        <time>2025-05-13T14:41:33Z</time>
      </trkpt>
      <trkpt lat="45.67284" lon="4.73787">
        <ele>252.96</ele>
        <time>2025-05-13T14:41:48Z</time>
      </trkpt>
      <trkpt lat="45.67285" lon="4.7371">
        <ele>253.44</ele>
        <time>2025-05-13T14:42:05Z</time>
      </trkpt>
      <trkpt lat="45.67284" lon="4.73654">
        <ele>254.89</ele>
        <time>2025-05-13T14:42:19Z</time>
      </trkpt>
      <trkpt lat="45.67286" lon="4.73603">
        <ele>256.81</ele>
        <time>2025-05-13T14:42:32Z</time>
      </trkpt>
      <trkpt lat="45.67294" lon="4.73535">
        <ele>257.29</ele>
        <time>2025-05-13T14:42:48Z</time>
      </trkpt>
      <trkpt lat="45.67294" lon="4.73481">
        <ele>258.73</ele>
        <time>2025-05-13T14:43:04Z</time>
      </trkpt>
      <trkpt lat="45.67287" lon="4.73429">
        <ele>260.65</ele>
        <time>2025-05-13T14:43:21Z</time>
      </trkpt>
      <trkpt lat="45.67281" lon="4.73379">
        <ele>262.1</ele>
        <time>2025-05-13T14:43:37Z</time>
      </trkpt>
      <trkpt lat="45.67287" lon="4.73319">
        <ele>263.54</ele>
        <time>2025-05-13T14:43:53Z</time>
      </trkpt>
      <trkpt lat="45.67305" lon="4.73265">
        <ele>265.46</ele>
        <time>2025-05-13T14:44:09Z</time>
      </trkpt>
      <trkpt lat="45.67308" lon="4.73221">
        <ele>266.9</ele>
        <time>2025-05-13T14:44:25Z</time>
      </trkpt>
      <trkpt lat="45.67306" lon="4.73162">
        <ele>268.83</ele>
        <time>2025-05-13T14:44:44Z</time>
      </trkpt>
      <trkpt lat="45.673" lon="4.73127">
        <ele>269.31</ele>
        <time>2025-05-13T14:44:56Z</time>
      </trkpt>
      <trkpt lat="45.67266" lon="4.73127">
        <ele>269.31</ele>
        <time>2025-05-13T14:45:09Z</time>
      </trkpt>
      <trkpt lat="45.67233" lon="4.73116">
        <ele>270.27</ele>
        <time>2025-05-13T14:45:23Z</time>
      </trkpt>
      <trkpt lat="45.67209" lon="4.73092">
        <ele>271.71</ele>
        <time>2025-05-13T14:45:37Z</time>
      </trkpt>
    </trkseg>
  </trk>
</gpx>